[[{"header":{"parameterUnit":"m.s-1","parameterCategory":1,"la1":30.6,"la2":29.2853,"lo1":-89.7004,"lo2":-87.6739,"dy":0.0162,"dx":0.0183,"nx":112,"ny":82,"refTime":"2023-06-20T06:00:00:Z","depth":0,"parameterNumber":2,"parameterNumberName":"U-component_of_WINDS"},"data":[0.0,0.0,0.0,0.0,0.0,0.0,0.0,0.0,0.0,0.0,0.0,0.0,0.0,0.0,0.0,0.0,0.0,0.0,0.0,0.0,0.0,0.0,0.0,0.0,0.0,0.0,0.0,0.0,0.0,0.0,0.0,0.0,0.0,0.0,0.0,0.0,0.0,0.0,0.0,0.0,0.0,0.0,0.0,0.0,0.0,0.0,0.0,0.0,0.0,0.0,0.0,0.0,0.0,0.0,0.0,0.0,0.0,0.0,0.0,0.0,0.0,0.0,0.0,0.0,0.0,0.0,0.0,0.0,0.0,0.0,0.0,0.0,0.0,0.0,0.0,0.0,0.0,0.0,0.0,0.0,0.0,0.0,0.0,0.0,0.0,0.0,0.0,0.0,0.0,0.0,0.43,0.4233,0.43,0.43,0.4233,0.4205,0.4137,0.4054,0.0,0.0,0.0,0.0,0.0,0.0,0.0,0.0,0.0,0.0,0.0,0.0,0.0,0.0,0.0,0.0,0.0,0.0,0.0,0.0,0.0,0.0,0.0,0.0,0.0,0.0,0.0,0.0,0.0,0.0,0.0,0.0,0.0,0.0,0.0,0.0,0.0,0.0,0.0,0.0,0.0,0.0,0.0,0.0,0.0,0.0,0.0,0.0,0.0,0.0,0.0,0.0,0.0,0.0,0.0,0.0,0.0,0.0,0.0,0.0,0.0,0.0,0.0,0.0,0.0,0.0,0.0,0.0,0.0,0.0,0.0,0.0,0.0,0.0,0.0,0.0,0.0,0.0,0.0,0.0,0.0,0.0,0.0,0.0,0.0,0.0,0.0,0.0,0.0,0.0,0.0,0.0,0.0,0.0,0.0,0.0,0.0,0.0,0.0,0.0,0.0,0.0,0.0,0.0,0.4233,0.4095,0.4164,0.4233,0.4028,0.4215,0.4161,0.3865,0.0,0.0,0.0,0.0,0.0,0.0,0.0,0.0,0.0,0.0,0.0,0.0,0.0,0.0,0.0,0.0,0.0,0.0,0.0,0.0,0.0,0.0,0.0,0.0,0.0,0.0,0.0,0.0,0.0,0.0,0.0,0.0,0.0,0.0,0.0,0.0,0.0,0.0,0.0,0.0,0.0,0.0,0.0,0.0,0.0,0.0,0.0,0.0,0.0,0.0,0.0,0.0,0.0,0.0,0.0,0.0,0.0,0.0,0.0,0.0,0.0,0.0,0.0,0.0,0.0,0.0,0.0,0.0,0.0,0.0,0.0,0.0,0.0,0.0,0.0,0.0,0.0,0.0,0.0,0.0,0.0,0.0,0.0,0.0,0.0,0.0,0.0,0.0,0.0,0.0,0.0,0.0,0.0,0.0,0.0,0.0,0.0,0.0,0.0,0.0,0.0,0.0,0.0,0.43,0.4233,0.4028,0.4097,0.4097,0.4028,0.4097,0.4074,0.3888,0.3856,0.0,0.0,0.0,0.0,0.0,0.0,0.0,0.0,0.0,0.0,0.0,0.0,0.0,0.0,0.0,0.0,0.0,0.0,0.0,0.0,0.0,0.0,0.0,0.0,0.0,0.0,0.0,0.0,0.0,0.0,0.0,0.0,0.0,0.0,0.0,0.0,0.0,0.0,0.0,0.0,0.0,0.0,0.0,0.0,0.0,0.0,0.0,0.0,0.0,0.0,0.0,0.0,0.0,0.0,0.0,0.0,0.0,0.0,0.0,0.0,0.0,0.0,0.0,0.0,0.0,0.0,0.0,0.0,0.0,0.0,0.0,0.0,0.0,0.0,0.0,0.0,0.0,0.0,0.0,0.0,0.0,0.0,0.0,0.0,0.0,0.0,0.0,0.0,0.0,0.0,0.0,0.0,0.0,0.0,0.0,0.0,0.0,0.0,0.0,0.0,0.0,0.0,0.4233,0.4164,0.3961,0.3961,0.3961,0.3894,0.3894,0.3961,0.3894,0.3816,0.0,0.0,0.0,0.0,0.0,0.0,0.0,0.0,0.0,0.0,0.0,0.0,0.0,0.0,0.0,0.0,0.0,0.0,0.0,0.0,0.0,0.0,0.0,0.0,0.0,0.0,0.0,0.0,0.0,0.0,0.0,0.0,0.0,0.0,0.0,0.0,0.0,0.0,0.0,0.0,0.0,0.0,0.0,0.0,0.0,0.0,0.0,0.0,0.0,0.0,0.0,0.0,0.0,0.0,0.0,0.0,0.0,0.0,0.0,0.0,0.0,0.0,0.0,0.0,0.0,0.0,0.0,0.0,0.0,0.0,0.0,0.0,0.0,0.0,0.0,0.0,0.0,0.0,0.0,0.0,0.0,0.0,0.0,0.0,0.0,0.0,0.0,0.0,0.0,0.0,0.0,0.0,0.0,0.0,0.0,0.0,0.0,0.0,0.0,0.0,0.0,0.0,0.4164,0.3961,0.3825,0.3825,0.3761,0.3565,0.3694,0.3761,0.3565,0.3558,0.0,0.0,0.0,0.0,0.0,0.0,0.0,0.0,0.0,0.0,0.0,0.0,0.0,0.0,0.0,0.0,0.0,0.0,0.0,0.0,0.0,0.0,0.0,0.0,0.0,0.0,0.0,0.0,0.0,0.0,0.0,0.0,0.0,0.0,0.0,0.0,0.0,0.0,0.0,0.0,0.0,0.0,0.0,0.0,0.0,0.0,0.0,0.0,0.0,0.0,0.0,0.0,0.0,0.0,0.0,0.0,0.0,0.0,0.0,0.0,0.0,0.0,0.0,0.0,0.0,0.0,0.0,0.0,0.0,0.0,0.0,0.0,0.0,0.0,0.0,0.0,0.0,0.0,0.0,0.0,0.0,0.0,0.0,0.0,0.0,0.0,0.0,0.0,0.0,0.0,0.0,0.0,0.0,0.0,0.0,0.0,0.0,0.0,0.0,0.0,0.0,0.0,0.4233,0.4097,0.3825,0.3825,0.3758,0.3694,0.3758,0.3758,0.3694,0.0,0.0,0.0,0.0,0.0,0.0,0.0,0.0,0.0,0.0,0.0,0.0,0.0,0.0,0.0,0.0,0.0,0.0,0.0,0.0,0.0,0.0,0.0,0.0,0.0,0.0,0.0,0.0,0.0,0.0,0.0,0.0,0.0,0.0,0.0,0.0,0.0,0.0,0.0,0.0,0.0,0.0,0.0,0.0,0.0,0.0,0.0,0.0,0.0,0.0,0.0,0.0,0.0,0.0,0.0,0.0,0.0,0.0,0.0,0.0,0.0,0.0,0.0,0.0,0.0,0.0,0.0,0.0,0.0,0.0,0.0,0.0,0.0,0.0,0.0,0.0,0.0,0.0,0.0,0.0,0.0,0.0,0.0,0.0,0.0,0.0,0.0,0.0,0.0,0.0,0.0,0.0,0.0,0.0,0.0,0.0,0.0,0.0,0.0,0.0,0.0,0.0,0.4231,0.4231,0.4097,0.3892,0.3825,0.3825,0.3825,0.3825,0.3758,0.3694,0.0,0.0,0.0,0.0,0.0,0.0,0.0,0.0,0.0,0.0,0.0,0.0,0.0,0.0,0.0,0.0,0.0,0.0,0.0,0.0,0.0,0.0,0.0,0.0,0.0,0.0,0.0,0.0,0.0,0.0,0.0,0.0,0.0,0.0,0.0,0.0,0.0,0.0,0.0,0.0,0.0,0.0,0.0,0.0,0.0,0.0,0.0,0.0,0.0,0.0,0.0,0.0,0.0,0.0,0.0,0.0,0.0,0.0,0.0,0.0,0.0,0.0,0.0,0.0,0.0,0.0,0.0,0.0,0.0,0.0,0.0,0.0,0.0,0.0,0.0,0.0,0.0,0.0,0.0,0.0,0.0,0.0,0.0,0.0,0.0,0.0,0.0,0.0,0.0,0.0,0.0,0.0,0.0,0.0,0.0,0.0,0.0,0.0,0.0,0.0,0.0,0.0,0.4033,0.4033,0.4033,0.4033,0.3897,0.3828,0.3828,0.3825,0.3694,0.0,0.0,0.0,0.0,0.0,0.0,0.0,0.0,0.0,0.0,0.0,0.0,0.0,0.0,0.0,0.0,0.0,0.0,0.0,0.0,0.0,0.0,0.0,0.0,0.0,0.0,0.0,0.0,0.0,0.0,0.0,0.0,0.0,0.0,0.0,0.0,0.0,0.0,0.0,0.0,0.0,0.0,0.0,0.0,0.0,0.0,0.0,0.0,0.0,0.0,0.0,0.0,0.0,0.0,0.0,0.0,0.0,0.0,0.0,0.0,0.0,0.0,0.0,0.0,0.0,0.0,0.0,0.0,0.0,0.0,0.0,0.0,0.0,0.0,0.0,0.0,0.0,0.0,0.0,0.0,0.0,0.0,0.0,0.0,0.0,0.0,0.0,0.0,0.0,0.0,0.0,0.0,0.0,0.0,0.0,0.0,0.0,0.0,0.0,0.0,0.0,0.0,0.0,0.427,0.4406,0.4404,0.4331,0.426,0.4159,0.4084,0.4079,0.3976,0.3699,0.0,0.0,0.0,0.0,0.0,0.0,0.0,0.0,0.0,0.0,0.0,0.0,0.0,0.0,0.0,0.0,0.0,0.0,0.0,0.0,0.0,0.0,0.0,0.0,0.0,0.0,0.0,0.0,0.0,0.0,0.0,0.0,0.0,0.0,0.0,0.0,0.0,0.0,0.0,0.0,0.0,0.0,0.0,0.0,0.0,0.0,0.0,0.0,0.0,0.0,0.0,0.0,0.0,0.0,0.0,0.0,0.0,0.0,0.0,0.0,0.0,0.0,0.0,0.0,0.0,0.0,0.0,0.0,0.0,0.0,0.0,0.0,0.0,0.0,0.0,0.0,0.0,0.0,0.0,0.0,0.0,0.0,0.0,0.0,0.0,0.0,0.0,0.0,0.0,0.0,0.0,0.0,0.0,0.0,0.0,0.0,0.0,0.0,0.0,0.0,0.0,0.0,0.4222,0.4509,0.4651,0.4506,0.4504,0.4477,0.4412,0.4406,0.4305,0.4025,0.0,0.0,0.0,0.0,0.0,0.0,0.0,0.0,0.0,0.0,0.0,0.0,0.0,0.0,0.0,0.0,0.0,0.0,0.0,0.0,0.0,0.0,0.0,0.0,0.0,0.0,0.0,0.0,0.0,0.0,0.0,0.0,0.0,0.0,0.0,0.0,0.0,0.0,0.0,0.0,0.0,0.0,0.0,0.0,0.0,0.0,0.0,0.0,0.0,0.0,0.0,0.0,0.0,0.0,0.0,0.0,0.0,0.0,0.0,0.0,0.0,0.0,0.0,0.0,0.0,0.0,0.0,0.0,0.0,0.0,0.0,0.0,0.0,0.0,0.0,0.0,0.0,0.0,0.0,0.0,0.0,0.0,0.0,0.0,0.0,0.0,0.0,0.0,0.0,0.0,0.0,0.0,0.0,0.0,0.0,0.0,0.0,0.0,0.0,0.0,0.0,0.0,0.4179,0.4468,0.4759,0.4759,0.4759,0.4756,0.4742,0.4742,0.4592,0.4432,0.0,0.0,0.0,0.0,0.0,0.0,0.0,0.0,0.0,0.0,0.0,0.0,0.0,0.0,0.0,0.0,0.0,0.0,0.0,0.0,0.0,0.0,0.0,0.0,0.0,0.0,0.0,0.0,0.0,0.0,0.0,0.0,0.0,0.0,0.0,0.0,0.0,0.0,0.0,0.0,0.0,0.0,0.0,0.0,0.0,0.0,0.0,0.0,0.0,0.0,0.0,0.0,0.0,0.0,0.0,0.0,0.0,0.0,0.0,0.0,0.4894,0.0,0.0,0.0,0.0,0.0,0.0,0.0,0.0,0.0,0.0,0.0,0.0,0.0,0.0,0.0,0.0,0.0,0.0,0.0,0.0,0.0,0.0,0.0,0.0,0.0,0.0,0.0,0.0,0.0,0.0,0.0,0.0,0.0,0.0,0.0,0.0,0.0,0.0,0.0,0.0,0.0,0.4394,0.4706,0.4939,0.4939,0.4939,0.4901,0.4803,0.4795,0.468,0.4437,0.4432,0.0,0.0,0.0,0.0,0.0,0.0,0.0,0.0,0.0,0.0,0.0,0.0,0.0,0.0,0.0,0.0,0.0,0.0,0.0,0.0,0.0,0.0,0.0,0.0,0.0,0.0,0.0,0.0,0.0,0.0,0.0,0.0,0.0,0.0,0.0,0.0,0.0,0.0,0.0,0.0,0.0,0.0,0.0,0.0,0.0,0.0,0.0,0.0,0.0,0.0,0.0,0.0,0.0,0.0,0.0,0.0,0.0,0.0,0.0,0.0,0.4854,0.0,0.0,0.0,0.0,0.0,0.0,0.0,0.0,0.0,0.0,0.0,0.0,0.0,0.0,0.0,0.0,0.0,0.0,0.0,0.0,0.0,0.0,0.0,0.0,0.0,0.0,0.0,0.0,0.0,0.0,0.0,0.0,0.0,0.0,0.0,0.0,0.0,0.0,0.0,0.0,0.4384,0.4779,0.5018,0.5018,0.5018,0.4991,0.4928,0.492,0.4817,0.468,0.4675,0.0,0.0,0.0,0.0,0.0,0.0,0.0,0.0,0.0,0.0,0.0,0.0,0.0,0.0,0.0,0.0,0.0,0.0,0.0,0.0,0.0,0.0,0.0,0.0,0.0,0.0,0.0,0.0,0.0,0.0,0.0,0.0,0.0,0.0,0.0,0.0,0.0,0.0,0.0,0.0,0.0,0.0,0.0,0.0,0.0,0.0,0.0,0.0,0.0,0.0,0.0,0.0,0.0,0.5411,0.5403,0.5372,0.5372,0.5444,0.5516,0.5345,0.5294,0.5351,0.5188,0.0,0.0,0.0,0.0,0.0,0.0,0.0,0.0,0.0,0.0,0.0,0.0,0.0,0.0,0.0,0.0,0.0,0.0,0.0,0.0,0.0,0.0,0.0,0.0,0.5092,0.514,0.4887,0.0,0.0,0.0,0.0,0.0,0.0,0.0,0.0,0.0,0.0,0.0,0.4462,0.4779,0.5018,0.5018,0.5018,0.5018,0.5018,0.5018,0.5018,0.5018,0.5018,0.4972,0.0,0.0,0.0,0.0,0.0,0.0,0.0,0.0,0.0,0.0,0.0,0.0,0.0,0.0,0.0,0.0,0.0,0.0,0.0,0.0,0.0,0.0,0.0,0.0,0.0,0.0,0.0,0.0,0.0,0.0,0.0,0.0,0.5311,0.5328,0.0,0.0,0.0,0.0,0.0,0.0,0.0,0.0,0.0,0.0,0.0,0.0,0.0,0.5616,0.5742,0.5742,0.5752,0.5701,0.5701,0.5711,0.5728,0.5728,0.5728,0.5738,0.5848,0.0,0.5496,0.544,0.0,0.0,0.0,0.0,0.0,0.0,0.0,0.0,0.0,0.0,0.0,0.0,0.0,0.0,0.0,0.0,0.0,0.0,0.0,0.0,0.0,0.0,0.5295,0.5217,0.5157,0.5012,0.0,0.4993,0.4996,0.5015,0.5018,0.0,0.0,0.0,0.0,0.0,0.0,0.0,0.4621,0.4859,0.5018,0.5018,0.5018,0.5018,0.5018,0.5018,0.5018,0.5018,0.5018,0.501,0.4993,0.4993,0.0,0.0,0.0,0.0,0.0,0.0,0.0,0.0,0.0,0.0,0.0,0.0,0.0,0.0,0.0,0.0,0.0,0.0,0.0,0.0,0.0,0.0,0.0,0.0,0.0,0.0,0.0,0.0,0.0,0.5223,0.5156,0.5096,0.509,0.5087,0.0,0.0,0.0,0.0,0.0,0.0,0.0,0.0,0.0,0.5705,0.557,0.56,0.58,0.58,0.5844,0.5928,0.5928,0.5976,0.6061,0.6061,0.6061,0.6064,0.6129,0.6122,0.5914,0.5761,0.5682,0.5604,0.0,0.0,0.0,0.0,0.5757,0.5914,0.5914,0.5986,0.6057,0.5904,0.0,0.0,0.0,0.0,0.0,0.0,0.0,0.5171,0.0,0.0,0.5171,0.5171,0.5093,0.5018,0.5018,0.5018,0.5018,0.0,0.5018,0.4937,0.4701,0.0,0.0,0.0,0.0,0.4701,0.4701,0.4859,0.5018,0.5018,0.5018,0.5018,0.5018,0.5018,0.5018,0.5018,0.5018,0.5018,0.5018,0.5018,0.4991,0.0,0.0,0.0,0.0,0.0,0.0,0.0,0.0,0.0,0.0,0.0,0.0,0.0,0.0,0.0,0.0,0.0,0.0,0.0,0.0,0.0,0.0,0.0,0.0,0.0,0.0,0.0,0.0,0.5087,0.5024,0.4894,0.5055,0.5142,0.0,0.0,0.0,0.0,0.0,0.0,0.5796,0.5591,0.5607,0.5857,0.5719,0.5739,0.5918,0.5918,0.5976,0.6088,0.6088,0.6149,0.6338,0.6338,0.6338,0.6338,0.6338,0.6338,0.6261,0.6099,0.6018,0.6018,0.587,0.5867,0.6018,0.6018,0.6099,0.6338,0.6338,0.6338,0.6261,0.6018,0.586,0.5709,0.5634,0.0,0.0,0.0,0.0,0.5018,0.5018,0.5018,0.5018,0.5018,0.5018,0.5018,0.5018,0.5018,0.5018,0.0,0.5018,0.4937,0.4779,0.0,0.0,0.0,0.0,0.4779,0.4779,0.4937,0.5018,0.5018,0.5018,0.5018,0.5018,0.5018,0.5018,0.5018,0.5018,0.5018,0.5018,0.5018,0.5018,0.5018,0.0,0.0,0.0,0.0,0.0,0.0,0.0,0.0,0.0,0.0,0.0,0.0,0.0,0.0,0.0,0.0,0.0,0.0,0.0,0.0,0.0,0.0,0.0,0.0,0.0,0.0,0.0,0.0,0.0,0.5087,0.5209,0.0,0.0,0.0,0.0,0.5509,0.5362,0.5437,0.58,0.5591,0.5656,0.6013,0.5946,0.6091,0.6237,0.6237,0.624,0.6247,0.6247,0.6254,0.6338,0.6338,0.6338,0.6338,0.6338,0.6338,0.6261,0.6261,0.6261,0.6261,0.6261,0.6261,0.6261,0.6261,0.6261,0.6338,0.6338,0.6338,0.6261,0.6018,0.5628,0.5398,0.5559,0.5326,0.0,0.0,0.5018,0.5018,0.5018,0.5018,0.5018,0.5018,0.5018,0.5018,0.5018,0.5018,0.5018,0.0,0.5018,0.5018,0.5018,0.0,0.5018,0.4937,0.5018,0.5018,0.5018,0.5018,0.5018,0.5018,0.5018,0.5018,0.5018,0.5018,0.5018,0.5018,0.5018,0.5018,0.5018,0.5018,0.5018,0.5018,0.5026,0.0,0.0,0.0,0.0,0.0,0.0,0.0,0.0,0.0,0.0,0.0,0.0,0.0,0.0,0.0,0.0,0.0,0.0,0.0,0.0,0.0,0.0,0.0,0.0,0.0,0.0,0.0,0.0,0.5215,0.5342,0.0,0.5374,0.5418,0.5557,0.5795,0.5802,0.5845,0.6091,0.6023,0.6049,0.6176,0.6179,0.6207,0.6261,0.6162,0.6162,0.6335,0.6159,0.6166,0.6338,0.6338,0.6338,0.6338,0.6338,0.6338,0.6338,0.6338,0.6338,0.6338,0.6338,0.6338,0.6338,0.6338,0.6338,0.6338,0.6338,0.6338,0.6261,0.6018,0.5631,0.5321,0.5398,0.5249,0.5018,0.5018,0.5018,0.5018,0.5018,0.5018,0.5018,0.5018,0.5018,0.5018,0.5018,0.5018,0.5018,0.5018,0.5018,0.5018,0.5018,0.5018,0.5018,0.5018,0.5018,0.5018,0.5018,0.5018,0.5018,0.5018,0.5018,0.5018,0.5018,0.5018,0.5021,0.5026,0.5026,0.5026,0.5026,0.5026,0.447,0.3443,0.4479,0.4162,0.0,0.0,0.0,0.0,0.0,0.0,0.0,0.0,0.0,0.0,0.0,0.0,0.0,0.0,0.0,0.0,0.0,0.0,0.0,0.0,0.0,0.0,0.0,0.0,0.0,0.0,0.5342,0.5362,0.5561,0.5663,0.559,0.5708,0.5854,0.6101,0.6061,0.6074,0.6176,0.6132,0.6129,0.6179,0.6183,0.623,0.6332,0.623,0.6257,0.641,0.6305,0.6308,0.641,0.641,0.641,0.641,0.641,0.641,0.641,0.641,0.6248,0.5997,0.622,0.6338,0.6338,0.6338,0.6338,0.6338,0.6338,0.6257,0.618,0.6099,0.5712,0.5401,0.5476,0.5321,0.5093,0.5093,0.5015,0.5018,0.5018,0.5018,0.5018,0.5018,0.5018,0.5018,0.5018,0.5018,0.5018,0.5018,0.5018,0.5018,0.5018,0.5018,0.5018,0.5018,0.5018,0.5018,0.5018,0.5018,0.5018,0.5018,0.5018,0.5018,0.5018,0.4621,0.4387,0.4157,0.4711,0.4711,0.4157,0.4714,0.4238,0.2504,0.4166,0.3929,0.1645,0.0,0.0,0.0,0.0,0.0,0.0,0.0,0.0,0.0,0.0,0.0,0.0,0.0,0.0,0.0,0.0,0.0,0.0,0.0,0.0,0.0,0.0,0.0,0.5528,0.5528,0.5532,0.5535,0.5802,0.5959,0.58,0.6086,0.6251,0.6247,0.6112,0.603,0.6037,0.5898,0.5891,0.6044,0.6051,0.619,0.6474,0.6474,0.6549,0.6702,0.6695,0.6695,0.6615,0.6615,0.6619,0.6615,0.6615,0.6615,0.6615,0.6615,0.6111,0.533,0.6064,0.6274,0.6274,0.6274,0.6274,0.6274,0.6274,0.6116,0.5954,0.619,0.6032,0.5643,0.5867,0.5631,0.5321,0.5321,0.5168,0.5018,0.5018,0.5018,0.5018,0.5018,0.5018,0.5018,0.5018,0.5018,0.5018,0.5018,0.5018,0.5018,0.5018,0.5018,0.5018,0.5018,0.5018,0.0,0.5018,0.5018,0.5018,0.5018,0.5018,0.5018,0.4937,0.391,0.3047,0.2582,0.3995,0.4151,0.2503,0.4079,0.416,0.2426,0.4008,0.3224,-0.0,0.0,0.0,0.0,0.0,0.0,0.0,0.0,0.0,0.0,0.0,0.0,0.0,0.0,0.0,0.0,0.0,0.0,0.0,0.0,0.0,0.0,0.0,0.6095,0.5912,0.5895,0.5935,0.6049,0.6173,0.6152,0.5962,0.5992,0.6047,0.5935,0.5989,0.6078,0.6193,0.6254,0.6356,0.6512,0.6515,0.6556,0.6637,0.6529,0.6549,0.6698,0.6586,0.626,0.569,0.569,0.5274,0.4608,0.5355,0.569,0.569,0.569,0.5521,0.5349,0.628,0.6166,0.5589,0.5589,0.5589,0.5671,0.6332,0.6576,0.6478,0.6451,0.6258,0.6,0.5895,0.5631,0.5321,0.5321,0.5168,0.5018,0.5018,0.5018,0.5018,0.5018,0.5018,0.5018,0.5018,0.5018,0.5018,0.5018,0.5018,0.5018,0.5018,0.5018,0.5018,0.5018,0.5018,0.0,0.5018,0.5018,0.5018,0.5018,0.5018,0.4543,0.3287,0.2893,0.3212,0.4254,0.2434,0.1176,0.0706,0.3461,0.362,0.0706,0.1177,0.0942,0.0,0.0,0.0,0.0,0.0,0.0,0.0,0.0,0.0,0.0,0.0,0.0,0.0,0.0,0.0,0.0,0.0,0.0,0.0,0.0,0.0,0.0,0.6146,0.6132,0.604,0.603,0.6064,0.6156,0.6108,0.6057,0.603,0.6088,0.6115,0.6084,0.6166,0.6227,0.6257,0.6278,0.6325,0.6417,0.642,0.6508,0.6698,0.6614,0.6675,0.6881,0.6373,0.5948,0.5422,0.5077,0.4561,0.4048,0.4646,0.4903,0.4903,0.4903,0.4646,0.0,0.0,0.0,0.0,0.0,0.4687,0.4772,0.5776,0.6111,0.6182,0.6512,0.6488,0.6394,0.6304,0.6039,0.5716,0.5639,0.5485,0.5248,0.5165,0.5165,0.5165,0.5165,0.5167,0.509,0.509,0.509,0.5012,0.5012,0.444,0.0,0.3953,0.4528,0.5023,0.5023,0.5023,0.5023,0.5023,0.5023,0.5023,0.5023,0.5026,0.4633,0.3608,0.2271,0.0,0.0,0.0,0.1492,0.0078,0.1886,0.0,0.0,0.0,-0.0,-0.0,-0.0,0.0,0.0,-0.0707,-0.11,0.0,0.0,0.0,0.0,0.0,0.0,0.0,0.0,0.0,0.0,0.0,0.0,0.0,0.0,0.0,0.0,0.6118,0.603,0.603,0.603,0.603,0.603,0.5925,0.5901,0.6017,0.6169,0.6298,0.639,0.6413,0.6376,0.6345,0.0,0.0,0.0,0.0,0.6189,0.6579,0.6495,0.6537,0.6782,0.5983,0.5453,0.5364,0.4559,0.4111,0.402,0.4111,0.4111,0.4111,0.4111,0.3578,0.2767,0.3432,0.3716,0.3716,0.38,0.38,0.3802,0.4806,0.0,0.0,0.6222,0.6472,0.6469,0.6622,0.6446,0.6108,0.6031,0.5785,0.5538,0.5455,0.5455,0.5455,0.5371,0.5377,0.5215,0.5043,0.488,0.4799,0.4972,0.3783,0.2687,0.2518,0.3739,0.4752,0.4752,0.4739,0.4732,0.4732,0.4721,0.4714,0.4714,0.0,0.0,0.4967,0.2275,0.1648,0.4261,0.4413,0.3062,0.0157,-0.0,0.1413,0.4408,0.1492,-0.0,-0.0,-0.0,-0.0,-0.0,-0.0393,-0.0786,0.0,0.0,0.0,0.0,0.0,0.0,0.0,0.0,0.0,0.0,0.0,0.0,0.0,0.0,0.0,0.6095,0.6051,0.603,0.603,0.603,0.603,0.603,0.6115,0.6135,0.6037,0.6169,0.6169,0.5949,0.6047,0.6156,0.6254,0.6458,0.6627,0.6749,0.6099,0.584,0.5914,0.5119,0.4784,0.4823,0.0,0.0,0.3401,0.3224,0.2686,0.1972,0.2776,0.3133,0.3133,0.3133,0.2598,0.1792,0.2752,0.3098,0.3184,0.3886,0.371,0.3184,0.4148,0.45,0.4662,0.5448,0.5248,0.4891,0.6315,0.5441,0.0,0.5859,0.561,0.503,0.5538,0.563,0.5552,0.5379,0.5388,0.4967,0.3359,0.3022,0.3362,0.4725,0.4725,0.4046,0.2696,0.2754,0.2982,0.2982,0.3017,0.2981,0.2981,0.301,0.2974,0.2974,0.2976,0.353,0.4886,0.4408,0.3144,0.11,0.0942,0.0707,-0.0,-0.0,0.0314,0.0942,0.0314,-0.0,-0.0,-0.0,-0.0,-0.0,-0.0079,-0.055,0.0,0.0,0.0,0.0,0.0,0.0,0.0,0.0,0.0,0.0,0.0,0.3435,0.0,0.0,0.5481,0.5344,0.568,0.6003,0.5925,0.5979,0.603,0.603,0.6098,0.6115,0.6037,0.6169,0.6257,0.6251,0.6393,0.6512,0.659,0.6736,0.6557,0.6129,0.5678,0.5308,0.4927,0.4401,0.4269,0.4266,0.3816,0.3383,0.2958,0.2404,0.1943,0.148,0.1943,0.2219,0.2219,0.2219,0.1943,0.148,0.2034,0.2192,0.224,0.2685,0.2597,0.2331,0.3221,0.3578,0.3749,0.4588,0.4575,0.4391,0.5208,0.5107,0.4674,0.5021,0.5107,0.5021,0.5028,0.5036,0.4863,0.4253,0.4875,0.5321,0.4353,0.2607,0.1477,0.2349,0.3838,0.4189,0.1655,0.1217,0.1207,0.1265,0.1248,0.1239,0.1239,0.1214,0.1276,0.1276,0.1262,0.1568,0.2435,0.2514,0.1805,0.0079,-0.0,-0.0,-0.0,-0.0,-0.0,-0.0,-0.0,-0.0,-0.0,-0.0,-0.0,-0.0,-0.0,-0.0314,0.0,0.0,0.0,0.0,0.0,0.0,0.0,0.0,0.1335,0.1335,0.1955,0.2478,0.2505,0.3622,0.4564,0.447,0.5058,0.5547,0.5606,0.5622,0.577,0.6074,0.6074,0.6084,0.6112,0.6331,0.6524,0.6681,0.6729,0.6796,0.6714,0.6566,0.6108,0.5257,0.4937,0.4488,0.3888,0.3712,0.3683,0.3711,0.2973,0.2627,0.2668,0.1907,0.1526,0.1526,0.1526,0.1526,0.1526,0.1526,0.1526,0.1526,0.1526,0.1496,0.1453,0.1453,0.1453,0.1543,0.2359,0.263,0.2811,0.3711,0.3891,0.3801,0.4162,0.4613,0.4797,0.4166,0.4435,0.4795,0.4349,0.417,0.3808,0.3083,0.3728,0.4557,0.4557,0.2175,-0.0,-0.0,0.2165,0.3153,0.045,-0.0,-0.0,-0.0,-0.0,-0.0,-0.0,-0.0,-0.0,-0.0,-0.0,-0.0,-0.0,-0.0,-0.0,-0.0,-0.0,-0.0,-0.0,-0.0,-0.0,-0.0,-0.0,-0.0,-0.0,-0.0,-0.0,-0.0,-0.0,-0.0236,0.1257,0.1257,0.1257,0.1257,0.1335,0.1335,0.0,0.0,0.1335,0.1335,0.1929,0.2504,0.2497,0.3244,0.3766,0.3684,0.3693,0.4027,0.4794,0.4743,0.5063,0.6381,0.6388,0.6285,0.641,0.6803,0.6908,0.6698,0.6459,0.6303,0.6139,0.5398,0.4973,0.4879,0.3799,0.3141,0.3112,0.2264,0.1798,0.1805,0.1711,0.1617,0.1622,0.1526,0.1526,0.1526,0.1526,0.1526,0.1526,0.1526,0.1526,0.1526,0.1526,0.1522,0.1516,0.1516,0.1516,0.1516,0.1611,0.1611,0.18,0.2838,0.2555,0.2177,0.3871,0.3213,0.2271,0.3871,0.3779,0.3405,0.3877,0.3594,0.3027,0.2934,0.1704,0.0663,0.0663,0.028,-0.0,-0.0,0.0273,0.045,0.009,-0.0,-0.0,-0.0,-0.0,-0.0,-0.0,-0.0,-0.0,-0.0,-0.0,-0.0,-0.0,-0.0,-0.0,-0.0,-0.0,-0.0,-0.0,-0.0,-0.0,-0.0,-0.0,-0.0,-0.0,-0.0,-0.0,-0.0,-0.0,-0.0236,0.1335,0.1335,0.0,0.0,0.1335,0.1335,0.1335,0.1243,0.123,0.123,0.1508,0.1777,0.1777,0.2394,0.2869,0.0,0.3521,0.4229,0.4389,0.4728,0.535,0.6228,0.5905,0.5772,0.6227,0.6525,0.6479,0.6063,0.5896,0.5703,0.5494,0.5191,0.463,0.3802,0.3278,0.2646,0.2097,0.1717,0.1535,0.1553,0.1553,0.1756,0.207,0.207,0.207,0.207,0.207,0.207,0.1971,0.1677,0.1775,0.1971,0.1677,0.1579,0.1575,0.1539,0.1526,0.1526,0.1526,0.1526,0.1526,0.2002,0.1811,0.1621,0.2476,0.2572,0.2382,0.2666,0.2858,0.2953,0.2667,0.2383,0.2097,0.2097,0.1239,0.0477,0.0477,0.0189,-0.0,-0.0,-0.0,-0.0,-0.0,-0.0,-0.0,-0.0,-0.0,-0.0,-0.0,-0.0,-0.0,-0.0,-0.0,-0.0,-0.0,-0.0,-0.0,-0.0,-0.0,-0.0,-0.0,-0.0,-0.0,-0.0,-0.0,-0.0,-0.0,-0.0,-0.0,-0.0,-0.0,-0.0236,0.1335,0.0,0.0,0.1335,0.1251,0.1245,0.1245,0.1221,0.1199,0.1199,0.1182,0.1169,0.1177,0.1654,0.1995,0.2023,0.2991,0.3786,0.3926,0.4333,0.4953,0.5919,0.5488,0.5284,0.5779,0.6028,0.5972,0.5589,0.5539,0.5277,0.4885,0.464,0.3948,0.2879,0.269,0.2312,0.1551,0.1551,0.1562,0.1584,0.1781,0.1993,0.2422,0.2522,0.2623,0.2623,0.2623,0.2623,0.2623,0.2019,0.2019,0.2321,0.1818,0.1617,0.1611,0.1567,0.1551,0.1551,0.1551,0.1551,0.1551,0.1551,0.1551,0.1551,0.1551,0.2035,0.2421,0.1744,0.2035,0.2422,0.1744,0.1648,0.1648,0.1648,0.126,0.1066,0.1066,0.0676,0.0385,0.0288,0.0096,-0.0,-0.0,-0.0,-0.0,-0.0,-0.0,-0.0,-0.0,-0.0,0.0087,0.0341,0.0425,0.0253,-0.0,-0.0,-0.0,-0.0,-0.0,-0.0,-0.0,-0.0,-0.0,-0.0,-0.0,-0.0,-0.0,-0.0,-0.0,-0.0,-0.0,-0.0236,0.0,0.0,0.1335,0.1335,0.1235,0.1213,0.1213,0.1189,0.1168,0.1168,0.1167,0.1175,0.1204,0.1235,0.1355,0.1334,0.1404,0.1804,0.3091,0.2883,0.3413,0.5272,0.5309,0.519,0.0,0.5623,0.5849,0.5706,0.5549,0.5158,0.4342,0.3484,0.2881,0.2349,0.1863,0.1584,0.1613,0.1614,0.1614,0.1615,0.2117,0.2421,0.2422,0.2927,0.313,0.313,0.313,0.313,0.313,0.2623,0.2422,0.2321,0.1818,0.1617,0.1616,0.1615,0.1614,0.1614,0.1614,0.1614,0.1614,0.1614,0.1614,0.1614,0.1614,0.1614,0.1614,0.1614,0.1614,0.1614,0.1614,0.1614,0.1614,0.1614,0.1614,0.1614,0.1614,0.1591,0.1374,0.0883,0.0386,-0.0,-0.0,-0.0,-0.0,-0.0,-0.0,-0.0,-0.0,-0.0,0.0356,0.122,0.1392,0.0949,0.0084,-0.0,-0.0,-0.0,-0.0,-0.0,-0.0,-0.0,-0.0,-0.0,-0.0,-0.0,-0.0,-0.0,-0.0,-0.0,-0.0,-0.0236,0.0,0.0,0.1252,0.1232,0.1219,0.1206,0.1186,0.1158,0.1142,0.1162,0.1166,0.1182,0.1233,0.1284,0.133,0.1369,0.1624,0.2035,0.2694,0.3005,0.3654,0.5059,0.4857,0.0,0.0,0.0,0.0,0.4836,0.4782,0.4392,0.3553,0.3195,0.2647,0.19,0.2,0.2107,0.2119,0.2523,0.2625,0.2625,0.3229,0.3428,0.353,0.4033,0.4033,0.3732,0.3732,0.3732,0.3732,0.3128,0.2927,0.2927,0.2321,0.1919,0.1617,0.1617,0.1617,0.1617,0.1617,0.1617,0.1617,0.1617,0.1617,0.1617,0.1617,0.1617,0.1617,0.1617,0.1617,0.1617,0.1617,0.1617,0.1617,0.1617,0.1617,0.1617,0.1617,0.1609,0.1501,0.1401,0.1195,0.0987,0.0585,0.0486,0.0483,0.0568,0.0185,0.0181,0.0808,0.0897,0.0895,0.0978,0.1244,0.1233,0.0949,0.0344,-0.0,-0.0,-0.0,-0.0,-0.0,-0.0,-0.0,-0.0,-0.0,-0.0,-0.0,-0.0,-0.0,-0.0,-0.0,-0.008,0.11,0.1249,0.1236,0.1217,0.1196,0.1174,0.1155,0.1127,0.1113,0.1144,0.1168,0.1201,0.1262,0.1322,0.1369,0.1387,0.1641,0.1961,0.2501,0.2928,0.3528,0.4615,0.4398,0.4414,0.0,0.0,0.0,0.443,0.4496,0.4203,0.3427,0.3258,0.2791,0.2222,0.2321,0.2522,0.2724,0.3029,0.3331,0.3531,0.3831,0.4133,0.4334,0.4634,0.4634,0.4332,0.4332,0.4332,0.4234,0.3531,0.323,0.313,0.2423,0.1919,0.1617,0.1617,0.1617,0.1617,0.1617,0.1617,0.1617,0.1617,0.1617,0.1617,0.1617,0.1617,0.1617,0.1617,0.1617,0.1617,0.1617,0.1617,0.1617,0.1617,0.1617,0.1617,0.1617,0.1617,0.1617,0.1617,0.1617,0.151,0.1193,0.1085,0.1076,0.1062,0.075,0.0733,0.109,0.1262,0.1256,0.0987,0.1256,0.1428,0.141,0.088,0.035,-0.0,-0.0,-0.0,-0.0,-0.0,-0.0,-0.0,-0.0,-0.0,-0.0,-0.0,-0.0,-0.0,-0.0,-0.0,0.1099,0.1234,0.1211,0.1208,0.1164,0.1121,0.1119,0.1096,0.1084,0.1117,0.117,0.123,0.0,0.0,0.1477,0.1477,0.1366,0.1672,0.2533,0.2738,0.3112,0.0,0.0,0.0,0.0,0.0,0.0,0.4442,0.0,0.4512,0.3925,0.3497,0.323,0.323,0.2725,0.2724,0.323,0.323,0.3531,0.4033,0.4033,0.4334,0.4834,0.4834,0.4834,0.4834,0.4834,0.4834,0.4734,0.3632,0.323,0.313,0.202,0.1617,0.1617,0.1617,0.1617,0.1617,0.1617,0.1617,0.1617,0.1617,0.1617,0.1617,0.1617,0.1617,0.1617,0.1617,0.1617,0.1617,0.1617,0.1617,0.1617,0.1617,0.1617,0.1617,0.1617,0.1617,0.1617,0.1617,0.1617,0.1617,0.1617,0.1593,0.1574,0.1574,0.1645,0.1422,0.0835,0.1092,0.1437,0.1436,0.1436,0.1436,0.1436,0.1346,0.0987,0.009,-0.0,-0.0,-0.0,-0.0,-0.0,-0.0,-0.0,-0.0,-0.0,-0.0,-0.0,-0.0,-0.0,-0.0,0.1076,0.1217,0.1201,0.1155,0.1132,0.1115,0.1093,0.1081,0.1091,0.1144,0.1185,0.123,0.0,0.0,0.0,0.1912,0.2134,0.0,0.3084,0.3181,0.0,0.395,0.0,0.43,0.43,0.4444,0.0,0.0,0.4643,0.4441,0.4,0.3822,0.3632,0.323,0.3429,0.363,0.3833,0.4234,0.4433,0.4634,0.4634,0.4634,0.4834,0.4834,0.4834,0.4834,0.4834,0.4834,0.4734,0.4033,0.3531,0.313,0.2423,0.1919,0.1617,0.1617,0.1617,0.1617,0.1617,0.1617,0.1617,0.1617,0.1617,0.1617,0.1617,0.1617,0.1617,0.1617,0.1617,0.1617,0.1617,0.1617,0.1617,0.1617,0.1617,0.1617,0.1617,0.1617,0.1617,0.1617,0.1617,0.1617,0.1617,0.1611,0.1605,0.1605,0.1579,0.154,0.1301,0.1382,0.146,0.1438,0.1436,0.1436,0.1436,0.1076,0.0807,0.0538,0.0179,-0.0,-0.0,-0.0,-0.0,-0.0,-0.0,-0.0,-0.0,-0.0,-0.0,-0.0,-0.0,-0.0,0.1081,0.1212,0.1183,0.1149,0.1121,0.1097,0.108,0.1076,0.1093,0.1154,0.119,0.0,0.0,0.0,0.0,0.0,0.0,0.0,0.3227,0.3309,0.3488,0.0,0.4159,0.0,0.4295,0.4465,0.4573,0.0,0.4692,0.4587,0.4331,0.4133,0.3932,0.3932,0.3932,0.4133,0.4334,0.4634,0.4834,0.4834,0.4834,0.4834,0.4834,0.4834,0.4834,0.4834,0.0,0.4834,0.4734,0.3932,0.3432,0.313,0.2322,0.1818,0.1617,0.1617,0.1617,0.1617,0.1617,0.1617,0.1617,0.1617,0.1617,0.1617,0.1617,0.1617,0.1617,0.1617,0.1617,0.1617,0.1617,0.1617,0.1617,0.1617,0.1617,0.1617,0.1617,0.1617,0.1617,0.1617,0.1617,0.1617,0.1617,0.1617,0.1617,0.1617,0.1602,0.1575,0.1527,0.1509,0.1489,0.1458,0.1455,0.1359,0.1436,0.1166,0.0807,0.0449,0.018,-0.0,-0.0,-0.0,-0.0,-0.0,-0.0,-0.0,-0.0,-0.0,-0.0,-0.0,-0.0,-0.0,0.1096,0.1213,0.1171,0.1168,0.1127,0.1088,0.1088,0.1088,0.1104,0.1161,0.0,0.1223,0.128,0.1643,0.1999,0.2166,0.0,0.2853,0.3329,0.3419,0.3533,0.3942,0.4118,0.4206,0.4291,0.4465,0.4573,0.4573,0.4734,0.4834,0.4834,0.4334,0.4334,0.4834,0.4334,0.4334,0.4834,0.4834,0.4834,0.4834,0.4834,0.4834,0.4834,0.4834,0.4834,0.4834,0.4834,0.4834,0.4734,0.3732,0.323,0.313,0.2121,0.1617,0.1617,0.1617,0.1617,0.1617,0.1617,0.1617,0.1617,0.1617,0.1617,0.1617,0.1617,0.1617,0.1617,0.1617,0.1617,0.1617,0.1617,0.1617,0.1617,0.1617,0.1617,0.1617,0.1617,0.1617,0.1617,0.1617,0.1617,0.1617,0.1617,0.1617,0.1617,0.1617,0.1617,0.1607,0.1581,0.1551,0.1521,0.149,0.1487,0.1382,0.1444,0.1351,0.099,0.018,-0.0,-0.0,-0.0,-0.0,-0.0,-0.0,-0.0,-0.0,-0.0,-0.0,-0.0,-0.0,-0.0,-0.0,0.1226,0.1212,0.1198,0.1172,0.1158,0.1151,0.1151,0.1151,0.0,0.0,0.0,0.1185,0.1221,0.1641,0.0,0.2462,0.0,0.0,0.0,0.0,0.3934,0.0,0.0,0.0,0.0,0.0,0.0,0.0,0.4734,0.4834,0.4834,0.4734,0.4734,0.4834,0.4734,0.4734,0.4834,0.4834,0.4834,0.4834,0.4834,0.4834,0.4834,0.4834,0.4834,0.4834,0.4834,0.0,0.4734,0.4133,0.3632,0.313,0.2522,0.2019,0.1617,0.1617,0.1617,0.1617,0.1617,0.1617,0.1617,0.1617,0.1617,0.1617,0.1617,0.1617,0.1617,0.1617,0.1617,0.1617,0.1617,0.1617,0.1617,0.1617,0.1617,0.1617,0.1617,0.1617,0.1617,0.1617,0.1617,0.1617,0.1617,0.1617,0.1617,0.1617,0.1617,0.1615,0.1609,0.1582,0.1552,0.1521,0.1518,0.1506,0.1476,0.1196,0.0913,0.0629,0.0179,-0.0,-0.0,-0.0,-0.0,-0.0,-0.0,-0.0,-0.0,-0.0,-0.0,-0.0,-0.0,-0.0,0.1239,0.1224,0.1209,0.1194,0.1179,0.1166,0.1166,0.0,0.0,0.0,0.0,0.1194,0.1209,0.0,0.0,0.0,0.0,0.0,0.0,0.0,0.0,0.0,0.0,0.0,0.0,0.0,0.0,0.0,0.4734,0.4834,0.4834,0.4834,0.4834,0.4834,0.4834,0.4834,0.4834,0.4834,0.4834,0.4834,0.4834,0.4834,0.4834,0.4834,0.4834,0.4834,0.4834,0.4834,0.4734,0.4234,0.3833,0.3531,0.2724,0.222,0.2019,0.1718,0.1617,0.1617,0.1617,0.1617,0.1617,0.1617,0.1617,0.1617,0.1617,0.1617,0.1617,0.1617,0.1617,0.1617,0.1617,0.1617,0.1617,0.1617,0.1617,0.1617,0.1617,0.1617,0.1617,0.1617,0.1617,0.1617,0.1617,0.1617,0.1617,0.1617,0.1617,0.1617,0.1617,0.1605,0.1583,0.1553,0.155,0.1537,0.1507,0.141,0.1211,0.1095,0.0365,-0.0,-0.0,-0.0,-0.0,-0.0,-0.0,-0.0,-0.0,-0.0,-0.0,-0.0,-0.0,-0.0,0.1335,0.124,0.1221,0.1221,0.1203,0.1186,0.1186,0.1186,0.0,0.0,0.0,0.121,0.1203,0.0,0.0,0.0,0.0,0.0,0.0,0.0,0.0,0.0,0.0,0.0,0.0,0.0,0.0,0.0,0.4734,0.4834,0.4834,0.4834,0.4834,0.4834,0.4834,0.4834,0.4834,0.4834,0.4834,0.4834,0.4834,0.4834,0.4834,0.4834,0.4834,0.4834,0.4834,0.4834,0.4734,0.4334,0.4133,0.3932,0.3026,0.2623,0.2321,0.1919,0.1718,0.1617,0.1617,0.1617,0.1617,0.1617,0.1617,0.1617,0.1617,0.1617,0.1617,0.1617,0.1617,0.1617,0.1617,0.1617,0.1617,0.1617,0.1617,0.1617,0.1617,0.1617,0.1617,0.1617,0.1617,0.1617,0.1617,0.1617,0.1617,0.1617,0.1617,0.1617,0.1617,0.1617,0.1608,0.1583,0.1581,0.1569,0.1635,0.1536,0.1523,0.1492,0.0652,0.0092,-0.0,-0.0,-0.0,-0.0,-0.0,-0.0,-0.0,-0.0,-0.0,-0.0,-0.0,-0.0,0.1335,0.1333,0.1253,0.1253,0.1329,0.1327,0.1327,0.0,0.0,0.0,0.1231,0.1203,0.1176,0.0,0.0,0.0,0.0,0.0,0.0,0.0,0.0,0.0,0.0,0.0,0.0,0.0,0.0,0.0,0.4734,0.4834,0.4834,0.4834,0.4834,0.4834,0.4834,0.4834,0.4834,0.4834,0.4834,0.4834,0.4834,0.4834,0.4834,0.4834,0.4834,0.4834,0.4834,0.4834,0.0,0.4734,0.4435,0.4033,0.3932,0.3228,0.2422,0.2321,0.2019,0.1617,0.1617,0.1617,0.1617,0.1617,0.1617,0.1617,0.1617,0.1617,0.1617,0.1617,0.1617,0.1617,0.1617,0.1617,0.1617,0.1617,0.1617,0.1617,0.1617,0.1617,0.1617,0.1617,0.1617,0.1617,0.1617,0.1617,0.1617,0.1617,0.1617,0.1617,0.1617,0.1617,0.1615,0.1613,0.1613,0.16,0.157,0.1567,0.1554,0.1619,0.0951,0.0471,-0.0,-0.0,-0.0,-0.0,-0.0,-0.0,-0.0,-0.0,-0.0,-0.0,-0.0,-0.0,0.1335,0.1335,0.1335,0.1335,0.1335,0.1335,0.1335,0.0,0.0,0.1335,0.1247,0.123,0.1199,0.0,0.0,0.0,0.0,0.0,0.0,0.0,0.0,0.0,0.0,0.0,0.0,0.0,0.0,0.0,0.4767,0.4834,0.4834,0.4834,0.4834,0.4834,0.4834,0.4834,0.4834,0.4834,0.4834,0.4834,0.4834,0.4834,0.4834,0.4834,0.4834,0.4834,0.4834,0.4834,0.0,0.4834,0.4634,0.4433,0.4133,0.3731,0.3327,0.2623,0.222,0.2019,0.1718,0.1617,0.1617,0.1617,0.1617,0.1617,0.1617,0.1617,0.1617,0.1617,0.1617,0.1617,0.1617,0.1617,0.1617,0.1617,0.1617,0.1617,0.1617,0.1617,0.1617,0.1617,0.1617,0.1617,0.1617,0.1617,0.1617,0.1617,0.1617,0.1617,0.1617,0.1617,0.1617,0.1617,0.1617,0.1612,0.16,0.1598,0.1585,0.1555,0.1359,0.1058,0.0471,0.0188,-0.0,-0.0,-0.0,-0.0,-0.0,-0.0,-0.0,-0.0,-0.0,-0.0,0.1335,0.1335,0.1335,0.1335,0.1335,0.1335,0.0,0.0,0.0,0.1335,0.1335,0.1248,0.1217,0.1187,0.1309,0.0,0.0,0.0,0.0,0.0,0.0,0.0,0.0,0.0,0.0,0.0,0.0,0.0,0.4771,0.4834,0.4834,0.4834,0.4834,0.4834,0.4834,0.4834,0.4834,0.4834,0.4834,0.4834,0.4834,0.4834,0.4834,0.4834,0.4834,0.4834,0.4834,0.4834,0.0,0.4834,0.4834,0.4734,0.4433,0.4133,0.3932,0.3126,0.2622,0.2321,0.1918,0.1717,0.1617,0.1617,0.1617,0.1617,0.1617,0.1617,0.1617,0.1617,0.1617,0.1617,0.1617,0.1617,0.1617,0.1617,0.1617,0.1617,0.1617,0.1617,0.1617,0.1617,0.1617,0.1617,0.1617,0.1617,0.1617,0.1617,0.1617,0.1617,0.1617,0.1617,0.1617,0.1617,0.1617,0.1617,0.1617,0.1617,0.1608,0.1586,0.1585,0.1473,0.1059,0.0673,0.0288,-0.0,-0.0,-0.0,-0.0,-0.0,-0.0,-0.0,-0.0,-0.0,0.1335,0.1335,0.1335,0.1335,0.1335,0.1335,0.0,0.0,0.0,0.1335,0.1335,0.1248,0.1217,0.1187,0.1157,0.1126,0.0,0.0,0.0,0.0,0.0,0.0,0.0,0.0,0.0,0.0,0.0,0.4573,0.4736,0.0,0.4834,0.4834,0.4834,0.4834,0.4834,0.4834,0.4834,0.4834,0.4834,0.4834,0.4834,0.4834,0.4834,0.4834,0.4834,0.4834,0.4834,0.4834,0.0,0.4834,0.4834,0.4834,0.4834,0.4433,0.4033,0.4033,0.3327,0.2422,0.2422,0.2019,0.1617,0.1617,0.1617,0.1617,0.1617,0.1617,0.1617,0.1617,0.1617,0.1617,0.1617,0.1617,0.1617,0.1617,0.1617,0.1617,0.1617,0.1617,0.1617,0.1617,0.1617,0.1617,0.1617,0.1617,0.1617,0.1617,0.1617,0.1617,0.1617,0.1617,0.1617,0.1617,0.1617,0.1617,0.1617,0.1617,0.1617,0.1616,0.1616,0.1603,0.1572,0.1571,0.107,-0.0,-0.0,-0.0,-0.0,-0.0,-0.0,-0.0,-0.0,-0.0,0.1335,0.1335,0.1335,0.1335,0.1335,0.1335,0.1335,0.0,0.0,0.0,0.0,0.1333,0.1245,0.1201,0.1164,0.1153,0.116,0.0,0.0,0.0,0.0,0.0,0.0,0.0,0.0,0.0,0.0,0.4569,0.4681,0.4773,0.483,0.4834,0.4834,0.4834,0.4834,0.4834,0.4834,0.4834,0.4834,0.4834,0.4834,0.4834,0.4834,0.4834,0.4834,0.4834,0.4834,0.4834,0.4834,0.4834,0.4834,0.4834,0.4834,0.4734,0.4533,0.4133,0.3831,0.3429,0.2622,0.2321,0.212,0.1718,0.1617,0.1617,0.1617,0.1617,0.1617,0.1617,0.1617,0.1617,0.1617,0.1617,0.1617,0.1617,0.1617,0.1617,0.1617,0.1617,0.1617,0.1617,0.1617,0.1617,0.1617,0.1617,0.1617,0.1617,0.1617,0.1617,0.1617,0.1617,0.1617,0.1617,0.1617,0.1617,0.1617,0.1617,0.1617,0.1617,0.1617,0.1613,0.1603,0.1603,0.1398,0.1092,0.0392,-0.0,-0.0,-0.0,-0.0,-0.0,-0.0,-0.0,0.0,0.1178,0.1335,0.1335,0.1335,0.0,0.0,0.0,0.0,0.0,0.0,0.0,0.1335,0.1208,0.1166,0.1166,0.1166,0.0,0.0,0.0,0.0,0.0,0.0,0.0,0.0,0.0,0.0,0.4797,0.4699,0.4696,0.4781,0.4787,0.4802,0.4832,0.4834,0.4834,0.4834,0.4834,0.4834,0.4834,0.4834,0.4834,0.4834,0.4834,0.4834,0.4834,0.4834,0.4834,0.0,0.4834,0.4834,0.4834,0.4834,0.4834,0.4734,0.4435,0.4133,0.3932,0.3228,0.2724,0.2321,0.2019,0.1717,0.1617,0.1617,0.1617,0.1617,0.1617,0.1617,0.1617,0.1617,0.1617,0.1617,0.1617,0.1617,0.1617,0.1617,0.1617,0.1617,0.1617,0.1617,0.1617,0.1617,0.1617,0.1617,0.1617,0.1617,0.1617,0.1617,0.1617,0.1617,0.1617,0.1617,0.1617,0.1617,0.1617,0.1617,0.1617,0.1617,0.1617,0.1617,0.1617,0.1617,0.1617,0.0899,0.0397,-0.0,-0.0,-0.0,-0.0,-0.0,-0.0,0.0,0.0,0.0,0.0,0.0,0.0,0.0,0.0,0.0,0.0,0.0,0.0,0.0,0.1208,0.1167,0.1169,0.1168,0.0,0.0,0.0,0.0,0.0,0.0,0.0,0.0,0.0,0.5069,0.4984,0.4701,0.4602,0.4596,0.46,0.4636,0.4712,0.4816,0.4822,0.4834,0.4834,0.4834,0.4834,0.4834,0.4834,0.4834,0.4834,0.4834,0.0,0.4834,0.4834,0.4834,0.4834,0.4834,0.4834,0.4834,0.4834,0.4834,0.4834,0.4533,0.4033,0.4033,0.3328,0.2521,0.2422,0.212,0.1718,0.1718,0.1617,0.1617,0.1617,0.1617,0.1617,0.1617,0.1617,0.1617,0.1617,0.1617,0.1617,0.1617,0.1617,0.1617,0.1617,0.1617,0.1617,0.1617,0.1617,0.1617,0.1617,0.1617,0.1617,0.1617,0.1617,0.1617,0.1617,0.1617,0.1617,0.1617,0.1617,0.1617,0.1617,0.1617,0.1617,0.1617,0.1617,0.1617,0.1617,0.1617,0.1111,-0.0,-0.0,-0.0,-0.0,-0.0,-0.0,0.0078,0.0,0.0393,0.0707,0.0,0.0,0.0,0.0,0.0,0.0,0.0,0.0,0.0,0.0,0.0,0.0,0.0,0.0,0.0,0.0,0.0,0.0,0.0,0.0,0.0,0.0,0.4987,0.3598,0.4083,0.4131,0.3545,0.3835,0.4129,0.4148,0.444,0.4698,0.4832,0.4834,0.4834,0.4834,0.4834,0.4834,0.4834,0.4834,0.4834,0.4834,0.4834,0.4834,0.4834,0.4834,0.4834,0.4834,0.4834,0.4834,0.4834,0.4834,0.4734,0.4533,0.4133,0.3831,0.353,0.2622,0.2624,0.2726,0.2321,0.1919,0.1617,0.1617,0.1617,0.1617,0.1617,0.1617,0.1617,0.1617,0.1617,0.1617,0.1617,0.1617,0.1617,0.1617,0.1617,0.1617,0.1617,0.1617,0.1617,0.1617,0.1617,0.1617,0.1617,0.1617,0.1617,0.1617,0.1617,0.1617,0.1617,0.1617,0.1617,0.1617,0.1617,0.1617,0.1617,0.1617,0.1617,0.1617,0.1617,0.1111,-0.0,-0.0,-0.0,-0.0,-0.0,-0.0,-0.0,-0.0,0.0079,0.0236,0.0314,0.0314,0.0,0.0,0.0,0.0,0.0,0.0,0.0,0.0,0.0,0.0,0.0,0.0,0.0,0.0,0.0,0.0,0.0,0.0,0.0,0.0,0.5654,0.4634,0.446,0.4137,0.3753,0.3569,0.349,0.3521,0.4,0.4424,0.4712,0.4755,0.4777,0.4777,0.4816,0.4834,0.4834,0.4834,0.4834,0.4834,0.4834,0.4834,0.4834,0.4834,0.4834,0.4834,0.4834,0.4834,0.4834,0.4834,0.4834,0.4734,0.4433,0.4234,0.3831,0.3027,0.2927,0.313,0.2826,0.2524,0.2323,0.2019,0.1918,0.1919,0.1617,0.1617,0.1617,0.1617,0.1617,0.1617,0.1617,0.1617,0.1617,0.1617,0.1617,0.1617,0.1617,0.1617,0.1617,0.1617,0.1617,0.1617,0.1617,0.1617,0.1617,0.1617,0.1617,0.1617,0.1617,0.1617,0.1617,0.1617,0.1617,0.1617,0.1617,0.1617,0.1617,0.1617,0.1617,0.1314,0.0707,0.0505,0.0202,-0.0,-0.0,-0.0,-0.0,-0.0,-0.0,-0.0,-0.0,-0.0,0.0,0.0,0.0,0.0,0.0,0.0,0.0,0.0,0.0,0.0,0.0,0.0,0.0,0.0,0.0,0.0,0.0,0.0,0.0,0.653,0.6428,0.6074,0.5097,0.4422,0.4227,0.3495,0.306,0.2926,0.349,0.3962,0.4342,0.4538,0.4687,0.4689,0.4761,0.4794,0.4794,0.4794,0.4794,0.4794,0.0,0.0,0.4816,0.4816,0.4822,0.4834,0.4834,0.4834,0.4834,0.4834,0.4834,0.4834,0.4834,0.4533,0.4033,0.3531,0.3331,0.343,0.3331,0.3331,0.333,0.2825,0.2521,0.2321,0.1818,0.1617,0.1617,0.1617,0.1617,0.1617,0.1617,0.1617,0.1617,0.1617,0.1617,0.1617,0.1617,0.1617,0.1617,0.1617,0.1617,0.1617,0.1617,0.1617,0.1617,0.1617,0.1617,0.1617,0.1617,0.1617,0.1617,0.1617,0.1617,0.1617,0.1617,0.1617,0.1617,0.1617,0.1617,0.1617,0.1617,0.1111,0.0707,0.0202,0.0101,-0.0,-0.0,-0.0,-0.0,-0.0,-0.0,-0.0,0.0,0.0,0.0,0.0,0.0,0.0,0.0,0.0,0.0,0.0,0.0,0.0,0.0,0.0,0.0,0.0,0.0,0.0,0.4669,0.5999,0.6337,0.4734,0.5184,0.4835,0.3239,0.3328,0.3154,0.2355,0.2806,0.3076,0.3166,0.4133,0.4594,0.4594,0.4606,0.4612,0.4612,0.4612,0.4612,0.4612,0.0,0.4657,0.4728,0.4728,0.4771,0.4834,0.4834,0.4834,0.4834,0.4834,0.4834,0.4834,0.4834,0.4734,0.4634,0.4033,0.4234,0.4433,0.4033,0.4234,0.4433,0.3932,0.3127,0.2422,0.2321,0.1919,0.1617,0.1617,0.1617,0.1617,0.1617,0.1617,0.1617,0.1617,0.1617,0.1617,0.1617,0.1617,0.1617,0.1617,0.1617,0.1617,0.1617,0.1617,0.1617,0.1617,0.1617,0.1617,0.1617,0.1617,0.1617,0.1617,0.1617,0.1617,0.1617,0.1617,0.1617,0.1617,0.1617,0.1617,0.1617,0.1516,0.1415,0.1314,0.0404,-0.0,-0.0,-0.0,-0.0,-0.0,-0.0,-0.0,0.0,0.0,0.0,0.0,0.0,0.0,0.0,0.0,0.0,0.0,0.0,0.0,0.0,0.0,0.0,0.0,0.0,0.5829,0.5617,0.6089,0.6163,0.5802,0.527,0.4825,0.4472,0.3403,0.2867,0.2956,0.2957,0.2867,0.2867,0.3378,0.3802,0.4128,0.4169,0.4379,0.4573,0.4573,0.4573,0.4573,0.0,0.4596,0.4634,0.4634,0.4659,0.4698,0.4747,0.4767,0.4771,0.4818,0.4834,0.4834,0.4834,0.4834,0.4734,0.4535,0.4634,0.4734,0.4535,0.4634,0.4734,0.4533,0.383,0.3126,0.2522,0.222,0.1919,0.1718,0.1617,0.1617,0.1617,0.1617,0.1617,0.1617,0.1617,0.1617,0.1617,0.1617,0.1617,0.1617,0.1617,0.1617,0.1617,0.1617,0.1617,0.1617,0.1617,0.1617,0.1617,0.1617,0.1617,0.1617,0.1617,0.1617,0.1617,0.1617,0.1617,0.1617,0.1617,0.1617,0.1617,0.1617,0.1617,0.1617,0.1111,0.0505,-0.0,-0.0,-0.0,-0.0,0.0,0.0,0.0,0.0,0.0,0.0,0.0,0.0,0.0,0.0,0.0,0.0,0.0,0.0,0.0,0.0,0.0,0.0,0.5325,0.5352,0.6138,0.5736,0.5628,0.6425,0.509,0.4556,0.5006,0.3403,0.2778,0.3223,0.3045,0.2867,0.2867,0.2867,0.3073,0.349,0.3635,0.3942,0.4321,0.4321,0.4416,0.4508,0.4508,0.452,0.454,0.454,0.4553,0.4579,0.4649,0.4689,0.4716,0.4781,0.4818,0.4834,0.4834,0.4834,0.4834,0.4834,0.4834,0.4834,0.4834,0.4834,0.4734,0.4634,0.4334,0.3831,0.2825,0.2522,0.222,0.1717,0.1617,0.1617,0.1617,0.1617,0.1617,0.1617,0.1617,0.1617,0.1617,0.1617,0.1617,0.1617,0.1617,0.1617,0.1617,0.1617,0.1617,0.1617,0.1617,0.1617,0.1617,0.1617,0.1617,0.1617,0.1617,0.1617,0.1617,0.1617,0.1617,0.1617,0.1617,0.1617,0.1617,0.1617,0.1617,0.1617,0.1617,0.1111,-0.0,-0.0,-0.0,-0.0,0.0,0.0,0.0,0.0,0.0,0.0,0.0,0.0,0.0,0.0,0.0,0.0,0.0,0.0,0.0,0.0,0.0,0.4024,0.4095,0.4239,0.4333,0.4326,0.4467,0.4467,0.4376,0.3933,0.3135,0.3312,0.3135,0.2333,0.2689,0.2867,0.2867,0.2867,0.2959,0.2963,0.2967,0.3241,0.3694,0.3694,0.3871,0.4318,0.4318,0.4367,0.4444,0.4444,0.4496,0.4573,0.4579,0.4634,0.471,0.4716,0.4767,0.4834,0.4834,0.4834,0.4834,0.4834,0.4834,0.4834,0.4834,0.4834,0.4734,0.4234,0.4033,0.3833,0.333,0.2725,0.222,0.1717,0.1617,0.1617,0.1617,0.1617,0.1617,0.1617,0.1617,0.1617,0.1617,0.1617,0.1617,0.1617,0.1617,0.1617,0.1617,0.1617,0.1617,0.1617,0.1617,0.1617,0.1617,0.1617,0.1617,0.1617,0.1617,0.1617,0.1617,0.1617,0.1617,0.1617,0.1617,0.1617,0.1617,0.1617,0.1617,0.1617,0.1617,0.1516,-0.0,-0.0,-0.0,-0.0,0.0,0.0,0.0,0.0,0.0,0.0,0.0,0.0,0.0,0.0,0.0,0.0,0.0,0.0,0.0,0.0,0.4062,0.4028,0.3537,0.3485,0.4146,0.374,0.3667,0.4289,0.3757,0.3489,0.3757,0.3135,0.2868,0.3045,0.2956,0.2867,0.2867,0.2867,0.2867,0.2867,0.3227,0.3585,0.4032,0.4032,0.4121,0.43,0.43,0.4318,0.4351,0.4351,0.4371,0.4408,0.4465,0.4542,0.463,0.4687,0.4728,0.4765,0.4816,0.4834,0.4834,0.4834,0.4834,0.4834,0.4834,0.4834,0.4734,0.4133,0.4033,0.3831,0.2925,0.2522,0.222,0.1717,0.1617,0.1617,0.1617,0.1617,0.1617,0.1617,0.1617,0.1617,0.1617,0.1617,0.1617,0.1617,0.1617,0.1617,0.1617,0.1617,0.1617,0.1617,0.1617,0.1617,0.1617,0.1617,0.1617,0.1617,0.1617,0.1617,0.1617,0.1617,0.1617,0.1617,0.1617,0.1617,0.1617,0.1617,0.1617,0.1617,0.1617,0.1617,-0.0,-0.0,-0.0,0.0,0.0,0.0,0.0,0.0,0.0,0.0,0.0,0.0,0.0,0.0,0.0,0.0,0.0,0.0,0.0,0.2778,0.3241,0.3241,0.2629,0.2555,0.3304,0.2776,0.2686,0.3309,0.2776,0.2686,0.3309,0.2599,0.2511,0.3135,0.2956,0.2867,0.2867,0.3047,0.3136,0.3136,0.3585,0.3944,0.4121,0.4121,0.4121,0.43,0.43,0.43,0.43,0.43,0.43,0.4306,0.4369,0.4449,0.4536,0.46,0.464,0.4677,0.4765,0.4794,0.48,0.4826,0.4834,0.4834,0.4834,0.4834,0.4734,0.4133,0.3833,0.353,0.2623,0.2422,0.222,0.1717,0.1617,0.1617,0.1617,0.1617,0.1617,0.1617,0.1617,0.1617,0.1617,0.1617,0.1617,0.1617,0.1617,0.1617,0.1617,0.1617,0.1617,0.1617,0.1617,0.1617,0.1617,0.1617,0.1617,0.1617,0.1617,0.1617,0.1617,0.1617,0.1617,0.1617,0.1617,0.1617,0.1617,0.1617,0.1617,0.1617,0.1617,0.1617,-0.0,-0.0,0.0,0.0,0.0,0.0,0.0,0.0,0.0,0.0,0.0,0.0,0.0,0.0,0.0,0.0,0.0,0.0,0.1427,0.1435,0.1436,0.1436,0.1436,0.1436,0.1435,0.1435,0.1435,0.1435,0.1435,0.1435,0.1435,0.1884,0.2153,0.2153,0.2688,0.2865,0.2865,0.3405,0.3585,0.3585,0.4119,0.403,0.3587,0.3587,0.3853,0.43,0.43,0.43,0.43,0.43,0.43,0.43,0.43,0.4355,0.4434,0.4434,0.4493,0.4583,0.4675,0.4708,0.4722,0.4806,0.4832,0.4832,0.4834,0.4834,0.4734,0.4133,0.3632,0.313,0.2522,0.2422,0.222,0.1717,0.1617,0.1617,0.1617,0.1617,0.1617,0.1617,0.1617,0.1617,0.1617,0.1617,0.1617,0.1617,0.1617,0.1617,0.1617,0.1617,0.1617,0.1617,0.1617,0.1617,0.1617,0.1617,0.1617,0.1617,0.1617,0.1617,0.1617,0.1617,0.1617,0.1617,0.1617,0.1617,0.1617,0.1617,0.1617,0.1617,0.1617,0.1617,-0.0073,0.0,0.0,0.0,0.0,0.0,0.0,0.0,0.0,0.0,0.0,0.0,0.0,0.0,0.0,0.1024,0.1314,0.1361,0.1398,0.1422,0.1436,0.1436,0.1436,0.1427,0.1406,0.1403,0.1395,0.1375,0.1288,0.1288,0.1288,0.146,0.1546,0.1546,0.2059,0.2486,0.2744,0.351,0.4108,0.4619,0.5042,0.4779,0.4121,0.4121,0.421,0.43,0.43,0.43,0.43,0.43,0.43,0.43,0.43,0.4316,0.4346,0.4412,0.4453,0.4489,0.4581,0.4614,0.4628,0.4716,0.4747,0.4757,0.4816,0.4834,0.4734,0.4133,0.3932,0.353,0.2623,0.2422,0.222,0.1717,0.1617,0.1617,0.1617,0.1617,0.1617,0.1617,0.1617,0.1617,0.1617,0.1617,0.1617,0.1617,0.1617,0.1617,0.1617,0.1617,0.1617,0.1617,0.1617,0.1617,0.1617,0.1617,0.1617,0.1617,0.1617,0.1617,0.1617,0.1617,0.1617,0.1617,0.1617,0.1617,0.1617,0.1617,0.1617,0.1617,0.1617,0.1617,-0.0148,0.0,0.0,0.0,0.0,0.0,0.0,0.0,0.0,0.0,0.0,0.0,0.0,0.0,0.0,0.1233,0.1371,0.134,0.1369,0.1389,0.1401,0.1401,0.1401,0.1393,0.1375,0.1373,0.1366,0.1265,0.1263,0.1263,0.1263,0.1263,0.1263,0.1263,0.1599,0.1936,0.2104,0.3191,0.3942,0.436,0.5111,0.527,0.48,0.4667,0.4511,0.4251,0.4283,0.43,0.43,0.43,0.43,0.43,0.43,0.43,0.4306,0.4361,0.4381,0.4393,0.4485,0.4424,0.4252,0.4528,0.4556,0.4475,0.4658,0.4783,0.4692,0.4425,0.4133,0.3831,0.3228,0.2925,0.2523,0.1818,0.1617,0.1617,0.1617,0.1617,0.1617,0.1617,0.1617,0.1617,0.1617,0.1617,0.1617,0.1617,0.1617,0.1617,0.1617,0.1617,0.1617,0.1617,0.1617,0.1617,0.1617,0.1617,0.1617,0.1617,0.1617,0.1617,0.1617,0.1617,0.1617,0.1617,0.1617,0.1617,0.1617,0.1617,0.1617,0.1617,0.1617,0.1617,0.0,0.0,0.0,0.0,0.0,0.0,0.0,0.0,0.0,0.0,0.0,0.0,0.0,0.0,0.0,0.1283,0.1258,0.1309,0.1339,0.1262,0.1263,0.1263,0.1263,0.1263,0.126,0.126,0.1259,0.134,0.1339,0.1339,0.1339,0.1339,0.1339,0.1339,0.1339,0.1423,0.159,0.284,0.3505,0.3588,0.4836,0.5499,0.5661,0.5212,0.4762,0.4177,0.4255,0.4291,0.43,0.43,0.43,0.43,0.43,0.43,0.43,0.43,0.43,0.431,0.4393,0.4148,0.3887,0.4436,0.4273,0.4001,0.457,0.4696,0.4714,0.4698,0.4321,0.3924,0.383,0.3531,0.2827,0.1818,0.1617,0.1617,0.1617,0.1617,0.1617,0.1617,0.1617,0.1617,0.1617,0.1617,0.1617,0.1617,0.1617,0.1617,0.1617,0.1617,0.1617,0.1617,0.1617,0.1617,0.1617,0.1617,0.1617,0.1617,0.1617,0.1617,0.1617,0.1617,0.1617,0.1617,0.1617,0.1617,0.1617,0.1617,0.1617,0.1617,0.1617,0.1617,0.0,0.0,0.0,0.0,0.0,0.0,0.0,0.0,0.0,0.0,0.0,0.0,0.0,0.0,0.1149,0.1246,0.1304,0.1277,0.1308,0.1333,0.1263,0.1263,0.1263,0.1339,0.1315,0.1312,0.1303,0.1279,0.1277,0.1277,0.1277,0.1277,0.1435,0.1752,0.1752,0.2308,0.3497,0.4128,0.492,0.5871,0.6503,0.6499,0.6031,0.5141,0.4612,0.4173,0.4191,0.4238,0.43,0.43,0.43,0.43,0.43,0.43,0.43,0.43,0.43,0.4302,0.432,0.4238,0.4164,0.4342,0.437,0.4293,0.4573,0.4602,0.4524,0.4217,0.4042,0.376,0.2914,0.2623,0.2423,0.1717,0.1919,0.212,0.1718,0.1617,0.1617,0.1617,0.1617,0.1617,0.1617,0.1617,0.1617,0.1617,0.1617,0.1617,0.1617,0.1617,0.1617,0.1617,0.1617,0.1617,0.1617,0.1617,0.1617,0.1617,0.1617,0.1617,0.1617,0.1617,0.1617,0.1617,0.1617,0.1617,0.1617,0.1617,0.1617,0.1617,0.1617,0.1617,0.0,0.0,0.0,0.0,0.0,0.0,0.0,0.0,0.0,0.0,0.0,0.0,0.0,0.0,0.1126,0.1142,0.1196,0.1241,0.1257,0.1286,0.1305,0.1305,0.1305,0.1299,0.1282,0.1281,0.1274,0.1337,0.1335,0.1335,0.1335,0.1492,0.1648,0.1882,0.2352,0.2976,0.3756,0.4688,0.5467,0.6093,0.6791,0.6788,0.617,0.5114,0.4435,0.4108,0.4108,0.4157,0.4238,0.4238,0.4263,0.43,0.43,0.43,0.43,0.43,0.43,0.43,0.43,0.4121,0.4039,0.4264,0.4006,0.3748,0.4107,0.404,0.3772,0.3558,0.3482,0.3393,0.284,0.2769,0.2688,0.2091,0.2006,0.1919,0.1617,0.1617,0.1617,0.1617,0.1617,0.1617,0.1617,0.1617,0.1617,0.1617,0.1617,0.1617,0.1617,0.1617,0.1617,0.1617,0.1617,0.1617,0.1617,0.1617,0.1617,0.1617,0.1617,0.1617,0.1617,0.1617,0.1617,0.1617,0.1617,0.1617,0.1617,0.1617,0.1617,0.1617,0.1617,0.1415,0.0,0.0,0.0,0.0,0.0,0.0,0.0,0.0,0.0,0.0,0.0,0.0,0.0,0.1101,0.1114,0.112,0.1163,0.12,0.1211,0.1234,0.1251,0.1335,0.1335,0.1335,0.1335,0.1335,0.1335,0.1335,0.1335,0.1335,0.1414,0.1726,0.196,0.2117,0.3056,0.3602,0.3759,0.5079,0.5854,0.5931,0.663,0.671,0.6247,0.5266,0.4572,0.4093,0.3928,0.3978,0.4151,0.4167,0.4214,0.4279,0.4293,0.43,0.43,0.43,0.43,0.43,0.43,0.4032,0.3765,0.421,0.3762,0.3236,0.357,0.3405,0.3047,0.3016,0.2939,0.2942,0.2856,0.2893,0.2832,0.2342,0.1883,0.1611,0.1615,0.1617,0.1617,0.1617,0.1617,0.1617,0.1617,0.1617,0.1617,0.1617,0.1617,0.1617,0.1617,0.1617,0.1617,0.1617,0.1617,0.1617,0.1617,0.1617,0.1617,0.1617,0.1617,0.1617,0.1617,0.1617,0.1617,0.1617,0.1617,0.1617,0.1617,0.1617,0.1617,0.1617,0.1617,0.1212,0.0,0.0,0.0,0.0,0.0,0.0,0.0,0.0,0.0,0.0,0.0,0.0,0.1122,0.1097,0.109,0.1117,0.1128,0.1151,0.1204,0.1215,0.1228,0.1254,0.1335,0.1335,0.1335,0.1335,0.1335,0.1335,0.1335,0.1413,0.1803,0.1882,0.2196,0.2904,0.3602,0.4457,0.5312,0.6093,0.6714,0.7249,0.7176,0.6949,0.656,0.6109,0.5486,0.4639,0.3747,0.3637,0.4061,0.414,0.4179,0.4197,0.4271,0.43,0.43,0.43,0.43,0.43,0.43,0.43,0.421,0.43,0.421,0.4034,0.3688,0.3602,0.3347,0.2587,0.2323,0.224,0.1804,0.172,0.1723,0.1627,0.1652,0.1585,0.1611,0.1617,0.1617,0.1617,0.1617,0.1617,0.1617,0.1617,0.1617,0.1617,0.1617,0.1617,0.1617,0.1617,0.1617,0.1617,0.1617,0.1617,0.1617,0.1617,0.1617,0.1617,0.1617,0.1617,0.1617,0.1617,0.1617,0.1617,0.1617,0.1617,0.1617,0.1617,0.1617,0.1617,0.1617,0.1212,0.0,0.0,0.0,0.0,0.0,0.0,0.0,0.0,0.0,0.0,0.0,0.0,0.1152,0.1122,0.1105,0.1119,0.1136,0.1156,0.1183,0.1215,0.1242,0.1334,0.1335,0.1335,0.1335,0.1335,0.1414,0.1649,0.1648,0.1804,0.2196,0.2431,0.2668,0.2747,0.3839,0.4693,0.5234,0.617,0.6868,0.7484,0.7407,0.7253,0.7099,0.6395,0.5575,0.4691,0.4295,0.4034,0.3963,0.4004,0.4081,0.4177,0.4214,0.4257,0.43,0.43,0.43,0.43,0.43,0.43,0.43,0.43,0.4121,0.3853,0.3317,0.3048,0.2697,0.1996,0.1728,0.1732,0.1472,0.1488,0.15,0.15,0.1524,0.155,0.1563,0.1593,0.1617,0.1617,0.1617,0.1617,0.1617,0.1617,0.1617,0.1617,0.1617,0.1617,0.1617,0.1617,0.1617,0.1617,0.1617,0.1617,0.1617,0.1617,0.1617,0.1617,0.1617,0.1617,0.1617,0.1617,0.1617,0.1617,0.1617,0.1617,0.1617,0.1617,0.1617,0.1617,0.1617,0.0909,0.0,0.0,0.0,0.0,0.0,0.0,0.0,0.0,0.0,0.0,0.0,0.1216,0.1194,0.1158,0.113,0.1123,0.1147,0.1166,0.1166,0.1212,0.1249,0.1335,0.1335,0.1335,0.1335,0.1335,0.1492,0.1882,0.1882,0.2117,0.2589,0.2826,0.2904,0.2824,0.3917,0.4696,0.4929,0.6018,0.6868,0.7484,0.7484,0.7484,0.748,0.67,0.5777,0.4932,0.4621,0.4274,0.3867,0.3889,0.3981,0.4106,0.4128,0.4177,0.4234,0.4168,0.4088,0.4092,0.4022,0.4032,0.4121,0.4121,0.3855,0.3497,0.3227,0.269,0.2154,0.1705,0.1525,0.1436,0.1436,0.1452,0.1469,0.1469,0.1493,0.1519,0.1534,0.1573,0.1608,0.1615,0.1617,0.1617,0.1617,0.1617,0.1617,0.1617,0.1617,0.1617,0.1617,0.1617,0.1617,0.1617,0.1617,0.1617,0.1617,0.1617,0.1617,0.1617,0.1617,0.1617,0.1617,0.1617,0.1613,0.1605,0.1605,0.1609,0.1617,0.1617,0.1617,0.1616,0.1609,0.0802,0.0,0.0,0.0,0.0,0.0,0.0,0.0,0.0,0.0,0.0,0.0,0.1333,0.1331,0.1204,0.1155,0.1125,0.1147,0.1166,0.1166,0.1194,0.1225,0.1254,0.1335,0.1335,0.1335,0.1335,0.1492,0.1882,0.1882,0.2275,0.3062,0.2746,0.2902,0.3684,0.3992,0.4304,0.4698,0.5941,0.6868,0.7484,0.7484,0.7484,0.7484,0.7407,0.6707,0.5467,0.4535,0.3995,0.3777,0.3865,0.3906,0.3922,0.4008,0.4044,0.3974,0.3626,0.3566,0.349,0.3114,0.3226,0.3676,0.3676,0.3587,0.3587,0.3587,0.296,0.2154,0.2154,0.1794,0.1436,0.1436,0.1436,0.1438,0.1438,0.1461,0.1499,0.1557,0.1571,0.1582,0.1611,0.1617,0.1617,0.1617,0.1617,0.1617,0.1617,0.1617,0.1617,0.1617,0.1617,0.1617,0.1617,0.1617,0.1617,0.1617,0.1617,0.1617,0.1617,0.1617,0.1617,0.1617,0.1617,0.1603,0.1575,0.1574,0.1588,0.1617,0.1617,0.1617,0.1616,0.1587,0.118,0.0,0.0,0.0,0.0,0.0,0.0,0.0,0.0,0.0,0.0,0.1335,0.1335,0.1335,0.1224,0.1192,0.1181,0.1188,0.1196,0.1196,0.1221,0.14,0.1646,0.1648,0.1648,0.1648,0.1648,0.1883,0.2275,0.2275,0.2666,0.353,0.345,0.3372,0.3374,0.3684,0.4151,0.4701,0.5318,0.578,0.6318,0.6318,0.6318,0.6318,0.6318,0.5857,0.5007,0.4618,0.4231,0.3765,0.3799,0.3846,0.3903,0.3934,0.3985,0.3956,0.356,0.3401,0.3411,0.2963,0.2985,0.308,0.3123,0.3136,0.3138,0.2781,0.269,0.251,0.1884,0.1794,0.1794,0.1525,0.1436,0.1436,0.1436,0.1444,0.1463,0.1504,0.1528,0.1551,0.1582,0.1588,0.1594,0.1613,0.1617,0.1617,0.1617,0.1617,0.161,0.159,0.1588,0.158,0.156,0.1558,0.1558,0.1558,0.1558,0.1558,0.1558,0.1558,0.1558,0.1558,0.1558,0.1553,0.1543,0.1543,0.1548,0.1558,0.1558,0.1558,0.1558,0.1547,0.106,0.0,0.0,0.0,0.0,0.0,0.0,0.0,0.0,0.0,0.0,0.1335,0.1335,0.1335,0.1241,0.1224,0.1213,0.1296,0.1452,0.1441,0.1547,0.1805,0.204,0.2117,0.2117,0.2117,0.2117,0.2275,0.2668,0.2668,0.0,0.3763,0.3684,0.3452,0.3141,0.3374,0.3841,0.4462,0.446,0.4691,0.5231,0.5312,0.5389,0.5389,0.5544,0.5237,0.4701,0.4701,0.4387,0.3763,0.3763,0.3799,0.3852,0.3852,0.3891,0.3864,0.348,0.324,0.3084,0.2641,0.2588,0.2611,0.2648,0.2674,0.2601,0.2511,0.242,0.2331,0.1794,0.1794,0.1884,0.1525,0.1436,0.1436,0.1436,0.1436,0.1441,0.1461,0.1489,0.152,0.155,0.1556,0.1563,0.1583,0.1586,0.1586,0.1586,0.1586,0.1579,0.1559,0.1556,0.1549,0.1528,0.1526,0.1526,0.1526,0.1526,0.1526,0.1526,0.1526,0.1526,0.1526,0.1526,0.1521,0.1511,0.151,0.1506,0.1495,0.1516,0.1526,0.1525,0.1515,0.1035,0.0,0.0,0.0,0.0,0.0,0.0,0.0,0.0,0.0,0.0,0.1257,0.1335,0.1335,0.1335,0.1247,0.1218,0.1623,0.1868,0.1827,0.2165,0.251,0.2511,0.2511,0.2511,0.2511,0.2511,0.2668,0.3062,0.3062,0.3295,0.3763,0.3374,0.3062,0.3062,0.3062,0.3372,0.4068,0.3602,0.3679,0.4373,0.4766,0.4927,0.4927,0.5312,0.5237,0.4698,0.4698,0.4309,0.3763,0.3763,0.3763,0.3763,0.3763,0.3763,0.3773,0.3376,0.2921,0.2526,0.2167,0.2045,0.2082,0.2083,0.2115,0.2241,0.2686,0.2151,0.1525,0.2064,0.1794,0.1436,0.1436,0.1436,0.1436,0.1436,0.1436,0.1436,0.1436,0.1458,0.1488,0.1519,0.1525,0.1525,0.1526,0.1526,0.1526,0.1526,0.1526,0.1525,0.1525,0.1525,0.1524,0.1523,0.1523,0.1523,0.1523,0.1523,0.1523,0.1523,0.1523,0.1523,0.1523,0.1523,0.151,0.148,0.1479,0.1465,0.1436,0.1495,0.1523,0.1523,0.1493,0.1098,-0.1335,0.0,0.0,0.0,0.0,0.0,0.0,0.0,0.0,0.0314,0.0864,0.1335,0.1335,0.1335,0.1333,0.1246,0.1408,0.1488,0.148,0.1798,0.2195,0.2431,0.2746,0.2826,0.2511,0.2747,0.2826,0.0,0.2904,0.3295,0.3763,0.3374,0.3062,0.3062,0.2511,0.243,0.2901,0.2508,0.2585,0.3056,0.3134,0.337,0.3606,0.3763,0.3919,0.4075,0.4075,0.3919,0.3763,0.3763,0.3763,0.3763,0.3763,0.3763,0.3767,0.3321,0.2852,0.2464,0.2035,0.1731,0.1497,0.1522,0.1551,0.1666,0.1752,0.1861,0.1885,0.1705,0.1794,0.1885,0.1525,0.1436,0.1436,0.1436,0.1436,0.1436,0.1436,0.1442,0.1457,0.1487,0.1493,0.15,0.1522,0.1526,0.1526,0.1526,0.1526,0.1518,0.1496,0.1493,0.1485,0.1463,0.146,0.146,0.146,0.146,0.146,0.146,0.146,0.146,0.146,0.146,0.1457,0.1448,0.1448,0.1444,0.1436,0.1452,0.146,0.146,0.1452,0.1353,0.0,0.0,0.0,0.0,0.0,0.0,-0.0943,-0.0707,-0.0471,0.0,0.0393,0.0786,0.0943,0.1178,0.1335,0.1335,0.1335,0.1335,0.1492,0.1883,0.2275,0.251,0.2668,0.2746,0.2511,0.2826,0.2982,0.2747,0.3139,0.353,0.3763,0.353,0.3295,0.3141,0.251,0.2195,0.2275,0.1883,0.1804,0.1962,0.2196,0.2353,0.2589,0.2982,0.3219,0.353,0.3684,0.3763,0.3763,0.3608,0.353,0.353,0.3294,0.3294,0.3215,0.3141,0.2746,0.2278,0.2151,0.1775,0.1305,0.1323,0.1349,0.1374,0.1386,0.1577,0.1774,0.1522,0.1615,0.1794,0.1525,0.1436,0.1436,0.1436,0.1436,0.1436,0.1436,0.1436,0.144,0.1458,0.1462,0.1468,0.1485,0.1488,0.1488,0.1488,0.1488,0.1482,0.1464,0.1462,0.1455,0.1437,0.1436,0.1436,0.1436,0.1436,0.1436,0.1436,0.1436,0.1436,0.1436,0.1436,0.1436,0.1436,0.1436,0.1436,0.1436,0.1436,0.1436,0.1436,0.1436,0.1436,0.0,0.0,0.0,0.0,0.0,0.0,-0.157,-0.1492,-0.1178,0.0,-0.0314,-0.0235,0.0078,0.0471,0.0785,0.0942,0.0942,0.1177,0.1725,0.2195,0.2431,0.2431,0.2431,0.2431,0.2431,0.2746,0.2982,0.3062,0.353,0.3763,0.3763,0.3765,0.353,0.3141,0.2746,0.2275,0.1882,0.157,0.1335,0.1335,0.1648,0.1882,0.196,0.2668,0.2982,0.3062,0.3452,0.3684,0.3606,0.3139,0.2984,0.3062,0.2668,0.2511,0.2511,0.2904,0.2589,0.196,0.2275,0.191,0.1298,0.1298,0.1318,0.1348,0.1373,0.1382,0.1392,0.1422,0.1433,0.1436,0.1436,0.1436,0.1436,0.1436,0.1436,0.1436,0.1436,0.1436,0.1436,0.1436,0.1436,0.1436,0.1436,0.1436,0.1436,0.1436,0.1436,0.1436,0.1436,0.1436,0.1436,0.1436,0.1436,0.1436,0.1436,0.1436,0.1436,0.1436,0.1436,0.1436,0.1436,0.1436,0.1436,0.1436,0.1436,0.1436,0.1436,0.1436,0.1436,0.1436,0.1436,0.1436,0.0,0.0,0.0,0.0,0.0,0.0,-0.3287,-0.2735,-0.2187,0.0,-0.2266,-0.2501,-0.2506,-0.2427,-0.2192,-0.1408,-0.1251,-0.0626,0.1178,0.1726,0.2038,0.2038,0.1882,0.1803,0.2038,0.2271,0.2427,0.2589,0.3372,0.3763,0.3763,0.3452,0.3219,0.3141,0.2746,0.2275,0.1882,0.1803,0.1649,0.1335,0.1414,0.1569,0.1882,0.2038,0.2275,0.2589,0.2746,0.2744,0.2744,0.2273,0.2511,0.3062,0.2668,0.2511,0.2511,0.2589,0.2275,0.1882,0.196,0.1732,0.1266,0.1266,0.1286,0.1312,0.1318,0.1337,0.1362,0.1391,0.1416,0.1436,0.1436,0.1436,0.1436,0.1436,0.1436,0.1436,0.1436,0.1436,0.1436,0.1436,0.1436,0.1436,0.1436,0.1436,0.1436,0.1436,0.1436,0.1436,0.1436,0.1436,0.1436,0.1436,0.1436,0.1436,0.1436,0.1436,0.1436,0.1436,0.1436,0.1436,0.1436,0.1436,0.1436,0.1436,0.1436,0.1436,0.1436,0.1436,0.1436,0.1436,0.1436,0.1436,0.0,0.0,0.0,-0.3988,0.0,0.0,0.0,-0.383,-0.3675,-0.4304,-0.4543,-0.4701,-0.4784,-0.4472,-0.3841,-0.2738,-0.2503,-0.1878,-0.047,0.0078,0.0392,0.0628,0.0549,0.0549,0.0628,0.1018,0.1566,0.2431,0.3294,0.3763,0.3763,0.3608,0.3374,0.3141,0.2904,0.2589,0.2196,0.2038,0.1803,0.1569,0.1414,0.1414,0.1569,0.1803,0.2038,0.2196,0.2431,0.2511,0.2431,0.2038,0.2117,0.2431,0.2041,0.1884,0.1962,0.2118,0.1961,0.1649,0.1803,0.1648,0.1335,0.1335,0.1268,0.1283,0.1298,0.1324,0.1354,0.1382,0.1401,0.1416,0.1431,0.1436,0.1436,0.1436,0.1436,0.1436,0.1436,0.1436,0.1436,0.1436,0.1436,0.1436,0.1436,0.1436,0.1436,0.1436,0.1436,0.1436,0.1436,0.1436,0.1436,0.1436,0.1436,0.1436,0.1436,0.1436,0.1436,0.1436,0.1436,0.1436,0.1436,0.1436,0.1436,0.1436,0.1436,0.1436,0.1436,0.1436,0.1436,0.1436,0.1436,0.1436,0.0,0.0,0.0,0.0,0.0,-0.4691,0.0,0.0,0.0,0.0,0.0,0.0,0.0,0.0,0.0,0.0,0.0,0.0,0.0,-0.2106,0.0,-0.0863,-0.0785,-0.0707,-0.0628,-0.0078,0.094,0.2353,0.2979,0.3448,0.3684,0.3528,0.3294,0.3141,0.3062,0.2982,0.2589,0.2196,0.196,0.1882,0.1492,0.1335,0.1335,0.1648,0.1803,0.1803,0.2118,0.2276,0.2276,0.1883,0.1803,0.1725,0.1414,0.1335,0.1335,0.1648,0.1569,0.1335,0.1648,0.1569,0.1335,0.1335,0.1335,0.1262,0.1286,0.1315,0.1344,0.1367,0.1381,0.1395,0.1421,0.1431,0.1436,0.1436,0.1436,0.1436,0.1436,0.1436,0.1436,0.1436,0.1436,0.1436,0.1436,0.1436,0.1436,0.1436,0.1436,0.1436,0.1436,0.1436,0.1436,0.1436,0.1436,0.1436,0.1436,0.1436,0.1436,0.1436,0.1436,0.1436,0.1436,0.1436,0.1436,0.1436,0.1436,0.1436,0.1436,0.1436,0.1436,0.1436,0.1436,0.1436,0.0,0.0,0.0,0.0,-0.6553,0.0,0.0,0.0,-0.6331,-0.6342,0.0,0.0,0.0,0.0,0.0,0.0,0.0,0.0,-0.4256,-0.4092,-0.3365,-0.1411,-0.1411,-0.1255,-0.0628,-0.0078,0.094,0.2353,0.1959,0.2038,0.3141,0.251,0.2431,0.3062,0.3062,0.3062,0.3062,0.2668,0.2275,0.1882,0.1492,0.1335,0.1335,0.1335,0.1335,0.1335,0.1414,0.1414,0.1414,0.1414,0.1335,0.1335,0.1335,0.1335,0.1335,0.1335,0.1335,0.1335,0.1335,0.1335,0.1335,0.1335,0.1335,0.1336,0.1262,0.1284,0.1309,0.1311,0.135,0.1391,0.1394,0.1415,0.1436,0.1436,0.1436,0.1436,0.1436,0.1436,0.1436,0.1436,0.1436,0.1436,0.1436,0.1436,0.1436,0.1436,0.1436,0.1436,0.1436,0.1436,0.1436,0.1436,0.1436,0.1436,0.1436,0.1436,0.1436,0.1436,0.1436,0.1436,0.1436,0.1436,0.1436,0.1436,0.1436,0.1436,0.1436,0.1436,0.1436,0.1436,0.1436,0.1436,0.0,0.0,0.0,0.0,0.0,0.0,-0.6791,0.0,-0.6563,0.0,0.0,0.0,0.0,0.0,0.0,0.0,-0.5597,0.0,0.0,0.0,-0.4151,0.0,0.0,0.0,-0.1962,-0.0941,-0.0078,0.0627,0.0784,0.1097,0.1646,0.1724,0.1959,0.2585,0.2902,0.3217,0.353,0.2824,0.2431,0.2275,0.157,0.1335,0.1335,0.1335,0.1335,0.1335,0.1335,0.1335,0.1335,0.1335,0.1335,0.1335,0.1335,0.1335,0.1335,0.1335,0.1335,0.1335,0.1335,0.1335,0.1335,0.1335,0.1335,0.1335,0.1335,0.1266,0.128,0.1298,0.132,0.1347,0.1381,0.1399,0.1413,0.1431,0.1436,0.1436,0.1436,0.1436,0.1436,0.1436,0.1436,0.1436,0.1436,0.1436,0.1436,0.1436,0.1436,0.1436,0.1436,0.1436,0.1436,0.1436,0.1436,0.1436,0.1436,0.1436,0.1436,0.1436,0.1436,0.1436,0.1436,0.1436,0.1436,0.1436,0.1436,0.1436,0.1436,0.1436,0.1436,0.1436,0.1436,0.1436,-0.7305,0.0,0.0,0.0,0.0,0.0,0.0,0.0,0.0,0.0,0.0,0.0,0.0,0.0,0.0,0.0,0.0,-0.5622,0.0,-0.5065,0.0,0.0,0.0,0.0,0.0,-0.2037,-0.1254,-0.0861,-0.0392,0.0078,0.0392,0.0705,0.1019,0.1564,0.2037,0.2588,0.3214,0.251,0.2196,0.2353,0.1649,0.1335,0.1335,0.1335,0.1335,0.1335,0.1335,0.1178,0.1021,0.1021,0.0943,0.0786,0.0786,0.0864,0.1021,0.1257,0.1335,0.1335,0.1335,0.1335,0.1335,0.1335,0.1335,0.1335,0.1335,0.1335,0.1262,0.1284,0.1296,0.1312,0.1355,0.1372,0.1386,0.1416,0.1423,0.1425,0.1433,0.1436,0.1436,0.1436,0.1436,0.1436,0.1436,0.1436,0.1436,0.1436,0.1436,0.1436,0.1436,0.1436,0.1436,0.1436,0.1436,0.1436,0.1436,0.1436,0.1436,0.1436,0.1436,0.1436,0.1436,0.1436,0.1436,0.1436,0.1436,0.1436,0.1436,0.1436,0.1436,0.1436,0.1436,0.1436,0.0,0.0,0.0,-0.7232,0.0,0.0,0.0,0.0,-0.7103,0.0,0.0,0.0,0.0,0.0,0.0,0.0,0.0,0.0,0.0,0.0,0.0,0.0,0.0,0.0,0.0,-0.2979,-0.235,-0.1329,-0.1647,-0.1256,-0.0078,-0.0785,-0.0785,0.0078,0.0313,0.0784,0.1646,0.1489,0.1568,0.1882,0.1492,0.1335,0.1335,0.1335,0.1335,0.1335,0.1335,0.0943,0.0314,0.0314,-0.0,-0.055,-0.055,-0.0157,0.0393,0.11,0.1335,0.1335,0.1335,0.1335,0.1335,0.1335,0.1335,0.1335,0.1335,0.1335,0.1336,0.1337,0.128,0.1303,0.1305,0.1327,0.1356,0.1384,0.1391,0.1399,0.1429,0.1436,0.1436,0.1436,0.1436,0.1436,0.1436,0.1436,0.1436,0.1436,0.1436,0.1436,0.1436,0.1436,0.1436,0.1436,0.1436,0.1436,0.1436,0.1436,0.1436,0.1436,0.1436,0.1436,0.1436,0.1436,0.1436,0.1436,0.1436,0.1436,0.1436,0.1436,0.1436,0.1436,0.1436,0.1436,0.0,0.0,-0.7118,-0.7182,0.0,0.0,0.0,0.0,0.0,0.0,0.0,0.0,0.0,0.0,0.0,0.0,0.0,0.0,0.0,0.0,0.0,0.0,0.0,0.0,0.0,0.0,-0.3214,-0.2508,-0.2589,-0.2354,-0.1724,-0.1568,-0.1254,-0.0627,-0.0157,0.0392,0.094,0.0627,0.047,0.0627,0.0628,0.0628,0.0628,0.0628,0.0628,0.0628,0.0236,-0.0079,-0.0314,-0.0314,-0.0393,-0.0628,-0.0628,-0.0471,-0.0236,0.0393,0.0943,0.1335,0.1335,0.1335,0.1335,0.1335,0.1335,0.1335,0.1335,0.1335,0.1335,0.1335,0.1264,0.1277,0.1297,0.131,0.1325,0.1355,0.1376,0.1393,0.1403,0.1421,0.1436,0.1436,0.1436,0.1436,0.1436,0.1436,0.1436,0.1436,0.1436,0.1436,0.1436,0.1436,0.1436,0.1436,0.1436,0.1436,0.1436,0.1436,0.1436,0.1436,0.1436,0.1436,0.1436,0.1436,0.1436,0.1436,0.1436,0.1436,0.1436,0.1436,0.1436,0.1436,0.1436,0.1436,-0.6863,-0.6876,0.0,-0.6995,-0.7064,0.0,-0.7131,0.0,-0.7171,0.0,0.0,0.0,0.0,0.0,0.0,0.0,0.0,0.0,0.0,-0.5709,0.0,0.0,0.0,0.0,0.0,-0.4231,-0.3841,-0.3374,-0.3219,-0.2904,0.0,-0.2117,-0.1803,-0.1489,-0.1019,-0.0627,-0.0157,-0.0392,-0.0392,-0.0235,-0.0078,-0.0,-0.0,-0.0,-0.0,-0.0079,-0.0393,-0.0707,-0.0942,-0.0942,-0.1099,-0.1256,-0.1256,-0.1177,-0.0863,-0.0236,0.0393,0.0943,0.1178,0.1335,0.1335,0.1335,0.1335,0.1335,0.1335,0.1335,0.1338,0.1271,0.1266,0.1264,0.1294,0.1294,0.1294,0.1324,0.1346,0.1365,0.1385,0.1406,0.1423,0.1433,0.1436,0.1436,0.1436,0.1436,0.1436,0.1436,0.1436,0.1436,0.1436,0.1436,0.1436,0.1436,0.1436,0.1436,0.1436,0.1436,0.1436,0.1436,0.1436,0.1436,0.1436,0.1436,0.1436,0.1436,0.1436,0.1436,0.1436,0.1436,0.1436,0.1436,0.1436,0.1436]},{"header":{"parameterUnit":"m.s-1","parameterCategory":1,"la1":30.6,"la2":29.2853,"lo1":-89.7004,"lo2":-87.6739,"dy":0.0162,"dx":0.0183,"nx":112,"ny":82,"refTime":"2023-06-20T06:00:00:Z","depth":0,"parameterNumber":3,"parameterNumberName":"V-component_of_WINDS"},"data":[0.0,0.0,0.0,0.0,0.0,0.0,0.0,0.0,0.0,0.0,0.0,0.0,0.0,0.0,0.0,0.0,0.0,0.0,0.0,0.0,0.0,0.0,0.0,0.0,0.0,0.0,0.0,0.0,0.0,0.0,0.0,0.0,0.0,0.0,0.0,0.0,0.0,0.0,0.0,0.0,0.0,0.0,0.0,0.0,0.0,0.0,0.0,0.0,0.0,0.0,0.0,0.0,0.0,0.0,0.0,0.0,0.0,0.0,0.0,0.0,0.0,0.0,0.0,0.0,0.0,0.0,0.0,0.0,0.0,0.0,0.0,0.0,0.0,0.0,0.0,0.0,0.0,0.0,0.0,0.0,0.0,0.0,0.0,0.0,0.0,0.0,0.0,0.0,0.0,0.0,-3.0598,-3.0607,-3.0598,-3.0598,-3.0607,-2.9921,-2.9437,-2.9311,0.0,0.0,0.0,0.0,0.0,0.0,0.0,0.0,0.0,0.0,0.0,0.0,0.0,0.0,0.0,0.0,0.0,0.0,0.0,0.0,0.0,0.0,0.0,0.0,0.0,0.0,0.0,0.0,0.0,0.0,0.0,0.0,0.0,0.0,0.0,0.0,0.0,0.0,0.0,0.0,0.0,0.0,0.0,0.0,0.0,0.0,0.0,0.0,0.0,0.0,0.0,0.0,0.0,0.0,0.0,0.0,0.0,0.0,0.0,0.0,0.0,0.0,0.0,0.0,0.0,0.0,0.0,0.0,0.0,0.0,0.0,0.0,0.0,0.0,0.0,0.0,0.0,0.0,0.0,0.0,0.0,0.0,0.0,0.0,0.0,0.0,0.0,0.0,0.0,0.0,0.0,0.0,0.0,0.0,0.0,0.0,0.0,0.0,0.0,0.0,0.0,0.0,0.0,0.0,-3.0607,-3.0586,-3.0597,-3.0607,-3.0595,-3.0472,-3.0085,-2.9356,0.0,0.0,0.0,0.0,0.0,0.0,0.0,0.0,0.0,0.0,0.0,0.0,0.0,0.0,0.0,0.0,0.0,0.0,0.0,0.0,0.0,0.0,0.0,0.0,0.0,0.0,0.0,0.0,0.0,0.0,0.0,0.0,0.0,0.0,0.0,0.0,0.0,0.0,0.0,0.0,0.0,0.0,0.0,0.0,0.0,0.0,0.0,0.0,0.0,0.0,0.0,0.0,0.0,0.0,0.0,0.0,0.0,0.0,0.0,0.0,0.0,0.0,0.0,0.0,0.0,0.0,0.0,0.0,0.0,0.0,0.0,0.0,0.0,0.0,0.0,0.0,0.0,0.0,0.0,0.0,0.0,0.0,0.0,0.0,0.0,0.0,0.0,0.0,0.0,0.0,0.0,0.0,0.0,0.0,0.0,0.0,0.0,0.0,0.0,0.0,0.0,0.0,0.0,-3.0598,-3.0607,-3.0595,-3.0606,-3.0606,-3.0595,-3.0606,-3.0432,-3.0042,-2.8805,0.0,0.0,0.0,0.0,0.0,0.0,0.0,0.0,0.0,0.0,0.0,0.0,0.0,0.0,0.0,0.0,0.0,0.0,0.0,0.0,0.0,0.0,0.0,0.0,0.0,0.0,0.0,0.0,0.0,0.0,0.0,0.0,0.0,0.0,0.0,0.0,0.0,0.0,0.0,0.0,0.0,0.0,0.0,0.0,0.0,0.0,0.0,0.0,0.0,0.0,0.0,0.0,0.0,0.0,0.0,0.0,0.0,0.0,0.0,0.0,0.0,0.0,0.0,0.0,0.0,0.0,0.0,0.0,0.0,0.0,0.0,0.0,0.0,0.0,0.0,0.0,0.0,0.0,0.0,0.0,0.0,0.0,0.0,0.0,0.0,0.0,0.0,0.0,0.0,0.0,0.0,0.0,0.0,0.0,0.0,0.0,0.0,0.0,0.0,0.0,0.0,0.0,-3.0607,-3.0597,-3.0604,-3.0604,-3.0604,-3.0613,-3.0613,-3.0604,-3.0613,-2.9993,0.0,0.0,0.0,0.0,0.0,0.0,0.0,0.0,0.0,0.0,0.0,0.0,0.0,0.0,0.0,0.0,0.0,0.0,0.0,0.0,0.0,0.0,0.0,0.0,0.0,0.0,0.0,0.0,0.0,0.0,0.0,0.0,0.0,0.0,0.0,0.0,0.0,0.0,0.0,0.0,0.0,0.0,0.0,0.0,0.0,0.0,0.0,0.0,0.0,0.0,0.0,0.0,0.0,0.0,0.0,0.0,0.0,0.0,0.0,0.0,0.0,0.0,0.0,0.0,0.0,0.0,0.0,0.0,0.0,0.0,0.0,0.0,0.0,0.0,0.0,0.0,0.0,0.0,0.0,0.0,0.0,0.0,0.0,0.0,0.0,0.0,0.0,0.0,0.0,0.0,0.0,0.0,0.0,0.0,0.0,0.0,0.0,0.0,0.0,0.0,0.0,0.0,-3.0597,-3.0604,-3.0602,-3.0602,-3.0629,-3.0692,-3.0637,-3.0629,-3.0692,-3.0634,0.0,0.0,0.0,0.0,0.0,0.0,0.0,0.0,0.0,0.0,0.0,0.0,0.0,0.0,0.0,0.0,0.0,0.0,0.0,0.0,0.0,0.0,0.0,0.0,0.0,0.0,0.0,0.0,0.0,0.0,0.0,0.0,0.0,0.0,0.0,0.0,0.0,0.0,0.0,0.0,0.0,0.0,0.0,0.0,0.0,0.0,0.0,0.0,0.0,0.0,0.0,0.0,0.0,0.0,0.0,0.0,0.0,0.0,0.0,0.0,0.0,0.0,0.0,0.0,0.0,0.0,0.0,0.0,0.0,0.0,0.0,0.0,0.0,0.0,0.0,0.0,0.0,0.0,0.0,0.0,0.0,0.0,0.0,0.0,0.0,0.0,0.0,0.0,0.0,0.0,0.0,0.0,0.0,0.0,0.0,0.0,0.0,0.0,0.0,0.0,0.0,0.0,-3.0607,-3.0606,-3.0602,-3.0602,-3.061,-3.0637,-3.061,-3.061,-3.0637,0.0,0.0,0.0,0.0,0.0,0.0,0.0,0.0,0.0,0.0,0.0,0.0,0.0,0.0,0.0,0.0,0.0,0.0,0.0,0.0,0.0,0.0,0.0,0.0,0.0,0.0,0.0,0.0,0.0,0.0,0.0,0.0,0.0,0.0,0.0,0.0,0.0,0.0,0.0,0.0,0.0,0.0,0.0,0.0,0.0,0.0,0.0,0.0,0.0,0.0,0.0,0.0,0.0,0.0,0.0,0.0,0.0,0.0,0.0,0.0,0.0,0.0,0.0,0.0,0.0,0.0,0.0,0.0,0.0,0.0,0.0,0.0,0.0,0.0,0.0,0.0,0.0,0.0,0.0,0.0,0.0,0.0,0.0,0.0,0.0,0.0,0.0,0.0,0.0,0.0,0.0,0.0,0.0,0.0,0.0,0.0,0.0,0.0,0.0,0.0,0.0,0.0,-3.0588,-3.0588,-3.0606,-3.0593,-3.0602,-3.0602,-3.0602,-3.0602,-3.061,-3.0637,0.0,0.0,0.0,0.0,0.0,0.0,0.0,0.0,0.0,0.0,0.0,0.0,0.0,0.0,0.0,0.0,0.0,0.0,0.0,0.0,0.0,0.0,0.0,0.0,0.0,0.0,0.0,0.0,0.0,0.0,0.0,0.0,0.0,0.0,0.0,0.0,0.0,0.0,0.0,0.0,0.0,0.0,0.0,0.0,0.0,0.0,0.0,0.0,0.0,0.0,0.0,0.0,0.0,0.0,0.0,0.0,0.0,0.0,0.0,0.0,0.0,0.0,0.0,0.0,0.0,0.0,0.0,0.0,0.0,0.0,0.0,0.0,0.0,0.0,0.0,0.0,0.0,0.0,0.0,0.0,0.0,0.0,0.0,0.0,0.0,0.0,0.0,0.0,0.0,0.0,0.0,0.0,0.0,0.0,0.0,0.0,0.0,0.0,0.0,0.0,0.0,0.0,-3.0634,-3.0634,-3.0634,-3.0634,-3.0632,-3.0621,-3.0621,-3.0602,-3.0637,0.0,0.0,0.0,0.0,0.0,0.0,0.0,0.0,0.0,0.0,0.0,0.0,0.0,0.0,0.0,0.0,0.0,0.0,0.0,0.0,0.0,0.0,0.0,0.0,0.0,0.0,0.0,0.0,0.0,0.0,0.0,0.0,0.0,0.0,0.0,0.0,0.0,0.0,0.0,0.0,0.0,0.0,0.0,0.0,0.0,0.0,0.0,0.0,0.0,0.0,0.0,0.0,0.0,0.0,0.0,0.0,0.0,0.0,0.0,0.0,0.0,0.0,0.0,0.0,0.0,0.0,0.0,0.0,0.0,0.0,0.0,0.0,0.0,0.0,0.0,0.0,0.0,0.0,0.0,0.0,0.0,0.0,0.0,0.0,0.0,0.0,0.0,0.0,0.0,0.0,0.0,0.0,0.0,0.0,0.0,0.0,0.0,0.0,0.0,0.0,0.0,0.0,0.0,-3.2435,-3.2377,-3.2358,-3.2348,-3.2357,-3.2134,-3.1553,-3.1514,-3.1252,-3.0676,0.0,0.0,0.0,0.0,0.0,0.0,0.0,0.0,0.0,0.0,0.0,0.0,0.0,0.0,0.0,0.0,0.0,0.0,0.0,0.0,0.0,0.0,0.0,0.0,0.0,0.0,0.0,0.0,0.0,0.0,0.0,0.0,0.0,0.0,0.0,0.0,0.0,0.0,0.0,0.0,0.0,0.0,0.0,0.0,0.0,0.0,0.0,0.0,0.0,0.0,0.0,0.0,0.0,0.0,0.0,0.0,0.0,0.0,0.0,0.0,0.0,0.0,0.0,0.0,0.0,0.0,0.0,0.0,0.0,0.0,0.0,0.0,0.0,0.0,0.0,0.0,0.0,0.0,0.0,0.0,0.0,0.0,0.0,0.0,0.0,0.0,0.0,0.0,0.0,0.0,0.0,0.0,0.0,0.0,0.0,0.0,0.0,0.0,0.0,0.0,0.0,0.0,-3.3189,-3.3132,-3.3093,-3.3113,-3.3093,-3.29,-3.2416,-3.2377,-3.2154,-3.1639,0.0,0.0,0.0,0.0,0.0,0.0,0.0,0.0,0.0,0.0,0.0,0.0,0.0,0.0,0.0,0.0,0.0,0.0,0.0,0.0,0.0,0.0,0.0,0.0,0.0,0.0,0.0,0.0,0.0,0.0,0.0,0.0,0.0,0.0,0.0,0.0,0.0,0.0,0.0,0.0,0.0,0.0,0.0,0.0,0.0,0.0,0.0,0.0,0.0,0.0,0.0,0.0,0.0,0.0,0.0,0.0,0.0,0.0,0.0,0.0,0.0,0.0,0.0,0.0,0.0,0.0,0.0,0.0,0.0,0.0,0.0,0.0,0.0,0.0,0.0,0.0,0.0,0.0,0.0,0.0,0.0,0.0,0.0,0.0,0.0,0.0,0.0,0.0,0.0,0.0,0.0,0.0,0.0,0.0,0.0,0.0,0.0,0.0,0.0,0.0,0.0,0.0,-3.3431,-3.3374,-3.3334,-3.3334,-3.3334,-3.3314,-3.3218,-3.3218,-3.3199,-3.3103,0.0,0.0,0.0,0.0,0.0,0.0,0.0,0.0,0.0,0.0,0.0,0.0,0.0,0.0,0.0,0.0,0.0,0.0,0.0,0.0,0.0,0.0,0.0,0.0,0.0,0.0,0.0,0.0,0.0,0.0,0.0,0.0,0.0,0.0,0.0,0.0,0.0,0.0,0.0,0.0,0.0,0.0,0.0,0.0,0.0,0.0,0.0,0.0,0.0,0.0,0.0,0.0,0.0,0.0,0.0,0.0,0.0,0.0,0.0,0.0,-3.0469,0.0,0.0,0.0,0.0,0.0,0.0,0.0,0.0,0.0,0.0,0.0,0.0,0.0,0.0,0.0,0.0,0.0,0.0,0.0,0.0,0.0,0.0,0.0,0.0,0.0,0.0,0.0,0.0,0.0,0.0,0.0,0.0,0.0,0.0,0.0,0.0,0.0,0.0,0.0,0.0,0.0,-3.5156,-3.5155,-3.5143,-3.5143,-3.5143,-3.4872,-3.4176,-3.4118,-3.3838,-3.3142,-3.3103,0.0,0.0,0.0,0.0,0.0,0.0,0.0,0.0,0.0,0.0,0.0,0.0,0.0,0.0,0.0,0.0,0.0,0.0,0.0,0.0,0.0,0.0,0.0,0.0,0.0,0.0,0.0,0.0,0.0,0.0,0.0,0.0,0.0,0.0,0.0,0.0,0.0,0.0,0.0,0.0,0.0,0.0,0.0,0.0,0.0,0.0,0.0,0.0,0.0,0.0,0.0,0.0,0.0,0.0,0.0,0.0,0.0,0.0,0.0,0.0,-3.1088,0.0,0.0,0.0,0.0,0.0,0.0,0.0,0.0,0.0,0.0,0.0,0.0,0.0,0.0,0.0,0.0,0.0,0.0,0.0,0.0,0.0,0.0,0.0,0.0,0.0,0.0,0.0,0.0,0.0,0.0,0.0,0.0,0.0,0.0,0.0,0.0,0.0,0.0,0.0,0.0,-3.5708,-3.5697,-3.5704,-3.5704,-3.5704,-3.551,-3.5065,-3.5007,-3.4825,-3.439,-3.4351,0.0,0.0,0.0,0.0,0.0,0.0,0.0,0.0,0.0,0.0,0.0,0.0,0.0,0.0,0.0,0.0,0.0,0.0,0.0,0.0,0.0,0.0,0.0,0.0,0.0,0.0,0.0,0.0,0.0,0.0,0.0,0.0,0.0,0.0,0.0,0.0,0.0,0.0,0.0,0.0,0.0,0.0,0.0,0.0,0.0,0.0,0.0,0.0,0.0,0.0,0.0,0.0,0.0,-3.1908,-3.2285,-3.2983,-3.2983,-3.2972,-3.296,-3.2374,-3.2066,-3.1977,-3.2756,0.0,0.0,0.0,0.0,0.0,0.0,0.0,0.0,0.0,0.0,0.0,0.0,0.0,0.0,0.0,0.0,0.0,0.0,0.0,0.0,0.0,0.0,0.0,0.0,-3.5121,-3.545,-3.4775,0.0,0.0,0.0,0.0,0.0,0.0,0.0,0.0,0.0,0.0,0.0,-3.5699,-3.5697,-3.5704,-3.5704,-3.5704,-3.5704,-3.5704,-3.5704,-3.5704,-3.5704,-3.5704,-3.5375,0.0,0.0,0.0,0.0,0.0,0.0,0.0,0.0,0.0,0.0,0.0,0.0,0.0,0.0,0.0,0.0,0.0,0.0,0.0,0.0,0.0,0.0,0.0,0.0,0.0,0.0,0.0,0.0,0.0,0.0,0.0,0.0,-3.0121,-3.0217,0.0,0.0,0.0,0.0,0.0,0.0,0.0,0.0,0.0,0.0,0.0,0.0,0.0,-3.1852,-3.2564,-3.2564,-3.2622,-3.275,-3.275,-3.2807,-3.2904,-3.2904,-3.2904,-3.2961,-3.3596,0.0,-3.2844,-3.2952,0.0,0.0,0.0,0.0,0.0,0.0,0.0,0.0,0.0,0.0,0.0,0.0,0.0,0.0,0.0,0.0,0.0,0.0,0.0,0.0,0.0,0.0,-3.5427,-3.5438,-3.5566,-3.5665,0.0,-3.553,-3.5549,-3.5684,-3.5704,0.0,0.0,0.0,0.0,0.0,0.0,0.0,-3.5698,-3.5706,-3.5704,-3.5704,-3.5704,-3.5704,-3.5704,-3.5704,-3.5704,-3.5704,-3.5704,-3.5646,-3.553,-3.553,0.0,0.0,0.0,0.0,0.0,0.0,0.0,0.0,0.0,0.0,0.0,0.0,0.0,0.0,0.0,0.0,0.0,0.0,0.0,0.0,0.0,0.0,0.0,0.0,0.0,0.0,0.0,0.0,0.0,-3.0394,-3.0406,-3.0455,-3.0417,-3.0398,0.0,0.0,0.0,0.0,0.0,0.0,0.0,0.0,0.0,-3.2352,-3.2415,-3.2589,-3.2891,-3.2891,-3.3141,-3.3622,-3.3622,-3.3891,-3.4372,-3.4372,-3.4372,-3.4391,-3.4757,-3.4718,-3.4417,-3.4424,-3.4417,-3.441,0.0,0.0,0.0,0.0,-3.4404,-3.4417,-3.4417,-3.4385,-3.4353,-3.436,0.0,0.0,0.0,0.0,0.0,0.0,0.0,-3.5662,0.0,0.0,-3.5662,-3.5662,-3.5673,-3.5704,-3.5704,-3.5704,-3.5704,0.0,-3.5704,-3.5695,-3.5707,0.0,0.0,0.0,0.0,-3.5707,-3.5707,-3.5706,-3.5704,-3.5704,-3.5704,-3.5704,-3.5704,-3.5704,-3.5704,-3.5704,-3.5704,-3.5704,-3.5704,-3.5704,-3.551,0.0,0.0,0.0,0.0,0.0,0.0,0.0,0.0,0.0,0.0,0.0,0.0,0.0,0.0,0.0,0.0,0.0,0.0,0.0,0.0,0.0,0.0,0.0,0.0,0.0,0.0,0.0,0.0,-3.0398,-3.0428,-3.0469,-3.0621,-3.0725,0.0,0.0,0.0,0.0,0.0,0.0,-3.2872,-3.2967,-3.3063,-3.3218,-3.3282,-3.3397,-3.3564,-3.3564,-3.3891,-3.4526,-3.4526,-3.4872,-3.5493,-3.5493,-3.5493,-3.5493,-3.5493,-3.5493,-3.5507,-3.5495,-3.5489,-3.5489,-3.5554,-3.5534,-3.5489,-3.5489,-3.5495,-3.5493,-3.5493,-3.5493,-3.5507,-3.5489,-3.5496,-3.554,-3.5572,0.0,0.0,0.0,0.0,-3.5704,-3.5704,-3.5704,-3.5704,-3.5704,-3.5704,-3.5704,-3.5704,-3.5704,-3.5704,0.0,-3.5704,-3.5695,-3.5697,0.0,0.0,0.0,0.0,-3.5697,-3.5697,-3.5695,-3.5704,-3.5704,-3.5704,-3.5704,-3.5704,-3.5704,-3.5704,-3.5704,-3.5704,-3.5704,-3.5704,-3.5704,-3.5704,-3.5704,0.0,0.0,0.0,0.0,0.0,0.0,0.0,0.0,0.0,0.0,0.0,0.0,0.0,0.0,0.0,0.0,0.0,0.0,0.0,0.0,0.0,0.0,0.0,0.0,0.0,0.0,0.0,0.0,0.0,-3.0398,-3.113,0.0,0.0,0.0,0.0,-3.2921,-3.2926,-3.2933,-3.2891,-3.2967,-3.3352,-3.4103,-3.4154,-3.4545,-3.5372,-3.5372,-3.5391,-3.543,-3.543,-3.5468,-3.5493,-3.5493,-3.5493,-3.5493,-3.5493,-3.5493,-3.5507,-3.5507,-3.5507,-3.5507,-3.5507,-3.5507,-3.5507,-3.5507,-3.5507,-3.5493,-3.5493,-3.5493,-3.5507,-3.5489,-3.5534,-3.5589,-3.5604,-3.5639,0.0,0.0,-3.5704,-3.5704,-3.5704,-3.5704,-3.5704,-3.5704,-3.5704,-3.5704,-3.5704,-3.5704,-3.5704,0.0,-3.5704,-3.5704,-3.5704,0.0,-3.5704,-3.5695,-3.5704,-3.5704,-3.5704,-3.5704,-3.5704,-3.5704,-3.5704,-3.5704,-3.5704,-3.5704,-3.5704,-3.5704,-3.5704,-3.5704,-3.5704,-3.5704,-3.5704,-3.5704,-3.5762,0.0,0.0,0.0,0.0,0.0,0.0,0.0,0.0,0.0,0.0,0.0,0.0,0.0,0.0,0.0,0.0,0.0,0.0,0.0,0.0,0.0,0.0,0.0,0.0,0.0,0.0,0.0,0.0,-3.2019,-3.2355,0.0,-3.2548,-3.2817,-3.321,-3.3724,-3.3763,-3.4013,-3.4545,-3.4597,-3.4751,-3.5026,-3.5045,-3.5199,-3.5507,-3.4949,-3.4949,-3.5474,-3.493,-3.4968,-3.5493,-3.5493,-3.5493,-3.5493,-3.5493,-3.5493,-3.5493,-3.5493,-3.5493,-3.5493,-3.5493,-3.5493,-3.5493,-3.5493,-3.5493,-3.5493,-3.5493,-3.5493,-3.5507,-3.5489,-3.5553,-3.5601,-3.5589,-3.5651,-3.5704,-3.5704,-3.5704,-3.5704,-3.5704,-3.5704,-3.5704,-3.5704,-3.5704,-3.5704,-3.5704,-3.5704,-3.5704,-3.5704,-3.5704,-3.5704,-3.5704,-3.5704,-3.5704,-3.5704,-3.5704,-3.5704,-3.5704,-3.5704,-3.5704,-3.5704,-3.5704,-3.5704,-3.5704,-3.5704,-3.5723,-3.5762,-3.5762,-3.5762,-3.5762,-3.5762,-3.5757,-3.5753,-3.5834,-3.5833,0.0,0.0,0.0,0.0,0.0,0.0,0.0,0.0,0.0,0.0,0.0,0.0,0.0,0.0,0.0,0.0,0.0,0.0,0.0,0.0,0.0,0.0,0.0,0.0,0.0,0.0,-3.2355,-3.2926,-3.3229,-3.339,-3.3403,-3.366,-3.4071,-3.4603,-3.4372,-3.4449,-3.5026,-3.4776,-3.4757,-3.5045,-3.5064,-3.5334,-3.5911,-3.5334,-3.5488,-3.6353,-3.5757,-3.5776,-3.6353,-3.6353,-3.6353,-3.6353,-3.6353,-3.6353,-3.6353,-3.6353,-3.6362,-3.6325,-3.5732,-3.5493,-3.5493,-3.5493,-3.5493,-3.5493,-3.5493,-3.5488,-3.5501,-3.5495,-3.556,-3.5608,-3.5577,-3.5601,-3.5673,-3.5673,-3.5684,-3.5704,-3.5704,-3.5704,-3.5704,-3.5704,-3.5704,-3.5704,-3.5704,-3.5704,-3.5704,-3.5704,-3.5704,-3.5704,-3.5704,-3.5704,-3.5704,-3.5704,-3.5704,-3.5704,-3.5704,-3.5704,-3.5704,-3.5704,-3.5704,-3.5704,-3.5704,-3.5698,-3.5728,-3.5794,-3.5785,-3.5785,-3.5794,-3.5804,-3.5805,-3.5811,-3.5872,-3.5879,-3.588,0.0,0.0,0.0,0.0,0.0,0.0,0.0,0.0,0.0,0.0,0.0,0.0,0.0,0.0,0.0,0.0,0.0,0.0,0.0,0.0,0.0,0.0,0.0,-3.3037,-3.3037,-3.3056,-3.3075,-3.3763,-3.4231,-3.4199,-3.4962,-3.5449,-3.543,-3.4661,-3.4199,-3.4237,-3.3449,-3.341,-3.4276,-3.4314,-3.5103,-3.6719,-3.6719,-3.7142,-3.8007,-3.7969,-3.7969,-3.8003,-3.8003,-3.8022,-3.8003,-3.8003,-3.8003,-3.8003,-3.8003,-3.8047,-3.7928,-3.6234,-3.5584,-3.5584,-3.5584,-3.5584,-3.5584,-3.5584,-3.5592,-3.5579,-3.5559,-3.5566,-3.563,-3.5534,-3.5553,-3.5601,-3.5601,-3.5643,-3.5704,-3.5704,-3.5704,-3.5704,-3.5704,-3.5704,-3.5704,-3.5704,-3.5704,-3.5704,-3.5704,-3.5704,-3.5704,-3.5704,-3.5704,-3.5704,-3.5704,-3.5704,0.0,-3.5704,-3.5704,-3.5704,-3.5704,-3.5704,-3.5704,-3.5695,-3.5704,-3.573,-3.5805,-3.5754,-3.5736,-3.5791,-3.5803,-3.5814,-3.5816,-3.587,-3.5949,-3.5996,0.0,0.0,0.0,0.0,0.0,0.0,0.0,0.0,0.0,0.0,0.0,0.0,0.0,0.0,0.0,0.0,0.0,0.0,0.0,0.0,0.0,0.0,-3.4564,-3.3962,-3.3866,-3.4097,-3.4751,-3.5007,-3.4891,-3.425,-3.4424,-3.4295,-3.366,-3.3968,-3.4468,-3.5122,-3.5468,-3.6045,-3.693,-3.6949,-3.718,-3.7642,-3.7026,-3.7142,-3.7988,-3.7353,-3.7409,-3.8073,-3.8073,-3.8133,-3.8219,-3.8102,-3.8073,-3.8073,-3.8073,-3.8078,-3.8063,-3.7525,-3.7346,-3.7397,-3.7397,-3.7397,-3.7385,-3.7338,-3.7296,-3.7214,-3.6584,-3.6419,-3.6344,-3.5708,-3.5553,-3.5601,-3.5601,-3.5643,-3.5704,-3.5704,-3.5704,-3.5704,-3.5704,-3.5704,-3.5704,-3.5704,-3.5704,-3.5704,-3.5704,-3.5704,-3.5704,-3.5704,-3.5704,-3.5704,-3.5704,-3.5704,0.0,-3.5704,-3.5704,-3.5704,-3.5704,-3.5704,-3.5708,-3.5767,-3.5762,-3.5813,-3.594,-3.5933,-3.5938,-3.593,-3.5947,-3.5951,-3.595,-3.5957,-3.5984,0.0,0.0,0.0,0.0,0.0,0.0,0.0,0.0,0.0,0.0,0.0,0.0,0.0,0.0,0.0,0.0,0.0,0.0,0.0,0.0,0.0,0.0,-3.4853,-3.4776,-3.4257,-3.4199,-3.4391,-3.4911,-3.4641,-3.4353,-3.4199,-3.4526,-3.468,-3.4507,-3.4968,-3.5315,-3.5488,-3.5603,-3.5872,-3.6392,-3.6411,-3.6911,-3.7988,-3.7507,-3.7853,-3.9027,-3.8598,-3.8646,-3.9197,-3.9223,-3.9267,-3.9343,-3.9257,-3.9226,-3.9226,-3.9226,-3.9257,0.0,0.0,0.0,0.0,0.0,-3.817,-3.8179,-3.808,-3.8047,-3.7957,-3.7406,-3.7271,-3.7209,-3.6689,-3.6575,-3.6607,-3.6639,-3.6702,-3.6756,-3.6748,-3.6748,-3.6748,-3.6748,-3.6767,-3.6798,-3.6798,-3.6798,-3.6828,-3.6828,-3.6823,0.0,-3.6839,-3.6222,-3.5742,-3.5742,-3.5742,-3.5742,-3.5742,-3.5742,-3.5742,-3.5742,-3.5762,-3.5795,-3.5834,-3.5846,0.0,0.0,0.0,-3.5965,-3.5957,-3.5986,0.0,0.0,0.0,-3.5996,-3.5996,-3.5996,0.0,0.0,-3.6009,-3.5999,0.0,0.0,0.0,0.0,0.0,0.0,0.0,0.0,0.0,0.0,0.0,0.0,0.0,0.0,0.0,0.0,-3.4699,-3.4199,-3.4199,-3.4199,-3.4199,-3.4199,-3.3603,-3.3468,-3.4122,-3.4988,-3.5718,-3.6238,-3.6372,-3.6161,-3.5532,0.0,0.0,0.0,0.0,-3.6015,-3.8286,-3.8301,-3.9066,-4.053,-4.0636,-4.073,-4.0742,-4.0801,-4.0829,-4.0818,-4.0829,-4.0829,-4.0829,-4.0829,-4.0898,-4.0844,-3.9225,-3.8591,-3.8591,-3.8583,-3.8583,-3.8602,-3.8451,0.0,0.0,-3.8207,-3.8166,-3.8147,-3.8041,-3.8012,-3.8028,-3.808,-3.8138,-3.8194,-3.8206,-3.8206,-3.8206,-3.8218,-3.8257,-3.8319,-3.8302,-3.8363,-3.8393,-3.841,-3.8408,-3.8422,-3.8414,-3.7136,-3.6095,-3.6095,-3.5998,-3.594,-3.594,-3.5862,-3.5804,-3.5804,0.0,0.0,-3.5908,-3.5904,-3.5939,-3.5999,-3.5941,-3.5905,-3.5918,-3.5976,-3.5968,-3.5902,-3.5965,-3.5996,-3.5996,-3.5996,-3.5996,-3.5996,-3.5994,-3.6007,0.0,0.0,0.0,0.0,0.0,0.0,0.0,0.0,0.0,0.0,0.0,0.0,0.0,0.0,0.0,-3.4564,-3.4314,-3.4199,-3.4199,-3.4199,-3.4199,-3.4199,-3.468,-3.4795,-3.4237,-3.4988,-3.4988,-3.3737,-3.4295,-3.4911,-3.5468,-3.6622,-3.7584,-3.8277,-3.9058,-3.967,-4.0172,-4.0242,-4.0421,-4.0751,0.0,0.0,-4.0933,-4.0967,-4.0986,-4.1046,-4.098,-4.0954,-4.0954,-4.0954,-4.1011,-4.1035,-4.0629,-4.0487,-4.0461,-4.036,-4.0377,-4.0461,-4.0314,-4.0277,-4.014,-3.9391,-3.9201,-3.9129,-3.8252,-3.811,0.0,-3.8067,-3.8105,-3.8205,-3.8194,-3.824,-3.8291,-3.8276,-3.8334,-3.8371,-3.8388,-3.8397,-3.8427,-3.848,-3.848,-3.8499,-3.8558,-3.8182,-3.7891,-3.7891,-3.73,-3.6852,-3.6852,-3.6223,-3.5795,-3.5795,-3.5814,-3.5842,-3.5899,-3.5902,-3.5937,-3.5999,-3.5984,-3.5989,-3.5976,-3.5996,-3.5995,-3.5984,-3.5995,-3.5996,-3.5996,-3.5996,-3.5996,-3.5996,-3.5996,-3.5992,0.0,0.0,0.0,0.0,0.0,0.0,0.0,0.0,0.0,0.0,0.0,-3.5675,0.0,0.0,-3.4608,-3.374,-3.3942,-3.4045,-3.3603,-3.391,-3.4199,-3.4199,-3.4584,-3.468,-3.4237,-3.4988,-3.5488,-3.5449,-3.6257,-3.693,-3.7373,-3.82,-3.8667,-3.8697,-3.9161,-3.9646,-4.0128,-4.0189,-4.0616,-4.1461,-4.1524,-4.1816,-4.2299,-4.2334,-4.2377,-4.2396,-4.2377,-4.2344,-4.2344,-4.2344,-4.2377,-4.2396,-4.2353,-4.1818,-4.1033,-4.0967,-4.0992,-4.1047,-4.0928,-4.0898,-4.0805,-4.0267,-4.015,-4.0092,-3.9561,-3.9456,-3.949,-3.9467,-3.9456,-3.9467,-3.9525,-3.9583,-3.9605,-3.9636,-3.9702,-3.9743,-3.9743,-3.9778,-3.9816,-3.9833,-3.9855,-3.9858,-3.9907,-3.9845,-3.9513,-3.8632,-3.8124,-3.7851,-3.7851,-3.7089,-3.654,-3.654,-3.615,-3.5903,-3.5953,-3.5947,-3.5951,-3.5996,-3.5996,-3.5996,-3.5996,-3.5996,-3.5996,-3.5996,-3.5996,-3.5996,-3.5996,-3.5996,-3.5996,-3.5996,-3.5996,-3.5995,0.0,0.0,0.0,0.0,0.0,0.0,0.0,0.0,-3.5991,-3.5991,-3.5806,-3.5441,-3.4734,-3.4459,-3.409,-3.3393,-3.3843,-3.4063,-3.3499,-3.4051,-3.4481,-3.4449,-3.4449,-3.4507,-3.4661,-3.5455,-3.6531,-3.7892,-3.8657,-3.9042,-3.9076,-3.9239,-3.9116,-3.8628,-3.8808,-3.9393,-4.038,-4.0396,-4.1066,-4.2416,-4.2513,-4.2947,-4.3629,-4.3669,-4.3704,-4.3704,-4.3704,-4.3704,-4.3704,-4.3704,-4.3704,-4.3704,-4.3704,-4.2845,-4.1615,-4.1615,-4.1615,-4.1592,-4.1535,-4.1518,-4.1506,-4.1377,-4.136,-4.1369,-4.1334,-4.1286,-4.1304,-4.1373,-4.1325,-4.1285,-4.1374,-4.1412,-4.1446,-4.1487,-4.1571,-4.1607,-4.1607,-4.1505,-4.1426,-4.1426,-4.131,-4.1208,-4.1208,-4.1191,-4.0723,-3.9316,-3.8965,-3.8848,-3.8848,-3.8086,-3.7559,-3.7559,-3.6777,-3.6172,-3.6016,-3.5996,-3.5996,-3.5996,-3.5996,-3.5996,-3.5996,-3.5996,-3.5996,-3.5996,-3.5996,-3.5996,-3.5996,-3.5996,-3.5996,-3.5996,-3.5996,-3.5995,-3.5994,-3.5994,-3.5994,-3.5994,-3.5991,-3.5991,0.0,0.0,-3.5991,-3.5991,-3.5338,-3.4714,-3.4617,-3.4477,-3.4384,-3.4334,-3.4412,-3.4669,-3.5222,-3.5426,-3.5461,-3.5287,-3.5325,-3.5641,-3.6353,-3.7156,-3.7732,-3.7988,-3.8089,-3.8175,-3.8221,-3.9023,-3.9788,-4.0469,-4.1349,-4.2266,-4.315,-4.3202,-4.3342,-4.3517,-4.3541,-4.3583,-4.37,-4.3704,-4.3704,-4.3704,-4.3704,-4.3704,-4.3704,-4.3704,-4.3704,-4.3704,-4.3704,-4.3587,-4.3411,-4.3411,-4.3411,-4.3411,-4.3408,-4.3408,-4.34,-4.3305,-4.3323,-4.3344,-4.3166,-4.324,-4.3339,-4.3166,-4.3194,-4.3265,-4.3225,-4.3249,-4.3293,-4.3319,-4.3365,-4.3413,-4.3413,-4.2811,-4.2266,-4.2266,-4.1698,-4.1208,-4.1191,-4.1191,-4.1133,-4.0937,-4.0254,-3.9746,-3.9746,-3.8984,-3.8457,-3.8457,-3.7676,-3.6836,-3.6074,-3.5996,-3.5996,-3.5996,-3.5996,-3.5996,-3.5996,-3.5996,-3.5996,-3.5996,-3.5996,-3.5996,-3.5996,-3.5996,-3.5996,-3.5996,-3.5996,-3.5995,-3.5991,-3.5991,0.0,0.0,-3.5991,-3.5991,-3.5991,-3.5603,-3.5232,-3.5232,-3.4537,-3.3899,-3.3899,-3.4233,-3.4529,0.0,-3.5745,-3.6415,-3.5747,-3.6531,-3.6899,-3.6246,-3.626,-3.644,-3.6722,-3.7483,-3.8204,-3.8826,-3.8872,-3.9335,-4.037,-4.0804,-4.1441,-4.2388,-4.2843,-4.3259,-4.366,-4.3697,-4.3957,-4.4465,-4.4465,-4.4692,-4.5148,-4.5148,-4.5148,-4.5148,-4.5148,-4.5148,-4.5152,-4.5203,-4.518,-4.5152,-4.5203,-4.5207,-4.509,-4.4075,-4.3704,-4.3704,-4.3704,-4.3704,-4.3704,-4.3665,-4.3673,-4.3681,-4.3602,-4.3616,-4.3626,-4.359,-4.3598,-4.3591,-4.361,-4.3646,-4.366,-4.366,-4.3674,-4.3708,-4.3708,-4.3417,-4.3164,-4.3164,-4.2871,-4.248,-4.1992,-4.1894,-4.1738,-4.1269,-4.0898,-4.0664,-4.0664,-3.9902,-3.916,-3.8652,-3.8262,-3.7695,-3.6836,-3.6758,-3.6543,-3.6035,-3.5996,-3.5996,-3.5996,-3.5996,-3.5996,-3.5996,-3.5996,-3.5996,-3.5996,-3.5996,-3.5996,-3.5996,-3.5996,-3.5995,-3.5991,0.0,0.0,-3.5991,-3.5818,-3.5642,-3.5642,-3.4979,-3.4334,-3.4334,-3.3846,-3.3476,-3.371,-3.4433,-3.5139,-3.5626,-3.6969,-3.7603,-3.6587,-3.7308,-3.7624,-3.6852,-3.7274,-3.7599,-3.7546,-3.8061,-3.8801,-3.9765,-4.0048,-4.0773,-4.2061,-4.2364,-4.2963,-4.3929,-4.398,-4.4119,-4.4406,-4.4426,-4.4738,-4.5363,-4.5336,-4.564,-4.6206,-4.6201,-4.6195,-4.6195,-4.6195,-4.6195,-4.6195,-4.6245,-4.6245,-4.6211,-4.6273,-4.63,-4.6144,-4.4875,-4.4426,-4.4426,-4.4426,-4.4426,-4.4426,-4.4426,-4.4426,-4.4426,-4.4426,-4.4387,-4.4348,-4.4399,-4.4387,-4.4367,-4.4399,-4.4422,-4.4422,-4.4422,-4.4416,-4.4421,-4.4421,-4.4233,-4.4061,-4.4061,-4.3867,-4.3496,-4.2871,-4.2754,-4.248,-4.1641,-4.1523,-4.1445,-4.123,-4.0644,-3.9922,-3.9041,-3.8962,-3.8612,-3.7734,-3.7656,-3.7383,-3.6758,-3.6484,-3.6367,-3.6367,-3.6133,-3.5996,-3.5996,-3.5996,-3.5996,-3.5996,-3.5996,-3.5996,-3.5996,-3.5996,-3.5995,0.0,0.0,-3.5991,-3.5991,-3.5369,-3.4744,-3.4744,-3.4061,-3.3437,-3.3437,-3.3417,-3.3651,-3.4491,-3.5369,-3.6518,-3.8199,-3.7825,-3.7554,-3.8215,-3.7683,-3.7148,-3.693,-3.8384,-3.9425,0.0,-3.9386,-3.9728,-4.0597,-4.1447,-4.2009,-4.2199,-4.3062,-4.3949,-4.4821,-4.4922,-4.5363,-4.6202,-4.6222,-4.6222,-4.6261,-4.6182,-4.6187,-4.6206,-4.6196,-4.6203,-4.6203,-4.6203,-4.6203,-4.6203,-4.6195,-4.6206,-4.6211,-4.6273,-4.63,-4.628,-4.6241,-4.6222,-4.6222,-4.6222,-4.6222,-4.6222,-4.6222,-4.6222,-4.6222,-4.6222,-4.6222,-4.6222,-4.6222,-4.6222,-4.6222,-4.6222,-4.6222,-4.6222,-4.6222,-4.6222,-4.6222,-4.6222,-4.5558,-4.4959,-4.4952,-4.4276,-4.3691,-4.3672,-4.3652,-4.3379,-4.248,-4.2363,-4.207,-4.1308,-4.1172,-4.0838,-3.9942,-3.9858,-3.952,-3.8633,-3.8555,-3.8555,-3.8516,-3.7734,-3.7266,-3.7266,-3.6445,-3.5996,-3.5996,-3.5996,-3.5996,-3.5996,-3.5996,-3.5996,-3.5996,-3.5996,-3.5995,0.0,0.0,-3.5857,-3.5271,-3.492,-3.4549,-3.3964,-3.3163,-3.2695,-3.328,-3.3398,-3.3846,-3.531,-3.6755,-3.8082,-3.9214,-3.9146,-3.8833,-3.8519,-3.8183,-3.7949,-3.7788,-3.8858,0.0,0.0,0.0,0.0,-4.1634,-4.1974,-4.2685,-4.3919,-4.4299,-4.4883,-4.58,-4.5816,-4.5948,-4.6221,-4.622,-4.6234,-4.6234,-4.6176,-4.6123,-4.6135,-4.6093,-4.6093,-4.6138,-4.6138,-4.6138,-4.6138,-4.6183,-4.6196,-4.6196,-4.6211,-4.6269,-4.63,-4.63,-4.63,-4.63,-4.63,-4.63,-4.63,-4.63,-4.63,-4.63,-4.63,-4.63,-4.63,-4.63,-4.63,-4.63,-4.63,-4.63,-4.63,-4.63,-4.63,-4.63,-4.63,-4.6066,-4.5854,-4.5857,-4.5629,-4.5243,-4.4664,-4.4568,-4.4275,-4.3395,-4.2324,-4.1484,-4.1164,-4.1123,-4.1025,-4.073,-4.0704,-4.0352,-3.9539,-3.9452,-3.9219,-3.8633,-3.832,-3.8164,-3.8164,-3.7871,-3.7734,-3.7734,-3.7734,-3.7734,-3.7734,-3.7734,-3.7422,-3.6855,-3.6855,-3.6543,-3.5999,-3.5779,-3.5408,-3.4842,-3.4237,-3.3612,-3.3066,-3.2265,-3.1875,-3.2753,-3.3437,-3.4393,-3.615,-3.7867,-3.9195,-3.9722,-3.9556,-3.9052,-3.816,-3.8267,-3.8393,-3.8277,-3.9364,-4.0306,0.0,0.0,0.0,-4.2151,-4.2772,-4.3646,-4.4791,-4.5176,-4.5637,-4.6255,-4.6211,-4.6201,-4.6189,-4.6209,-4.6189,-4.6154,-4.6111,-4.6084,-4.6066,-4.6017,-4.6017,-4.6047,-4.6047,-4.6047,-4.6075,-4.6154,-4.6196,-4.6203,-4.6226,-4.6269,-4.63,-4.63,-4.63,-4.63,-4.63,-4.63,-4.63,-4.63,-4.63,-4.63,-4.63,-4.63,-4.63,-4.63,-4.63,-4.63,-4.63,-4.63,-4.63,-4.63,-4.63,-4.63,-4.63,-4.63,-4.63,-4.63,-4.63,-4.6128,-4.5551,-4.5202,-4.4811,-4.4245,-4.2982,-4.1966,-4.1607,-4.1289,-4.1094,-4.1101,-4.1094,-4.0893,-4.0366,-4.0322,-4.0096,-3.9551,-3.9238,-3.9062,-3.9062,-3.8769,-3.8594,-3.8594,-3.8594,-3.8594,-3.8594,-3.8594,-3.8301,-3.7754,-3.7754,-3.7461,-3.596,-3.533,-3.4686,-3.4588,-3.3319,-3.209,-3.2031,-3.1387,-3.1055,-3.1973,-3.3515,-3.5232,0.0,0.0,-3.9797,-3.9797,-3.9117,-3.8284,-3.7395,-3.7968,-3.8468,0.0,0.0,0.0,0.0,0.0,0.0,-4.2267,0.0,-4.4812,-4.4868,-4.5706,-4.6196,-4.6196,-4.6209,-4.6189,-4.6196,-4.6196,-4.6154,-4.6093,-4.6093,-4.6066,-4.5997,-4.5997,-4.5997,-4.5997,-4.5997,-4.5997,-4.6007,-4.6146,-4.6196,-4.6203,-4.6264,-4.63,-4.63,-4.63,-4.63,-4.63,-4.63,-4.63,-4.63,-4.63,-4.63,-4.63,-4.63,-4.63,-4.63,-4.63,-4.63,-4.63,-4.63,-4.63,-4.63,-4.63,-4.63,-4.63,-4.63,-4.63,-4.63,-4.63,-4.63,-4.63,-4.63,-4.5617,-4.507,-4.507,-4.4325,-4.3434,-4.2511,-4.1685,-4.1147,-4.1108,-4.1108,-4.1108,-4.1108,-4.1111,-4.1121,-4.1191,-4.043,-3.9961,-3.9961,-3.918,-3.873,-3.873,-3.873,-3.873,-3.873,-3.873,-3.8711,-3.8672,-3.8672,-3.8633,-3.5218,-3.4861,-3.4393,-3.3085,-3.2422,-3.1934,-3.1289,-3.0958,-3.1231,-3.2753,-3.3944,-3.5232,0.0,0.0,0.0,-3.9798,-3.9082,0.0,-3.8118,-3.8286,0.0,-3.8391,0.0,-4.0907,-4.0907,-4.2287,0.0,0.0,-4.4171,-4.5094,-4.5724,-4.5994,-4.6146,-4.6196,-4.6142,-4.6127,-4.613,-4.6075,-4.6037,-4.6017,-4.6017,-4.6017,-4.5997,-4.5997,-4.5997,-4.5997,-4.5997,-4.5997,-4.6007,-4.6093,-4.6154,-4.6203,-4.6226,-4.6269,-4.63,-4.63,-4.63,-4.63,-4.63,-4.63,-4.63,-4.63,-4.63,-4.63,-4.63,-4.63,-4.63,-4.63,-4.63,-4.63,-4.63,-4.63,-4.63,-4.63,-4.63,-4.63,-4.63,-4.63,-4.63,-4.63,-4.63,-4.63,-4.63,-4.6124,-4.5968,-4.5968,-4.5226,-4.4114,-4.2597,-4.2204,-4.181,-4.1166,-4.1108,-4.1108,-4.1108,-4.1099,-4.1105,-4.1129,-4.0957,-4.0879,-4.0879,-4.0664,-4.0547,-4.0547,-4.0547,-4.0547,-4.0547,-4.0547,-4.0195,-3.957,-3.957,-3.9219,-3.5394,-3.4705,-3.3886,-3.291,-3.2109,-3.1407,-3.0919,-3.0801,-3.1289,-3.3046,-3.4081,0.0,0.0,0.0,0.0,0.0,0.0,0.0,-3.7831,-3.7824,-3.7965,0.0,-3.9567,0.0,-4.0869,-4.2481,-4.351,0.0,-4.4637,-4.5551,-4.6027,-4.6084,-4.6102,-4.6102,-4.6102,-4.6084,-4.6066,-4.6017,-4.5997,-4.5997,-4.5997,-4.5997,-4.5997,-4.5997,-4.5997,-4.5997,0.0,-4.5997,-4.6007,-4.6102,-4.6181,-4.6203,-4.6231,-4.6273,-4.63,-4.63,-4.63,-4.63,-4.63,-4.63,-4.63,-4.63,-4.63,-4.63,-4.63,-4.63,-4.63,-4.63,-4.63,-4.63,-4.63,-4.63,-4.63,-4.63,-4.63,-4.63,-4.63,-4.63,-4.63,-4.63,-4.63,-4.63,-4.63,-4.63,-4.63,-4.63,-4.587,-4.509,-4.3723,-4.3216,-4.263,-4.1752,-4.1674,-4.1521,-4.1127,-4.1097,-4.1105,-4.113,-4.1171,-4.1191,-4.1191,-4.1191,-4.1191,-4.1191,-4.1191,-4.1191,-4.1191,-4.1191,-4.0957,-4.0469,-4.0469,-4.0215,-3.5862,-3.4725,-3.3534,-3.3437,-3.2265,-3.1153,-3.1153,-3.1153,-3.1602,-3.3241,0.0,-3.5018,-3.6657,-3.762,-3.8151,-3.8142,0.0,-3.7293,-3.7117,-3.7206,-3.7549,-3.8313,-3.9179,-4.0014,-4.083,-4.2481,-4.351,-4.351,-4.5045,-4.5997,-4.5997,-4.6066,-4.6066,-4.5997,-4.6066,-4.6066,-4.5997,-4.5997,-4.5997,-4.5997,-4.5997,-4.5997,-4.5997,-4.5997,-4.5997,-4.5997,-4.5997,-4.5997,-4.6007,-4.6138,-4.6196,-4.6203,-4.626,-4.63,-4.63,-4.63,-4.63,-4.63,-4.63,-4.63,-4.63,-4.63,-4.63,-4.63,-4.63,-4.63,-4.63,-4.63,-4.63,-4.63,-4.63,-4.63,-4.63,-4.63,-4.63,-4.63,-4.63,-4.63,-4.63,-4.63,-4.63,-4.63,-4.63,-4.63,-4.63,-4.63,-4.63,-4.6027,-4.5265,-4.4406,-4.3548,-4.2669,-4.2572,-4.2223,-4.1342,-4.1267,-4.1258,-4.1191,-4.1191,-4.1191,-4.1191,-4.1191,-4.1191,-4.1191,-4.1191,-4.1191,-4.1191,-4.1191,-4.1191,-4.1191,-4.1191,-4.1191,-3.5115,-3.4705,-3.4295,-3.3573,-3.3163,-3.2949,-3.2949,-3.2949,0.0,0.0,0.0,-3.3944,-3.4959,-3.5802,0.0,-3.6342,0.0,0.0,0.0,0.0,-3.8236,0.0,0.0,0.0,0.0,0.0,0.0,0.0,-4.5045,-4.5997,-4.5997,-4.6007,-4.6007,-4.5997,-4.6007,-4.6007,-4.5997,-4.5997,-4.5997,-4.5997,-4.5997,-4.5997,-4.5997,-4.5997,-4.5997,-4.5997,-4.5997,0.0,-4.6007,-4.6084,-4.6146,-4.6203,-4.6201,-4.6245,-4.63,-4.63,-4.63,-4.63,-4.63,-4.63,-4.63,-4.63,-4.63,-4.63,-4.63,-4.63,-4.63,-4.63,-4.63,-4.63,-4.63,-4.63,-4.63,-4.63,-4.63,-4.63,-4.63,-4.63,-4.63,-4.63,-4.63,-4.63,-4.63,-4.63,-4.63,-4.63,-4.63,-4.6241,-4.6085,-4.5304,-4.4445,-4.3567,-4.3469,-4.3118,-4.2259,-4.217,-4.1865,-4.1167,-4.1113,-4.1133,-4.1191,-4.1191,-4.1191,-4.1191,-4.1191,-4.1191,-4.1191,-4.1191,-4.1191,-4.1191,-4.1191,-4.1191,-3.5486,-3.5057,-3.4608,-3.4178,-3.3749,-3.3398,-3.3398,0.0,0.0,0.0,0.0,-3.4198,-3.4627,0.0,0.0,0.0,0.0,0.0,0.0,0.0,0.0,0.0,0.0,0.0,0.0,0.0,0.0,0.0,-4.5045,-4.5997,-4.5997,-4.5997,-4.5997,-4.5997,-4.5997,-4.5997,-4.5997,-4.5997,-4.5997,-4.5997,-4.5997,-4.5997,-4.5997,-4.5997,-4.5997,-4.5997,-4.5997,-4.5997,-4.6007,-4.6075,-4.613,-4.6154,-4.6189,-4.6216,-4.6245,-4.6296,-4.63,-4.63,-4.63,-4.63,-4.63,-4.63,-4.63,-4.63,-4.63,-4.63,-4.63,-4.63,-4.63,-4.63,-4.63,-4.63,-4.63,-4.63,-4.63,-4.63,-4.63,-4.63,-4.63,-4.63,-4.63,-4.63,-4.63,-4.63,-4.63,-4.63,-4.63,-4.63,-4.63,-4.5948,-4.5343,-4.4465,-4.4387,-4.4016,-4.3157,-4.3082,-4.2698,-4.1822,-4.1776,-4.1601,-4.1211,-4.1191,-4.1191,-4.1191,-4.1191,-4.1191,-4.1191,-4.1191,-4.1191,-4.1191,-4.1191,-4.1191,-3.5991,-3.5506,-3.4979,-3.4979,-3.4452,-3.3964,-3.3964,-3.3964,0.0,0.0,0.0,-3.4647,-3.4452,0.0,0.0,0.0,0.0,0.0,0.0,0.0,0.0,0.0,0.0,0.0,0.0,0.0,0.0,0.0,-4.5045,-4.5997,-4.5997,-4.5997,-4.5997,-4.5997,-4.5997,-4.5997,-4.5997,-4.5997,-4.5997,-4.5997,-4.5997,-4.5997,-4.5997,-4.5997,-4.5997,-4.5997,-4.5997,-4.5997,-4.6007,-4.6066,-4.6084,-4.6102,-4.617,-4.6195,-4.6211,-4.6269,-4.6296,-4.63,-4.63,-4.63,-4.63,-4.63,-4.63,-4.63,-4.63,-4.63,-4.63,-4.63,-4.63,-4.63,-4.63,-4.63,-4.63,-4.63,-4.63,-4.63,-4.63,-4.63,-4.63,-4.63,-4.63,-4.63,-4.63,-4.63,-4.63,-4.63,-4.63,-4.63,-4.63,-4.63,-4.6046,-4.5343,-4.5285,-4.4933,-4.4052,-4.3977,-4.3606,-4.2728,-4.2671,-4.2304,-4.1484,-4.1465,-4.1387,-4.1191,-4.1191,-4.1191,-4.1191,-4.1191,-4.1191,-4.1191,-4.1191,-4.1191,-3.5991,-3.5932,-3.5876,-3.5876,-3.5815,-3.5757,-3.5757,0.0,0.0,0.0,-3.5252,-3.4452,-3.3671,0.0,0.0,0.0,0.0,0.0,0.0,0.0,0.0,0.0,0.0,0.0,0.0,0.0,0.0,0.0,-4.5045,-4.5997,-4.5997,-4.5997,-4.5997,-4.5997,-4.5997,-4.5997,-4.5997,-4.5997,-4.5997,-4.5997,-4.5997,-4.5997,-4.5997,-4.5997,-4.5997,-4.5997,-4.5997,-4.5997,0.0,-4.6007,-4.6056,-4.6093,-4.6102,-4.6157,-4.6206,-4.6211,-4.6245,-4.63,-4.63,-4.63,-4.63,-4.63,-4.63,-4.63,-4.63,-4.63,-4.63,-4.63,-4.63,-4.63,-4.63,-4.63,-4.63,-4.63,-4.63,-4.63,-4.63,-4.63,-4.63,-4.63,-4.63,-4.63,-4.63,-4.63,-4.63,-4.63,-4.63,-4.63,-4.63,-4.63,-4.6261,-4.6183,-4.6183,-4.5831,-4.4953,-4.4875,-4.4504,-4.3642,-4.3583,-4.3181,-4.2324,-4.2285,-4.1953,-4.1211,-4.1191,-4.1191,-4.1191,-4.1191,-4.1191,-4.1191,-4.1191,-4.1191,-3.5991,-3.5991,-3.5991,-3.5991,-3.5991,-3.5991,-3.5991,0.0,0.0,-3.5991,-3.572,-3.5213,-3.4334,0.0,0.0,0.0,0.0,0.0,0.0,0.0,0.0,0.0,0.0,0.0,0.0,0.0,0.0,0.0,-4.5356,-4.5997,-4.5997,-4.5997,-4.5997,-4.5997,-4.5997,-4.5997,-4.5997,-4.5997,-4.5997,-4.5997,-4.5997,-4.5997,-4.5997,-4.5997,-4.5997,-4.5997,-4.5997,-4.5997,0.0,-4.5997,-4.6017,-4.6037,-4.6084,-4.6119,-4.613,-4.6195,-4.6216,-4.6245,-4.6296,-4.63,-4.63,-4.63,-4.63,-4.63,-4.63,-4.63,-4.63,-4.63,-4.63,-4.63,-4.63,-4.63,-4.63,-4.63,-4.63,-4.63,-4.63,-4.63,-4.63,-4.63,-4.63,-4.63,-4.63,-4.63,-4.63,-4.63,-4.63,-4.63,-4.63,-4.63,-4.63,-4.63,-4.63,-4.6163,-4.5812,-4.5773,-4.5402,-4.4543,-4.4471,-4.4089,-4.322,-4.3183,-4.3027,-4.2715,-4.2187,-4.1914,-4.1914,-4.1445,-4.1191,-4.1191,-4.1191,-4.1191,-3.5991,-3.5991,-3.5991,-3.5991,-3.5991,-3.5991,0.0,0.0,0.0,-3.5991,-3.5991,-3.574,-3.4861,-3.3983,-3.3314,0.0,0.0,0.0,0.0,0.0,0.0,0.0,0.0,0.0,0.0,0.0,0.0,0.0,-4.5394,-4.5997,-4.5997,-4.5997,-4.5997,-4.5997,-4.5997,-4.5997,-4.5997,-4.5997,-4.5997,-4.5997,-4.5997,-4.5997,-4.5997,-4.5997,-4.5997,-4.5997,-4.5997,-4.5997,0.0,-4.5997,-4.5997,-4.6007,-4.6037,-4.6084,-4.6102,-4.6144,-4.6176,-4.6211,-4.6249,-4.6277,-4.63,-4.63,-4.63,-4.63,-4.63,-4.63,-4.63,-4.63,-4.63,-4.63,-4.63,-4.63,-4.63,-4.63,-4.63,-4.63,-4.63,-4.63,-4.63,-4.63,-4.63,-4.63,-4.63,-4.63,-4.63,-4.63,-4.63,-4.63,-4.63,-4.63,-4.63,-4.63,-4.63,-4.63,-4.63,-4.63,-4.6046,-4.5421,-4.5382,-4.4995,-4.4128,-4.4077,-4.3964,-4.3711,-4.3105,-4.2773,-4.2773,-4.2226,-4.1933,-4.1933,-4.168,-4.1426,-3.5991,-3.5991,-3.5991,-3.5991,-3.5991,-3.5991,0.0,0.0,0.0,-3.5991,-3.5991,-3.574,-3.4861,-3.3983,-3.3124,-3.2246,0.0,0.0,0.0,0.0,0.0,0.0,0.0,0.0,0.0,0.0,0.0,-4.351,-4.5064,0.0,-4.5997,-4.5997,-4.5997,-4.5997,-4.5997,-4.5997,-4.5997,-4.5997,-4.5997,-4.5997,-4.5997,-4.5997,-4.5997,-4.5997,-4.5997,-4.5997,-4.5997,-4.5997,0.0,-4.5997,-4.5997,-4.5997,-4.5997,-4.6037,-4.6093,-4.6093,-4.613,-4.6206,-4.6206,-4.6245,-4.63,-4.63,-4.63,-4.63,-4.63,-4.63,-4.63,-4.63,-4.63,-4.63,-4.63,-4.63,-4.63,-4.63,-4.63,-4.63,-4.63,-4.63,-4.63,-4.63,-4.63,-4.63,-4.63,-4.63,-4.63,-4.63,-4.63,-4.63,-4.63,-4.63,-4.63,-4.63,-4.63,-4.63,-4.63,-4.63,-4.63,-4.628,-4.628,-4.5909,-4.5012,-4.4992,-4.4577,-4.3711,-4.3691,-4.3691,-4.3691,-4.3672,-4.3672,-4.3652,-4.2793,-4.1953,-3.5991,-3.5991,-3.5991,-3.5991,-3.5991,-3.5991,-3.5991,0.0,0.0,0.0,0.0,-3.5913,-3.5642,-3.4393,-3.3319,-3.3027,-3.3222,0.0,0.0,0.0,0.0,0.0,0.0,0.0,0.0,0.0,0.0,-4.3471,-4.454,-4.5414,-4.5958,-4.5997,-4.5997,-4.5997,-4.5997,-4.5997,-4.5997,-4.5997,-4.5997,-4.5997,-4.5997,-4.5997,-4.5997,-4.5997,-4.5997,-4.5997,-4.5997,-4.5997,-4.5997,-4.5997,-4.5997,-4.5997,-4.5997,-4.6007,-4.6027,-4.6084,-4.6111,-4.6142,-4.6176,-4.6211,-4.624,-4.6296,-4.63,-4.63,-4.63,-4.63,-4.63,-4.63,-4.63,-4.63,-4.63,-4.63,-4.63,-4.63,-4.63,-4.63,-4.63,-4.63,-4.63,-4.63,-4.63,-4.63,-4.63,-4.63,-4.63,-4.63,-4.63,-4.63,-4.63,-4.63,-4.63,-4.63,-4.63,-4.63,-4.63,-4.63,-4.63,-4.63,-4.63,-4.6183,-4.5909,-4.589,-4.576,-4.5475,-4.4881,-4.459,-4.459,-4.3984,-4.3691,-4.3691,-4.3418,-4.3144,0.0,-3.5996,-3.5991,-3.5991,-3.5991,0.0,0.0,0.0,0.0,0.0,0.0,0.0,-3.5991,-3.4588,-3.3398,-3.3398,-3.3398,0.0,0.0,0.0,0.0,0.0,0.0,0.0,0.0,0.0,0.0,-4.2936,-4.3791,-4.4676,-4.5491,-4.555,-4.5686,-4.5977,-4.5997,-4.5997,-4.5997,-4.5997,-4.5997,-4.5997,-4.5997,-4.5997,-4.5997,-4.5997,-4.5997,-4.5997,-4.5997,-4.5997,0.0,-4.5997,-4.5997,-4.5997,-4.5997,-4.5997,-4.6007,-4.6056,-4.6084,-4.6102,-4.6157,-4.6189,-4.6211,-4.6245,-4.6277,-4.63,-4.63,-4.63,-4.63,-4.63,-4.63,-4.63,-4.63,-4.63,-4.63,-4.63,-4.63,-4.63,-4.63,-4.63,-4.63,-4.63,-4.63,-4.63,-4.63,-4.63,-4.63,-4.63,-4.63,-4.63,-4.63,-4.63,-4.63,-4.63,-4.63,-4.63,-4.63,-4.63,-4.63,-4.63,-4.63,-4.63,-4.63,-4.63,-4.63,-4.63,-4.5772,-4.5486,-4.5488,-4.4941,-4.4512,-4.4199,-4.4199,-4.4004,0.0,0.0,0.0,0.0,0.0,0.0,0.0,0.0,0.0,0.0,0.0,0.0,0.0,-3.4588,-3.3417,-3.3476,-3.3437,0.0,0.0,0.0,0.0,0.0,0.0,0.0,0.0,0.0,-4.2039,-4.2108,-4.2927,-4.3782,-4.4666,-4.4705,-4.5055,-4.5793,-4.5822,-4.588,-4.5997,-4.5997,-4.5997,-4.5997,-4.5997,-4.5997,-4.5997,-4.5997,-4.5997,0.0,-4.5997,-4.5997,-4.5997,-4.5997,-4.5997,-4.5997,-4.5997,-4.5997,-4.5997,-4.5997,-4.6027,-4.6093,-4.6093,-4.615,-4.6181,-4.6206,-4.624,-4.6296,-4.6296,-4.63,-4.63,-4.63,-4.63,-4.63,-4.63,-4.63,-4.63,-4.63,-4.63,-4.63,-4.63,-4.63,-4.63,-4.63,-4.63,-4.63,-4.63,-4.63,-4.63,-4.63,-4.63,-4.63,-4.63,-4.63,-4.63,-4.63,-4.63,-4.63,-4.63,-4.63,-4.63,-4.63,-4.63,-4.63,-4.63,-4.63,-4.63,-4.63,-4.63,-4.6295,-4.6308,-4.6308,-4.5879,-4.5098,-4.5098,-4.4668,-3.5762,0.0,-3.5994,-3.6009,0.0,0.0,0.0,0.0,0.0,0.0,0.0,0.0,0.0,0.0,0.0,0.0,0.0,0.0,0.0,0.0,0.0,0.0,0.0,0.0,0.0,0.0,-4.1361,-4.219,-4.2401,-4.2907,-4.3822,-4.3836,-4.3888,-4.4083,-4.4093,-4.4695,-4.5977,-4.5997,-4.5997,-4.5997,-4.5997,-4.5997,-4.5997,-4.5997,-4.5997,-4.5997,-4.5997,-4.5997,-4.5997,-4.5997,-4.5997,-4.5997,-4.5997,-4.5997,-4.5997,-4.5997,-4.6007,-4.6027,-4.6084,-4.6111,-4.6135,-4.6176,-4.6215,-4.6228,-4.6211,-4.6269,-4.63,-4.63,-4.63,-4.63,-4.63,-4.63,-4.63,-4.63,-4.63,-4.63,-4.63,-4.63,-4.63,-4.63,-4.63,-4.63,-4.63,-4.63,-4.63,-4.63,-4.63,-4.63,-4.63,-4.63,-4.63,-4.63,-4.63,-4.63,-4.63,-4.63,-4.63,-4.63,-4.63,-4.63,-4.63,-4.63,-4.63,-4.63,-4.63,-4.6295,-4.6308,-4.6308,-4.6191,-4.5996,-4.5996,-4.5879,-3.5176,-3.5703,-3.5996,-3.5995,-3.5995,-3.5995,0.0,0.0,0.0,0.0,0.0,0.0,0.0,0.0,0.0,0.0,0.0,0.0,0.0,0.0,0.0,0.0,0.0,0.0,0.0,0.0,-4.088,-4.148,-4.1558,-4.2004,-4.2902,-4.2957,-4.314,-4.353,-4.3527,-4.3938,-4.4831,-4.5239,-4.5453,-4.5453,-4.5822,-4.5997,-4.5997,-4.5997,-4.5997,-4.5997,-4.5997,-4.5997,-4.5997,-4.5997,-4.5997,-4.5997,-4.5997,-4.5997,-4.5997,-4.5997,-4.5997,-4.6007,-4.6037,-4.6075,-4.6111,-4.619,-4.6196,-4.6203,-4.6203,-4.624,-4.625,-4.6245,-4.6249,-4.6269,-4.63,-4.63,-4.63,-4.63,-4.63,-4.63,-4.63,-4.63,-4.63,-4.63,-4.63,-4.63,-4.63,-4.63,-4.63,-4.63,-4.63,-4.63,-4.63,-4.63,-4.63,-4.63,-4.63,-4.63,-4.63,-4.63,-4.63,-4.63,-4.63,-4.63,-4.63,-4.63,-4.63,-4.63,-4.63,-4.6309,-4.6303,-4.6306,-4.6308,-4.6308,-4.6308,-4.6308,-3.4453,-3.5332,-3.5996,-3.5996,-3.5996,-3.5996,0.0,0.0,0.0,0.0,0.0,0.0,0.0,0.0,0.0,0.0,0.0,0.0,0.0,0.0,0.0,0.0,0.0,0.0,0.0,-4.0097,-4.0588,-4.0642,-4.0776,-4.1209,-4.1975,-4.2062,-4.2429,-4.3202,-4.314,-4.3119,-4.3122,-4.4103,-4.4598,-4.4617,-4.5297,-4.5608,-4.5608,-4.5608,-4.5608,-4.5608,0.0,0.0,-4.5822,-4.5822,-4.588,-4.5997,-4.5997,-4.5997,-4.5997,-4.5997,-4.5997,-4.5997,-4.5997,-4.6027,-4.6093,-4.6154,-4.6189,-4.6162,-4.6189,-4.6189,-4.6169,-4.6183,-4.6181,-4.6211,-4.6273,-4.63,-4.63,-4.63,-4.63,-4.63,-4.63,-4.63,-4.63,-4.63,-4.63,-4.63,-4.63,-4.63,-4.63,-4.63,-4.63,-4.63,-4.63,-4.63,-4.63,-4.63,-4.63,-4.63,-4.63,-4.63,-4.63,-4.63,-4.63,-4.63,-4.63,-4.63,-4.63,-4.63,-4.63,-4.63,-4.63,-4.6295,-4.6303,-4.6308,-4.6308,-4.6308,-3.4453,-3.5332,-3.5996,-3.5996,-3.5996,-3.5996,0.0,0.0,0.0,0.0,0.0,0.0,0.0,0.0,0.0,0.0,0.0,0.0,0.0,0.0,0.0,0.0,0.0,0.0,-3.9451,-4.014,-4.0582,-4.0761,-4.0746,-4.0848,-4.1162,-4.1135,-4.1227,-4.1476,-4.1428,-4.139,-4.1383,-4.2926,-4.3704,-4.3704,-4.3821,-4.3879,-4.3879,-4.3879,-4.3879,-4.3879,0.0,-4.4307,-4.4986,-4.4986,-4.5394,-4.5997,-4.5997,-4.5997,-4.5997,-4.5997,-4.5997,-4.5997,-4.5997,-4.6007,-4.6017,-4.6093,-4.6075,-4.6037,-4.6093,-4.6075,-4.6037,-4.6102,-4.6164,-4.6206,-4.6211,-4.6269,-4.63,-4.63,-4.63,-4.63,-4.63,-4.63,-4.63,-4.63,-4.63,-4.63,-4.63,-4.63,-4.63,-4.63,-4.63,-4.63,-4.63,-4.63,-4.63,-4.63,-4.63,-4.63,-4.63,-4.63,-4.63,-4.63,-4.63,-4.63,-4.63,-4.63,-4.63,-4.63,-4.63,-4.63,-4.63,-4.6303,-4.6306,-4.6309,-4.6307,-4.6308,-3.3887,-3.498,-3.5996,-3.5996,-3.5996,-3.5996,0.0,0.0,0.0,0.0,0.0,0.0,0.0,0.0,0.0,0.0,0.0,0.0,0.0,0.0,0.0,0.0,0.0,-3.8428,-3.9347,-4.0146,-4.0629,-4.0642,-4.0715,-4.077,-4.083,-4.0953,-4.0994,-4.0987,-4.1007,-4.0994,-4.0994,-4.1758,-4.2388,-4.2868,-4.3296,-4.3491,-4.351,-4.351,-4.351,-4.351,0.0,-4.3724,-4.4093,-4.4093,-4.4326,-4.4695,-4.5161,-4.5356,-4.5394,-4.5841,-4.5997,-4.5997,-4.5997,-4.5997,-4.6007,-4.6047,-4.6017,-4.6007,-4.6047,-4.6017,-4.6007,-4.6027,-4.6091,-4.6144,-4.6201,-4.6216,-4.6269,-4.6296,-4.63,-4.63,-4.63,-4.63,-4.63,-4.63,-4.63,-4.63,-4.63,-4.63,-4.63,-4.63,-4.63,-4.63,-4.63,-4.63,-4.63,-4.63,-4.63,-4.63,-4.63,-4.63,-4.63,-4.63,-4.63,-4.63,-4.63,-4.63,-4.63,-4.63,-4.63,-4.63,-4.63,-4.63,-4.63,-4.63,-4.6295,-4.6306,-3.3398,-3.4668,-3.5996,-3.5996,0.0,0.0,0.0,0.0,0.0,0.0,0.0,0.0,0.0,0.0,0.0,0.0,0.0,0.0,0.0,0.0,0.0,0.0,-3.7889,-3.8694,-3.9309,-4.0178,-4.0687,-4.0568,-4.0718,-4.0781,-4.0768,-4.0953,-4.1019,-4.0948,-4.0981,-4.0994,-4.0994,-4.0994,-4.1351,-4.2004,-4.2619,-4.2905,-4.2908,-4.2908,-4.2918,-4.2889,-4.2889,-4.3005,-4.3199,-4.3199,-4.3316,-4.3569,-4.4229,-4.4617,-4.487,-4.5491,-4.5841,-4.5997,-4.5997,-4.5997,-4.5997,-4.5997,-4.5997,-4.5997,-4.5997,-4.5997,-4.6007,-4.6017,-4.6066,-4.6111,-4.6183,-4.6201,-4.6216,-4.6277,-4.63,-4.63,-4.63,-4.63,-4.63,-4.63,-4.63,-4.63,-4.63,-4.63,-4.63,-4.63,-4.63,-4.63,-4.63,-4.63,-4.63,-4.63,-4.63,-4.63,-4.63,-4.63,-4.63,-4.63,-4.63,-4.63,-4.63,-4.63,-4.63,-4.63,-4.63,-4.63,-4.63,-4.63,-4.63,-4.63,-4.63,-4.6295,-3.3398,-3.4668,-3.5996,-3.5996,0.0,0.0,0.0,0.0,0.0,0.0,0.0,0.0,0.0,0.0,0.0,0.0,0.0,0.0,0.0,0.0,0.0,-3.8285,-3.8965,-3.95,-3.9568,-4.0315,-4.0791,-4.0791,-4.0781,-4.0846,-4.0974,-4.094,-4.0974,-4.1086,-4.1025,-4.0994,-4.0994,-4.0994,-4.1026,-4.1085,-4.1143,-4.1181,-4.1182,-4.1182,-4.1146,-4.1082,-4.1082,-4.1548,-4.2287,-4.2287,-4.2772,-4.351,-4.3569,-4.4093,-4.4812,-4.487,-4.5356,-4.5997,-4.5997,-4.5997,-4.5997,-4.5997,-4.5997,-4.5997,-4.5997,-4.5997,-4.6007,-4.6075,-4.6093,-4.613,-4.6169,-4.6209,-4.6216,-4.6277,-4.63,-4.63,-4.63,-4.63,-4.63,-4.63,-4.63,-4.63,-4.63,-4.63,-4.63,-4.63,-4.63,-4.63,-4.63,-4.63,-4.63,-4.63,-4.63,-4.63,-4.63,-4.63,-4.63,-4.63,-4.63,-4.63,-4.63,-4.63,-4.63,-4.63,-4.63,-4.63,-4.63,-4.63,-4.63,-4.63,-4.63,-4.6303,-3.3398,-3.4668,-3.5996,-3.5996,0.0,0.0,0.0,0.0,0.0,0.0,0.0,0.0,0.0,0.0,0.0,0.0,0.0,0.0,0.0,0.0,-3.9479,-3.9149,-3.9431,-3.9828,-4.0295,-4.0707,-4.089,-4.081,-4.0882,-4.0906,-4.0882,-4.0974,-4.1013,-4.0981,-4.0987,-4.0994,-4.0994,-4.0994,-4.0994,-4.0994,-4.1006,-4.0976,-4.0935,-4.0935,-4.0926,-4.0907,-4.0907,-4.1082,-4.1393,-4.1393,-4.1587,-4.1937,-4.2481,-4.3219,-4.4054,-4.4598,-4.4986,-4.5336,-4.5822,-4.5997,-4.5997,-4.5997,-4.5997,-4.5997,-4.5997,-4.5997,-4.6007,-4.6084,-4.6093,-4.6111,-4.6177,-4.6201,-4.6216,-4.6277,-4.63,-4.63,-4.63,-4.63,-4.63,-4.63,-4.63,-4.63,-4.63,-4.63,-4.63,-4.63,-4.63,-4.63,-4.63,-4.63,-4.63,-4.63,-4.63,-4.63,-4.63,-4.63,-4.63,-4.63,-4.63,-4.63,-4.63,-4.63,-4.63,-4.63,-4.63,-4.63,-4.63,-4.63,-4.63,-4.63,-4.63,-4.63,-3.3398,-3.4668,-3.5996,0.0,0.0,0.0,0.0,0.0,0.0,0.0,0.0,0.0,0.0,0.0,0.0,0.0,0.0,0.0,0.0,-3.9727,-4.0064,-4.0064,-4.0109,-4.0329,-4.0843,-4.098,-4.0986,-4.0901,-4.098,-4.0986,-4.0901,-4.1031,-4.1056,-4.0974,-4.0987,-4.0994,-4.0994,-4.1,-4.0993,-4.0993,-4.0976,-4.0963,-4.0926,-4.0926,-4.0926,-4.0907,-4.0907,-4.0907,-4.0907,-4.0907,-4.0907,-4.0966,-4.1568,-4.2325,-4.3161,-4.3763,-4.4151,-4.4501,-4.5336,-4.5608,-4.5666,-4.5919,-4.5997,-4.5997,-4.5997,-4.5997,-4.6007,-4.6084,-4.613,-4.6135,-4.6195,-4.6206,-4.6216,-4.6277,-4.63,-4.63,-4.63,-4.63,-4.63,-4.63,-4.63,-4.63,-4.63,-4.63,-4.63,-4.63,-4.63,-4.63,-4.63,-4.63,-4.63,-4.63,-4.63,-4.63,-4.63,-4.63,-4.63,-4.63,-4.63,-4.63,-4.63,-4.63,-4.63,-4.63,-4.63,-4.63,-4.63,-4.63,-4.63,-4.63,-4.63,-4.63,-3.3398,-3.4668,0.0,0.0,0.0,0.0,0.0,0.0,0.0,0.0,0.0,0.0,0.0,0.0,0.0,0.0,0.0,0.0,-4.0854,-4.1088,-4.1108,-4.1108,-4.1108,-4.1108,-4.1088,-4.1088,-4.1088,-4.1088,-4.1088,-4.1088,-4.1088,-4.109,-4.1076,-4.1076,-4.1006,-4.0974,-4.0974,-4.0972,-4.0976,-4.0976,-4.0906,-4.0915,-4.0996,-4.0996,-4.0952,-4.0907,-4.0907,-4.0907,-4.0907,-4.0907,-4.0907,-4.0907,-4.0907,-4.1432,-4.2189,-4.2189,-4.2753,-4.3607,-4.4481,-4.4792,-4.4928,-4.5725,-4.5977,-4.5977,-4.5997,-4.5997,-4.6007,-4.6084,-4.6146,-4.6203,-4.6201,-4.6206,-4.6216,-4.6277,-4.63,-4.63,-4.63,-4.63,-4.63,-4.63,-4.63,-4.63,-4.63,-4.63,-4.63,-4.63,-4.63,-4.63,-4.63,-4.63,-4.63,-4.63,-4.63,-4.63,-4.63,-4.63,-4.63,-4.63,-4.63,-4.63,-4.63,-4.63,-4.63,-4.63,-4.63,-4.63,-4.63,-4.63,-4.63,-4.63,-4.63,-4.63,-3.3398,0.0,0.0,0.0,0.0,0.0,0.0,0.0,0.0,0.0,0.0,0.0,0.0,0.0,0.0,-3.6099,-3.7633,-3.898,-4.0034,-4.0717,-4.1108,-4.1108,-4.1108,-4.0854,-4.0249,-4.019,-3.9956,-3.937,-3.9334,-3.9334,-3.9334,-3.9348,-3.9345,-3.9345,-3.9282,-3.9238,-3.924,-3.914,-3.9082,-3.9024,-3.8952,-3.9635,-4.0926,-4.0926,-4.0917,-4.0907,-4.0907,-4.0907,-4.0907,-4.0907,-4.0907,-4.0907,-4.0907,-4.1063,-4.1354,-4.1976,-4.2364,-4.2714,-4.3588,-4.3899,-4.4035,-4.487,-4.5161,-4.5258,-4.5822,-4.5997,-4.6007,-4.6084,-4.6102,-4.6135,-4.6195,-4.6206,-4.6216,-4.6277,-4.63,-4.63,-4.63,-4.63,-4.63,-4.63,-4.63,-4.63,-4.63,-4.63,-4.63,-4.63,-4.63,-4.63,-4.63,-4.63,-4.63,-4.63,-4.63,-4.63,-4.63,-4.63,-4.63,-4.63,-4.63,-4.63,-4.63,-4.63,-4.63,-4.63,-4.63,-4.63,-4.63,-4.63,-4.63,-4.63,-4.63,-4.63,-3.3828,0.0,0.0,0.0,0.0,0.0,0.0,0.0,0.0,0.0,0.0,0.0,0.0,0.0,0.0,-3.531,-3.6947,-3.8375,-3.9214,-3.978,-4.0112,-4.0112,-4.0112,-3.9897,-3.937,-3.9312,-3.9117,-3.8632,-3.8593,-3.8593,-3.8593,-3.8593,-3.8593,-3.8593,-3.8561,-3.8545,-3.8536,-3.8403,-3.8313,-3.8268,-3.8175,-3.8725,-3.9809,-4.0179,-4.0374,-4.0441,-4.0752,-4.0907,-4.0907,-4.0907,-4.0907,-4.0907,-4.0907,-4.0907,-4.0966,-4.149,-4.1684,-4.1801,-4.2675,-4.2996,-4.317,-4.4006,-4.4278,-4.4443,-4.5269,-4.5511,-4.5599,-4.5959,-4.6084,-4.6111,-4.6157,-4.6177,-4.622,-4.6273,-4.63,-4.63,-4.63,-4.63,-4.63,-4.63,-4.63,-4.63,-4.63,-4.63,-4.63,-4.63,-4.63,-4.63,-4.63,-4.63,-4.63,-4.63,-4.63,-4.63,-4.63,-4.63,-4.63,-4.63,-4.63,-4.63,-4.63,-4.63,-4.63,-4.63,-4.63,-4.63,-4.63,-4.63,-4.63,-4.63,-4.63,-4.63,0.0,0.0,0.0,0.0,0.0,0.0,0.0,0.0,0.0,0.0,0.0,0.0,0.0,0.0,0.0,-3.4566,-3.6033,-3.7497,-3.8355,-3.8553,-3.8593,-3.8593,-3.8593,-3.8573,-3.8495,-3.8475,-3.8456,-3.8375,-3.8355,-3.8355,-3.8355,-3.8355,-3.8355,-3.8355,-3.8355,-3.8352,-3.8346,-3.8215,-3.814,-3.8132,-3.8014,-3.7924,-3.788,-3.893,-3.9499,-3.9742,-4.048,-4.083,-4.0907,-4.0907,-4.0907,-4.0907,-4.0907,-4.0907,-4.0907,-4.0907,-4.0907,-4.1005,-4.1801,-4.212,-4.2302,-4.3112,-4.3384,-4.3547,-4.4414,-4.4676,-4.4851,-4.5657,-4.593,-4.6005,-4.6091,-4.6154,-4.6222,-4.6273,-4.63,-4.63,-4.63,-4.63,-4.63,-4.63,-4.63,-4.63,-4.63,-4.63,-4.63,-4.63,-4.63,-4.63,-4.63,-4.63,-4.63,-4.63,-4.63,-4.63,-4.63,-4.63,-4.63,-4.63,-4.63,-4.63,-4.63,-4.63,-4.63,-4.63,-4.63,-4.63,-4.63,-4.63,-4.63,-4.63,-4.63,-4.63,0.0,0.0,0.0,0.0,0.0,0.0,0.0,0.0,0.0,0.0,0.0,0.0,0.0,0.0,-3.289,-3.3571,-3.5132,-3.6579,-3.7458,-3.816,-3.8593,-3.8593,-3.8593,-3.8336,-3.7653,-3.7575,-3.7301,-3.6618,-3.656,-3.656,-3.656,-3.656,-3.6534,-3.6481,-3.6481,-3.6431,-3.6316,-3.623,-3.6151,-3.6048,-3.596,-3.594,-3.6042,-3.7777,-3.8966,-3.9703,-3.9878,-4.0325,-4.0907,-4.0907,-4.0907,-4.0907,-4.0907,-4.0907,-4.0907,-4.0907,-4.0907,-4.0927,-4.1102,-4.1189,-4.1353,-4.2199,-4.2471,-4.2636,-4.351,-4.3782,-4.3967,-4.4821,-4.5073,-4.5254,-4.6001,-4.6195,-4.6226,-4.6277,-4.6269,-4.624,-4.6296,-4.63,-4.63,-4.63,-4.63,-4.63,-4.63,-4.63,-4.63,-4.63,-4.63,-4.63,-4.63,-4.63,-4.63,-4.63,-4.63,-4.63,-4.63,-4.63,-4.63,-4.63,-4.63,-4.63,-4.63,-4.63,-4.63,-4.63,-4.63,-4.63,-4.63,-4.63,-4.63,-4.63,-4.63,-4.63,0.0,0.0,0.0,0.0,0.0,0.0,0.0,0.0,0.0,0.0,0.0,0.0,0.0,0.0,-3.2246,-3.2695,-3.4237,-3.5545,-3.5994,-3.6813,-3.736,-3.736,-3.736,-3.7184,-3.6716,-3.6677,-3.6482,-3.603,-3.5991,-3.5991,-3.5991,-3.5965,-3.5939,-3.5908,-3.588,-3.5814,-3.5741,-3.5611,-3.5519,-3.5457,-3.535,-3.533,-3.5443,-3.6972,-3.8181,-3.9082,-3.9082,-3.9548,-4.0325,-4.0325,-4.0558,-4.0907,-4.0907,-4.0907,-4.0907,-4.0907,-4.0907,-4.0907,-4.0907,-4.0926,-4.1012,-4.1441,-4.1604,-4.1785,-4.2654,-4.2935,-4.3116,-4.3977,-4.4238,-4.4343,-4.4832,-4.5267,-4.5585,-4.5616,-4.5952,-4.6269,-4.63,-4.63,-4.63,-4.63,-4.63,-4.63,-4.63,-4.63,-4.63,-4.63,-4.63,-4.63,-4.63,-4.63,-4.63,-4.63,-4.63,-4.63,-4.63,-4.63,-4.63,-4.63,-4.63,-4.63,-4.63,-4.63,-4.63,-4.63,-4.63,-4.63,-4.63,-4.63,-4.63,-4.63,-4.63,-4.6306,0.0,0.0,0.0,0.0,0.0,0.0,0.0,0.0,0.0,0.0,0.0,0.0,0.0,-3.1524,-3.1914,-3.207,-3.33,-3.4354,-3.4666,-3.533,-3.5837,-3.5971,-3.5991,-3.5991,-3.5991,-3.5991,-3.5991,-3.5991,-3.5991,-3.5991,-3.5988,-3.5935,-3.5903,-3.5895,-3.5827,-3.5776,-3.576,-3.5577,-3.5457,-3.5445,-3.534,-3.5345,-3.543,-3.6319,-3.724,-3.814,-3.8177,-3.8663,-3.9489,-3.9645,-4.0092,-4.0713,-4.0849,-4.0907,-4.0907,-4.0907,-4.0907,-4.0907,-4.0907,-4.0935,-4.098,-4.0917,-4.0941,-4.1123,-4.186,-4.2089,-4.2253,-4.3137,-4.3397,-4.3436,-4.3578,-4.4143,-4.4695,-4.4685,-4.541,-4.6124,-4.6261,-4.63,-4.63,-4.63,-4.63,-4.63,-4.63,-4.63,-4.63,-4.63,-4.63,-4.63,-4.63,-4.63,-4.63,-4.63,-4.63,-4.63,-4.63,-4.63,-4.63,-4.63,-4.63,-4.63,-4.63,-4.63,-4.63,-4.63,-4.63,-4.63,-4.63,-4.63,-4.63,-4.63,-4.63,-4.6293,0.0,0.0,0.0,0.0,0.0,0.0,0.0,0.0,0.0,0.0,0.0,0.0,-3.2129,-3.1407,-3.1211,-3.1973,-3.2304,-3.2968,-3.4491,-3.4803,-3.5154,-3.5916,-3.5991,-3.5991,-3.5991,-3.5991,-3.5991,-3.5991,-3.5991,-3.5968,-3.5912,-3.5908,-3.5909,-3.5898,-3.5776,-3.566,-3.5543,-3.5457,-3.5364,-3.5239,-3.5273,-3.5339,-3.5393,-3.5553,-3.6168,-3.7113,-3.7214,-3.7774,-3.8635,-3.9392,-3.9761,-3.9936,-4.0635,-4.0907,-4.0907,-4.0907,-4.0907,-4.0907,-4.0907,-4.0907,-4.0917,-4.0907,-4.0917,-4.0954,-4.1124,-4.1171,-4.1369,-4.2304,-4.2554,-4.2734,-4.3498,-4.3775,-4.3853,-4.3856,-4.452,-4.5382,-4.6144,-4.63,-4.63,-4.63,-4.63,-4.63,-4.63,-4.63,-4.63,-4.63,-4.63,-4.63,-4.63,-4.63,-4.63,-4.63,-4.63,-4.63,-4.63,-4.63,-4.63,-4.63,-4.63,-4.63,-4.63,-4.63,-4.63,-4.63,-4.63,-4.63,-4.63,-4.63,-4.63,-4.63,-4.63,-4.6293,0.0,0.0,0.0,0.0,0.0,0.0,0.0,0.0,0.0,0.0,0.0,0.0,-3.2988,-3.2129,-3.1641,-3.2031,-3.2519,-3.3105,-3.3866,-3.4803,-3.5564,-3.5952,-3.5991,-3.5991,-3.5991,-3.5991,-3.5988,-3.5958,-3.5939,-3.5931,-3.5909,-3.5894,-3.5897,-3.5911,-3.5771,-3.5649,-3.5554,-3.5443,-3.5335,-3.5209,-3.5226,-3.5258,-3.5289,-3.5364,-3.57,-3.6241,-3.629,-3.683,-3.7702,-3.8091,-3.8829,-3.9742,-4.0092,-4.0499,-4.0907,-4.0907,-4.0907,-4.0907,-4.0907,-4.0907,-4.0907,-4.0907,-4.0926,-4.0952,-4.0999,-4.102,-4.1142,-4.1554,-4.1663,-4.1761,-4.2142,-4.2611,-4.2962,-4.2962,-4.3645,-4.4387,-4.4758,-4.5617,-4.63,-4.63,-4.63,-4.63,-4.63,-4.63,-4.63,-4.63,-4.63,-4.63,-4.63,-4.63,-4.63,-4.63,-4.63,-4.63,-4.63,-4.63,-4.63,-4.63,-4.63,-4.63,-4.63,-4.63,-4.63,-4.63,-4.63,-4.63,-4.63,-4.63,-4.63,-4.63,-4.63,-4.628,0.0,0.0,0.0,0.0,0.0,0.0,0.0,0.0,0.0,0.0,0.0,-3.4822,-3.4178,-3.3163,-3.2363,-3.2148,-3.2831,-3.3398,-3.3398,-3.4705,-3.5759,-3.5971,-3.5991,-3.5991,-3.5991,-3.5991,-3.5965,-3.5908,-3.5908,-3.5895,-3.5903,-3.5905,-3.5898,-3.5885,-3.5763,-3.5669,-3.5637,-3.5489,-3.5335,-3.5209,-3.5209,-3.5209,-3.519,-3.5288,-3.547,-3.5657,-3.5698,-3.6115,-3.6789,-3.7003,-3.7877,-3.9062,-3.9276,-3.9742,-4.0286,-4.0509,-4.0595,-4.0634,-4.0837,-4.0935,-4.0926,-4.0926,-4.0971,-4.1003,-4.1006,-4.1045,-4.1096,-4.1097,-4.1104,-4.1108,-4.1108,-4.1576,-4.2064,-4.2064,-4.2747,-4.3489,-4.3938,-4.5051,-4.6046,-4.6261,-4.63,-4.63,-4.63,-4.63,-4.63,-4.63,-4.63,-4.63,-4.63,-4.63,-4.63,-4.63,-4.63,-4.63,-4.63,-4.63,-4.63,-4.63,-4.63,-4.63,-4.63,-4.63,-4.6202,-4.5968,-4.5968,-4.6085,-4.63,-4.63,-4.63,-4.628,-4.6066,-4.595,0.0,0.0,0.0,0.0,0.0,0.0,0.0,0.0,0.0,0.0,0.0,-3.5913,-3.5874,-3.4491,-3.3066,-3.2226,-3.2831,-3.3398,-3.3398,-3.4198,-3.5076,-3.5896,-3.5991,-3.5991,-3.5991,-3.5991,-3.5965,-3.5908,-3.5908,-3.5904,-3.5905,-3.5891,-3.5879,-3.5807,-3.5735,-3.5698,-3.5688,-3.5502,-3.5335,-3.5209,-3.5209,-3.5209,-3.5209,-3.5226,-3.5326,-3.5519,-3.565,-3.5754,-3.5935,-3.677,-3.7159,-3.7314,-3.813,-3.8479,-3.8624,-3.9463,-3.9762,-3.9887,-4.0701,-4.0986,-4.0988,-4.0988,-4.0996,-4.0996,-4.0996,-4.1046,-4.1096,-4.1096,-4.1094,-4.1108,-4.1108,-4.1127,-4.1166,-4.1166,-4.183,-4.2923,-4.4582,-4.4992,-4.5304,-4.6144,-4.63,-4.63,-4.63,-4.63,-4.63,-4.63,-4.63,-4.63,-4.63,-4.63,-4.63,-4.63,-4.63,-4.63,-4.63,-4.63,-4.63,-4.63,-4.63,-4.63,-4.63,-4.63,-4.5909,-4.509,-4.507,-4.548,-4.63,-4.63,-4.63,-4.628,-4.5441,-4.5063,0.0,0.0,0.0,0.0,0.0,0.0,0.0,0.0,0.0,0.0,-3.5991,-3.5991,-3.5991,-3.5037,-3.4139,-3.3827,-3.4022,-3.4237,-3.4237,-3.4979,-3.5636,-3.59,-3.5939,-3.5939,-3.5939,-3.5939,-3.5927,-3.5904,-3.5904,-3.5878,-3.5842,-3.583,-3.5838,-3.5857,-3.5807,-3.5736,-3.5707,-3.5581,-3.5489,-3.5378,-3.5378,-3.5378,-3.5378,-3.5378,-3.5477,-3.5626,-3.5679,-3.5747,-3.5818,-3.6148,-3.6595,-3.7139,-3.743,-3.7916,-3.8449,-3.8743,-3.8875,-3.8992,-3.987,-4.0163,-4.0253,-4.0818,-4.0993,-4.1013,-4.1058,-4.1045,-4.1037,-4.109,-4.1094,-4.1094,-4.1104,-4.1108,-4.1108,-4.1108,-4.1342,-4.1888,-4.3079,-4.3762,-4.4426,-4.5304,-4.548,-4.5636,-4.6202,-4.63,-4.63,-4.63,-4.63,-4.6105,-4.5539,-4.548,-4.5246,-4.468,-4.4621,-4.4621,-4.4621,-4.4621,-4.4621,-4.4621,-4.4621,-4.4621,-4.4621,-4.4621,-4.4484,-4.4172,-4.4172,-4.4328,-4.4621,-4.4621,-4.4621,-4.4621,-4.4309,-4.4167,0.0,0.0,0.0,0.0,0.0,0.0,0.0,0.0,0.0,0.0,-3.5991,-3.5991,-3.5991,-3.5525,-3.5037,-3.4744,-3.4937,-3.5009,-3.4736,-3.5435,-3.5951,-3.5919,-3.5895,-3.5895,-3.5895,-3.5895,-3.5904,-3.5897,-3.5897,0.0,-3.5799,-3.5807,-3.585,-3.5898,-3.5857,-3.5791,-3.5699,-3.5679,-3.563,-3.5535,-3.5543,-3.5531,-3.5531,-3.5507,-3.5574,-3.5707,-3.5707,-3.5728,-3.5799,-3.5799,-3.6148,-3.6653,-3.6653,-3.7023,-3.7556,-3.7868,-3.7987,-3.8118,-3.8993,-3.9485,-3.9836,-4.0401,-4.0791,-4.105,-4.1056,-4.1042,-4.1047,-4.1094,-4.1094,-4.109,-4.1104,-4.1108,-4.1108,-4.1108,-4.1108,-4.1264,-4.1849,-4.265,-4.3528,-4.4387,-4.4563,-4.4758,-4.5324,-4.5421,-4.5421,-4.5421,-4.5421,-4.5226,-4.4641,-4.4563,-4.4348,-4.3762,-4.3704,-4.3704,-4.3704,-4.3704,-4.3704,-4.3704,-4.3704,-4.3704,-4.3704,-4.3704,-4.3567,-4.3274,-4.3255,-4.3118,-4.2825,-4.3411,-4.3704,-4.3684,-4.3391,-4.3112,0.0,0.0,0.0,0.0,0.0,0.0,0.0,0.0,0.0,0.0,-3.5994,-3.5991,-3.5991,-3.5991,-3.572,-3.4881,-3.5392,-3.5635,-3.4854,-3.5403,-3.5889,-3.5908,-3.5908,-3.5908,-3.5908,-3.5908,-3.5897,-3.5905,-3.5905,-3.5864,-3.5799,-3.5857,-3.5905,-3.5905,-3.5905,-3.5838,-3.5706,-3.5776,-3.5749,-3.5611,-3.56,-3.5618,-3.5618,-3.5543,-3.5574,-3.5688,-3.5688,-3.5737,-3.5799,-3.5799,-3.5799,-3.5799,-3.5799,-3.5799,-3.5896,-3.674,-3.7112,-3.7297,-3.8161,-3.9028,-3.9731,-3.975,-4.0355,-4.1052,-4.0986,-4.1037,-4.1104,-4.11,-4.1094,-4.1108,-4.1108,-4.1108,-4.1108,-4.1108,-4.1108,-4.1108,-4.1108,-4.1752,-4.2611,-4.3489,-4.3665,-4.3665,-4.3704,-4.3704,-4.3704,-4.3704,-4.3704,-4.3684,-4.3665,-4.3665,-4.3645,-4.3626,-4.3626,-4.3626,-4.3626,-4.3626,-4.3626,-4.3626,-4.3626,-4.3626,-4.3626,-4.3626,-4.3235,-4.2376,-4.2357,-4.1947,-4.1108,-4.2806,-4.3626,-4.3606,-4.2767,-4.1919,-3.5991,0.0,0.0,0.0,0.0,0.0,0.0,0.0,0.0,-3.5995,-3.6005,-3.5991,-3.5991,-3.5991,-3.5913,-3.5681,-3.5832,-3.5887,-3.5672,-3.5795,-3.589,-3.5894,-3.5891,-3.5905,-3.5908,-3.5911,-3.5905,0.0,-3.5898,-3.5864,-3.5799,-3.5857,-3.5905,-3.5905,-3.5908,-3.5875,-3.5859,-3.5869,-3.5844,-3.5827,-3.582,-3.5818,-3.5815,-3.5799,-3.5782,-3.5765,-3.5765,-3.5782,-3.5799,-3.5799,-3.5799,-3.5799,-3.5799,-3.5799,-3.5838,-3.6137,-3.6236,-3.6381,-3.7269,-3.7753,-3.8096,-3.874,-3.9481,-4.0161,-4.0137,-4.0582,-4.1109,-4.1097,-4.1094,-4.1109,-4.1104,-4.1108,-4.1108,-4.1108,-4.1108,-4.1108,-4.1108,-4.1283,-4.1713,-4.2591,-4.2767,-4.2962,-4.3587,-4.3704,-4.3704,-4.3704,-4.3704,-4.3469,-4.2845,-4.2767,-4.2513,-4.1888,-4.181,-4.181,-4.181,-4.181,-4.181,-4.181,-4.181,-4.181,-4.181,-4.181,-4.1713,-4.1459,-4.1459,-4.1342,-4.1108,-4.1576,-4.181,-4.181,-4.1576,-4.1325,0.0,0.0,0.0,0.0,0.0,0.0,-3.6003,-3.6009,-3.5993,0.0,-3.5994,-3.6007,-3.6003,-3.5996,-3.5991,-3.5991,-3.5991,-3.5991,-3.5965,-3.5927,-3.5904,-3.5889,-3.5897,-3.5891,-3.5908,-3.5905,-3.5892,-3.5911,-3.5878,-3.5842,-3.5799,-3.5842,-3.5864,-3.5898,-3.5889,-3.589,-3.5904,-3.5927,-3.5931,-3.5942,-3.5909,-3.5899,-3.5903,-3.5892,-3.5891,-3.5842,-3.5807,-3.5799,-3.5799,-3.5834,-3.5842,-3.5842,-3.5845,-3.5845,-3.5852,-3.5898,-3.5891,-3.5963,-3.648,-3.695,-3.7379,-3.7887,-3.8629,-3.9351,-3.9702,-4.0145,-4.0625,-4.1007,-4.1101,-4.1094,-4.1104,-4.1108,-4.1108,-4.1108,-4.1108,-4.1108,-4.1108,-4.1108,-4.1244,-4.1752,-4.1869,-4.2025,-4.2533,-4.2611,-4.2611,-4.2611,-4.2611,-4.2435,-4.1927,-4.1869,-4.1654,-4.1147,-4.1108,-4.1108,-4.1108,-4.1108,-4.1108,-4.1108,-4.1108,-4.1108,-4.1108,-4.1108,-4.1108,-4.1108,-4.1108,-4.1108,-4.1108,-4.1108,-4.1108,-4.1108,-4.1108,-4.1108,0.0,0.0,0.0,0.0,0.0,0.0,-3.5962,-3.5965,-3.5977,0.0,-3.5975,-3.5976,-3.5976,-3.5973,-3.5987,-3.5984,-3.5984,-3.5957,-3.5916,-3.589,-3.5894,-3.5894,-3.5894,-3.5894,-3.5894,-3.5891,-3.5892,-3.5905,-3.5842,-3.5799,-3.5799,-3.5818,-3.5842,-3.5898,-3.5891,-3.5904,-3.5908,-3.5962,-3.5991,-3.5991,-3.5939,-3.5908,-3.5903,-3.5897,-3.5892,-3.5905,-3.585,-3.5807,-3.5815,-3.5878,-3.5911,-3.5905,-3.5897,-3.5908,-3.5908,-3.5898,-3.5903,-3.5903,-3.5904,-3.6454,-3.7165,-3.7165,-3.775,-3.859,-3.9312,-3.9585,-3.9858,-4.0717,-4.103,-4.1108,-4.1108,-4.1108,-4.1108,-4.1108,-4.1108,-4.1108,-4.1108,-4.1108,-4.1108,-4.1108,-4.1108,-4.1108,-4.1108,-4.1108,-4.1108,-4.1108,-4.1108,-4.1108,-4.1108,-4.1108,-4.1108,-4.1108,-4.1108,-4.1108,-4.1108,-4.1108,-4.1108,-4.1108,-4.1108,-4.1108,-4.1108,-4.1108,-4.1108,-4.1108,-4.1108,-4.1108,-4.1108,-4.1108,-4.1108,-4.1108,-4.1108,-4.1108,0.0,0.0,0.0,0.0,0.0,0.0,-3.5767,-3.5755,-3.5753,0.0,-3.5768,-3.5772,-3.583,-3.5836,-3.5831,-3.5832,-3.5837,-3.5873,-3.5977,-3.5935,-3.5899,-3.5899,-3.5908,-3.5892,-3.5899,-3.5846,-3.5836,-3.5903,-3.5838,-3.5799,-3.5799,-3.585,-3.5891,-3.5898,-3.5891,-3.5904,-3.5908,-3.5912,-3.5958,-3.5991,-3.5988,-3.5942,-3.5908,-3.5899,-3.5904,-3.5903,-3.5891,-3.5872,-3.5872,-3.5885,-3.5908,-3.5905,-3.5897,-3.5908,-3.5908,-3.5903,-3.5904,-3.5908,-3.5903,-3.6052,-3.6247,-3.6247,-3.6833,-3.7575,-3.7731,-3.8277,-3.9,-3.9819,-4.0561,-4.1108,-4.1108,-4.1108,-4.1108,-4.1108,-4.1108,-4.1108,-4.1108,-4.1108,-4.1108,-4.1108,-4.1108,-4.1108,-4.1108,-4.1108,-4.1108,-4.1108,-4.1108,-4.1108,-4.1108,-4.1108,-4.1108,-4.1108,-4.1108,-4.1108,-4.1108,-4.1108,-4.1108,-4.1108,-4.1108,-4.1108,-4.1108,-4.1108,-4.1108,-4.1108,-4.1108,-4.1108,-4.1108,-4.1108,-4.1108,-4.1108,-4.1108,-4.1108,0.0,0.0,0.0,-3.5696,0.0,0.0,0.0,-3.5693,-3.571,-3.5698,-3.5708,-3.5707,-3.5736,-3.5776,-3.5791,-3.5794,-3.5791,-3.583,-3.5895,-3.5898,-3.5916,-3.5951,-3.5953,-3.5953,-3.5951,-3.5884,-3.5864,-3.5894,-3.5845,-3.5799,-3.5799,-3.5834,-3.5857,-3.5898,-3.5898,-3.5903,-3.5909,-3.5899,-3.5912,-3.5942,-3.5988,-3.5988,-3.5942,-3.5912,-3.5899,-3.5909,-3.5894,-3.5908,-3.5894,-3.5899,-3.5895,-3.5894,-3.5938,-3.5947,-3.5942,-3.5914,-3.5923,-3.5958,-3.5912,-3.5939,-3.5991,-3.5991,-3.6306,-3.6735,-3.7165,-3.7906,-3.8765,-3.9566,-4.0112,-4.0542,-4.0991,-4.1108,-4.1108,-4.1108,-4.1108,-4.1108,-4.1108,-4.1108,-4.1108,-4.1108,-4.1108,-4.1108,-4.1108,-4.1108,-4.1108,-4.1108,-4.1108,-4.1108,-4.1108,-4.1108,-4.1108,-4.1108,-4.1108,-4.1108,-4.1108,-4.1108,-4.1108,-4.1108,-4.1108,-4.1108,-4.1108,-4.1108,-4.1108,-4.1108,-4.1108,-4.1108,-4.1108,-4.1108,-4.1108,-4.1108,-4.1108,-4.1108,0.0,0.0,0.0,0.0,0.0,-3.563,0.0,0.0,0.0,0.0,0.0,0.0,0.0,0.0,0.0,0.0,0.0,0.0,0.0,-3.5719,0.0,-3.5966,-3.5987,-3.5989,-3.5991,-3.5937,-3.5906,-3.5899,-3.5853,-3.5811,-3.5807,-3.5823,-3.5845,-3.5898,-3.5905,-3.5892,-3.5903,-3.5909,-3.5903,-3.5908,-3.5965,-3.5991,-3.5991,-3.5939,-3.5912,-3.5912,-3.5914,-3.5924,-3.5924,-3.5927,-3.5912,-3.5916,-3.5988,-3.5991,-3.5991,-3.5939,-3.5942,-3.5991,-3.5939,-3.5942,-3.5991,-3.5991,-3.5991,-3.613,-3.6833,-3.7653,-3.8492,-3.9136,-3.9546,-3.9956,-4.0678,-4.0971,-4.1108,-4.1108,-4.1108,-4.1108,-4.1108,-4.1108,-4.1108,-4.1108,-4.1108,-4.1108,-4.1108,-4.1108,-4.1108,-4.1108,-4.1108,-4.1108,-4.1108,-4.1108,-4.1108,-4.1108,-4.1108,-4.1108,-4.1108,-4.1108,-4.1108,-4.1108,-4.1108,-4.1108,-4.1108,-4.1108,-4.1108,-4.1108,-4.1108,-4.1108,-4.1108,-4.1108,-4.1108,-4.1108,-4.1108,-4.1108,0.0,0.0,0.0,0.0,-3.5355,0.0,0.0,0.0,-3.5455,-3.5512,0.0,0.0,0.0,0.0,0.0,0.0,0.0,0.0,-3.4661,-3.5232,-3.576,-3.591,-3.591,-3.5935,-3.5991,-3.5937,-3.5906,-3.5899,-3.5884,-3.5899,-3.5898,-3.5889,-3.5894,-3.5905,-3.5905,-3.5905,-3.5905,-3.5897,-3.5904,-3.5908,-3.5965,-3.5991,-3.5991,-3.5991,-3.5991,-3.5991,-3.5988,-3.5988,-3.5988,-3.5988,-3.5991,-3.5991,-3.5991,-3.5991,-3.5991,-3.5991,-3.5991,-3.5991,-3.5991,-3.5991,-3.5991,-3.5991,-3.5991,-3.601,-3.613,-3.6755,-3.7477,-3.7555,-3.8648,-3.9819,-3.9917,-4.0522,-4.1108,-4.1108,-4.1108,-4.1108,-4.1108,-4.1108,-4.1108,-4.1108,-4.1108,-4.1108,-4.1108,-4.1108,-4.1108,-4.1108,-4.1108,-4.1108,-4.1108,-4.1108,-4.1108,-4.1108,-4.1108,-4.1108,-4.1108,-4.1108,-4.1108,-4.1108,-4.1108,-4.1108,-4.1108,-4.1108,-4.1108,-4.1108,-4.1108,-4.1108,-4.1108,-4.1108,-4.1108,-4.1108,-4.1108,-4.1108,0.0,0.0,0.0,0.0,0.0,0.0,-3.535,0.0,-3.5412,0.0,0.0,0.0,0.0,0.0,0.0,0.0,-3.5341,0.0,0.0,0.0,-3.5736,0.0,0.0,0.0,-3.5942,-3.5925,-3.5898,-3.5893,-3.5909,-3.5901,-3.59,-3.5896,-3.5884,-3.5844,-3.5879,-3.5872,-3.5842,-3.5885,-3.5894,-3.5904,-3.5962,-3.5991,-3.5991,-3.5991,-3.5991,-3.5991,-3.5991,-3.5991,-3.5991,-3.5991,-3.5991,-3.5991,-3.5991,-3.5991,-3.5991,-3.5991,-3.5991,-3.5991,-3.5991,-3.5991,-3.5991,-3.5991,-3.5991,-3.5991,-3.5991,-3.6267,-3.6657,-3.7165,-3.7809,-3.857,-3.9546,-4.0073,-4.0464,-4.0971,-4.1108,-4.1108,-4.1108,-4.1108,-4.1108,-4.1108,-4.1108,-4.1108,-4.1108,-4.1108,-4.1108,-4.1108,-4.1108,-4.1108,-4.1108,-4.1108,-4.1108,-4.1108,-4.1108,-4.1108,-4.1108,-4.1108,-4.1108,-4.1108,-4.1108,-4.1108,-4.1108,-4.1108,-4.1108,-4.1108,-4.1108,-4.1108,-4.1108,-4.1108,-4.1108,-4.1108,-4.1108,-4.1108,-3.4369,0.0,0.0,0.0,0.0,0.0,0.0,0.0,0.0,0.0,0.0,0.0,0.0,0.0,0.0,0.0,0.0,-3.5495,0.0,-3.548,0.0,0.0,0.0,0.0,0.0,-3.588,-3.5896,-3.5868,-3.5916,-3.5918,-3.5896,-3.5911,-3.5903,-3.5825,-3.588,-3.5883,-3.5833,-3.5889,-3.5909,-3.5899,-3.5978,-3.5991,-3.5991,-3.5991,-3.5991,-3.5991,-3.5991,-3.5996,-3.6001,-3.6001,-3.6003,-3.6007,-3.6007,-3.6005,-3.6001,-3.5994,-3.5991,-3.5991,-3.5991,-3.5991,-3.5991,-3.5991,-3.5991,-3.5991,-3.5991,-3.5991,-3.613,-3.6774,-3.7126,-3.7575,-3.8804,-3.9292,-3.9683,-4.0542,-4.0737,-4.0815,-4.1049,-4.1108,-4.1108,-4.1108,-4.1108,-4.1108,-4.1108,-4.1108,-4.1108,-4.1108,-4.1108,-4.1108,-4.1108,-4.1108,-4.1108,-4.1108,-4.1108,-4.1108,-4.1108,-4.1108,-4.1108,-4.1108,-4.1108,-4.1108,-4.1108,-4.1108,-4.1108,-4.1108,-4.1108,-4.1108,-4.1108,-4.1108,-4.1108,-4.1108,-4.1108,-4.1108,0.0,0.0,0.0,-3.4025,0.0,0.0,0.0,0.0,-3.5308,0.0,0.0,0.0,0.0,0.0,0.0,0.0,0.0,0.0,0.0,0.0,0.0,0.0,0.0,0.0,0.0,-3.5853,-3.586,-3.5815,-3.5919,-3.5974,-3.5898,-3.5968,-3.5968,-3.5898,-3.5897,-3.5909,-3.59,-3.5907,-3.5903,-3.5908,-3.5965,-3.5991,-3.5991,-3.5991,-3.5991,-3.5991,-3.5991,-3.6003,-3.5995,-3.5995,-3.5996,-3.5992,-3.5992,-3.5996,-3.5994,-3.5999,-3.5991,-3.5991,-3.5991,-3.5991,-3.5991,-3.5991,-3.5991,-3.5991,-3.5991,-3.5991,-3.601,-3.603,-3.6657,-3.7301,-3.7379,-3.8004,-3.8843,-3.9644,-3.9839,-4.0073,-4.0912,-4.1108,-4.1108,-4.1108,-4.1108,-4.1108,-4.1108,-4.1108,-4.1108,-4.1108,-4.1108,-4.1108,-4.1108,-4.1108,-4.1108,-4.1108,-4.1108,-4.1108,-4.1108,-4.1108,-4.1108,-4.1108,-4.1108,-4.1108,-4.1108,-4.1108,-4.1108,-4.1108,-4.1108,-4.1108,-4.1108,-4.1108,-4.1108,-4.1108,-4.1108,-4.1108,0.0,0.0,-3.3131,-3.3077,0.0,0.0,0.0,0.0,0.0,0.0,0.0,0.0,0.0,0.0,0.0,0.0,0.0,0.0,0.0,0.0,0.0,0.0,0.0,0.0,0.0,0.0,-3.5833,-3.5869,-3.5903,-3.5919,-3.5896,-3.5923,-3.5916,-3.5893,-3.5898,-3.5896,-3.5906,-3.5893,-3.5895,-3.5893,-3.5971,-3.5991,-3.5991,-3.5991,-3.5991,-3.5991,-3.5995,-3.5996,-3.5995,-3.5995,-3.5994,-3.5991,-3.5991,-3.5993,-3.5995,-3.5994,-3.6003,-3.5991,-3.5991,-3.5991,-3.5991,-3.5991,-3.5991,-3.5991,-3.5991,-3.5991,-3.5991,-3.5991,-3.6208,-3.6579,-3.7145,-3.7516,-3.7946,-3.8804,-3.9409,-3.9878,-4.0171,-4.0698,-4.1108,-4.1108,-4.1108,-4.1108,-4.1108,-4.1108,-4.1108,-4.1108,-4.1108,-4.1108,-4.1108,-4.1108,-4.1108,-4.1108,-4.1108,-4.1108,-4.1108,-4.1108,-4.1108,-4.1108,-4.1108,-4.1108,-4.1108,-4.1108,-4.1108,-4.1108,-4.1108,-4.1108,-4.1108,-4.1108,-4.1108,-4.1108,-4.1108,-4.1108,-3.1607,-3.2004,0.0,-3.2218,-3.2882,0.0,-3.3547,0.0,-3.4856,0.0,0.0,0.0,0.0,0.0,0.0,0.0,0.0,0.0,0.0,-3.554,0.0,0.0,0.0,0.0,0.0,-3.5747,-3.5791,-3.5857,-3.5891,-3.5898,0.0,-3.5895,-3.5892,-3.5907,-3.5903,-3.5893,-3.5898,-3.5916,-3.5935,-3.5937,-3.5976,-3.5996,-3.5996,-3.5996,-3.5996,-3.5996,-3.5994,-3.5989,-3.5964,-3.5964,-3.596,-3.5955,-3.5955,-3.5957,-3.5966,-3.5995,-3.5994,-3.6003,-3.5996,-3.5991,-3.5991,-3.5991,-3.5991,-3.5991,-3.5991,-3.5991,-3.6049,-3.6384,-3.6247,-3.6208,-3.7067,-3.7067,-3.7067,-3.7926,-3.8531,-3.9078,-3.9663,-4.0249,-4.0737,-4.103,-4.1108,-4.1108,-4.1108,-4.1108,-4.1108,-4.1108,-4.1108,-4.1108,-4.1108,-4.1108,-4.1108,-4.1108,-4.1108,-4.1108,-4.1108,-4.1108,-4.1108,-4.1108,-4.1108,-4.1108,-4.1108,-4.1108,-4.1108,-4.1108,-4.1108,-4.1108,-4.1108,-4.1108,-4.1108,-4.1108,-4.1108,-4.1108]}]]